[[{"header":{"parameterUnit":"m.s-1","parameterCategory":1,"la1":30.6,"la2":28.766,"lo1":-90.7593,"lo2":-88.6598,"dx":0.0162,"dy":0.0183,"nx":116,"ny":114,"refTime":"2022-12-06T18:00:00:Z","depth":0,"parameterNumber":2,"parameterNumberName":"U-component_of_WINDS"},"data":[0.0,0.0,0.0,0.0,0.0,0.0,0.0,0.0,0.0,0.0,0.0,0.0,0.0,0.0,0.0,0.0,0.0,0.0,0.0,0.0,0.0,0.0,0.0,0.0,0.0,0.0,0.0,0.0,0.0,0.0,0.0,0.0,0.0,0.0,0.0,0.0,0.0,0.0,0.0,0.0,0.0,0.0,0.0,0.0,0.0,0.0,0.0,0.0,0.0,0.0,0.0,0.0,0.0,0.0,0.0,0.0,0.0,0.0,0.0,0.0,0.0,0.0,0.0,0.0,0.0,0.0,0.0,0.0,0.0,0.0,0.0,0.0,0.0,0.0,0.0,0.0,0.0,0.0,0.0,0.0,0.0,0.0,0.0,0.0,0.0,0.0,0.0,0.0,0.0,0.0,0.0,0.0,0.0,0.0,0.0,0.0,0.0,0.0,0.0,0.0,0.0,0.0,0.0,0.0,0.0,0.0,0.0,0.0,0.0,0.0,0.0,0.0,0.0,0.0,0.0,0.0,0.0,0.0,0.0,0.0,0.0,0.0,0.0,0.0,0.0,0.0,0.0,0.0,0.0,0.0,0.0,0.0,0.0,0.0,0.0,0.0,0.0,0.0,0.0,0.0,0.0,0.0,0.0,0.0,0.0,0.0,0.0,0.0,0.0,0.0,0.0,0.0,0.0,0.0,0.0,0.0,0.0,0.0,0.0,0.0,0.0,0.0,0.0,0.0,0.0,0.0,0.0,0.0,0.0,0.0,0.0,0.0,0.0,0.0,0.0,0.0,0.0,0.0,0.0,0.0,0.0,0.0,0.0,0.0,0.0,0.0,0.0,0.0,0.0,0.0,0.0,0.0,0.0,0.0,0.0,0.0,0.0,0.0,0.0,0.0,0.0,0.0,0.0,0.0,0.0,0.0,0.0,0.0,0.0,0.0,0.0,0.0,0.0,0.0,0.0,0.0,0.0,0.0,0.0,0.0,0.0,0.0,0.0,0.0,0.0,0.0,0.0,0.0,0.0,0.0,0.0,0.0,0.0,0.0,0.0,0.0,0.0,0.0,0.0,0.0,0.0,0.0,0.0,0.0,0.0,0.0,0.0,0.0,0.0,0.0,0.0,0.0,0.0,0.0,0.0,0.0,0.0,0.0,0.0,0.0,0.0,0.0,0.0,0.0,0.0,0.0,0.0,0.0,0.0,0.0,0.0,0.0,0.0,0.0,0.0,0.0,0.0,0.0,0.0,0.0,0.0,0.0,0.0,0.0,0.0,0.0,0.0,0.0,0.0,0.0,0.0,0.0,0.0,0.0,0.0,0.0,0.0,0.0,0.0,0.0,0.0,0.0,0.0,0.0,0.0,0.0,0.0,0.0,0.0,0.0,0.0,0.0,0.0,0.0,0.0,0.0,0.0,0.0,0.0,0.0,0.0,0.0,0.0,0.0,0.0,0.0,0.0,0.0,0.0,0.0,0.0,0.0,0.0,0.0,0.0,0.0,0.0,0.0,0.0,0.0,0.0,0.0,0.0,0.0,0.0,0.0,0.0,0.0,0.0,0.0,0.0,0.0,0.0,0.0,0.0,0.0,0.0,0.0,0.0,0.0,0.0,0.0,0.0,0.0,0.0,0.0,0.0,0.0,0.0,0.0,0.0,0.0,0.0,0.0,0.0,0.0,0.0,0.0,0.0,0.0,0.0,0.0,0.0,0.0,0.0,0.0,0.0,0.0,0.0,0.0,0.0,0.0,0.0,0.0,0.0,0.0,0.0,0.0,0.0,0.0,0.0,0.0,0.0,0.0,0.0,0.0,0.0,0.0,0.0,0.0,0.0,0.0,0.0,0.0,0.0,0.0,0.0,0.0,0.0,0.0,0.0,0.0,0.0,0.0,0.0,0.0,0.0,0.0,0.0,0.0,0.0,0.0,0.0,0.0,0.0,0.0,0.0,0.0,0.0,0.0,0.0,0.0,0.0,0.0,0.0,0.0,0.0,0.0,0.0,0.0,0.0,0.0,0.0,0.0,0.0,0.0,0.0,0.0,0.0,0.0,0.0,0.0,0.0,0.0,0.0,0.0,0.0,0.0,0.0,0.0,0.0,0.0,0.0,0.0,0.0,0.0,0.0,0.0,0.0,0.0,0.0,0.0,0.0,0.0,0.0,0.0,0.0,0.0,0.0,0.0,0.0,0.0,0.0,0.0,0.0,0.0,0.0,0.0,0.0,0.0,0.0,0.0,0.0,0.0,0.0,0.0,0.0,0.0,0.0,0.0,0.0,0.0,0.0,0.0,0.0,0.0,0.0,0.0,0.0,0.0,0.0,0.0,0.0,0.0,0.0,0.0,0.0,0.0,0.0,0.0,0.0,0.0,0.0,0.0,0.0,0.0,0.0,0.0,0.0,0.0,0.0,0.0,0.0,0.0,0.0,0.0,0.0,0.0,0.0,0.0,0.0,0.0,0.0,0.0,0.0,0.0,0.0,0.0,0.0,0.0,0.0,0.0,0.0,0.0,0.0,0.0,0.0,0.0,0.0,0.0,0.0,0.0,0.0,0.0,0.0,0.0,0.0,0.0,0.0,0.0,0.0,0.0,0.0,0.0,0.0,0.0,0.0,0.0,0.0,0.0,0.0,0.0,0.0,0.0,0.0,0.0,0.0,0.0,0.0,0.0,0.0,0.0,0.0,0.0,0.0,0.0,0.0,0.0,0.0,0.0,0.0,0.0,0.0,0.0,0.0,0.0,0.0,0.0,0.0,0.0,0.0,0.0,0.0,0.0,0.0,0.0,0.0,0.0,0.0,0.0,0.0,0.0,0.0,0.0,0.0,0.0,0.0,0.0,0.0,0.0,0.0,0.0,0.0,0.0,0.0,0.0,0.0,0.0,0.0,0.0,0.0,0.0,0.0,0.0,0.0,0.0,0.0,0.0,0.0,0.0,0.0,0.0,0.0,0.0,0.0,0.0,0.0,0.0,0.0,0.0,0.0,0.0,0.0,0.0,0.0,0.0,0.0,0.0,0.0,0.0,0.0,0.0,0.0,0.0,0.0,0.0,0.0,0.0,0.0,0.0,0.0,0.0,0.0,0.0,0.0,0.0,0.0,0.0,0.0,0.0,0.0,0.0,0.0,0.0,0.0,0.0,0.0,0.0,0.0,0.0,0.0,0.0,0.0,0.0,0.0,0.0,0.0,0.0,0.0,0.0,0.0,0.0,0.0,0.0,0.0,0.0,0.0,0.0,0.0,0.0,0.0,0.0,0.0,0.0,0.0,0.0,0.0,0.0,0.0,0.0,0.0,0.0,0.0,0.0,0.0,0.0,0.0,0.0,0.0,0.0,0.0,0.0,0.0,0.0,0.0,0.0,0.0,0.0,0.0,0.0,0.0,0.0,0.0,0.0,0.0,0.0,0.0,0.0,0.0,0.0,0.0,0.0,0.0,0.0,0.0,0.0,0.0,0.0,0.0,0.0,0.0,0.0,0.0,0.0,0.0,0.0,0.0,0.0,0.0,0.0,0.0,0.0,0.0,0.0,0.0,0.0,0.0,0.0,0.0,0.0,0.0,0.0,0.0,0.0,0.0,0.0,0.0,0.0,0.0,0.0,0.0,0.0,0.0,0.0,0.0,0.0,0.0,0.0,0.0,0.0,0.0,0.0,0.0,0.0,0.0,0.0,0.0,0.0,0.0,0.0,0.0,0.0,0.0,0.0,0.0,0.0,0.0,0.0,0.0,0.0,0.0,0.0,0.0,0.0,0.0,0.0,0.0,0.0,0.0,0.0,0.0,0.0,0.0,0.0,0.0,0.0,0.0,0.0,0.0,0.0,0.0,0.0,0.0,0.0,0.0,0.0,0.0,0.0,0.0,0.0,0.0,0.0,0.0,0.0,0.0,0.0,0.0,0.0,0.0,0.0,0.0,0.0,0.0,0.0,0.0,0.0,0.0,0.0,0.0,0.0,0.0,0.0,0.0,0.0,0.0,0.0,0.0,0.0,0.0,0.0,0.0,0.0,0.0,0.0,0.0,0.0,0.0,0.0,0.0,0.0,0.0,0.0,0.0,0.0,0.0,0.0,0.0,0.0,0.0,0.0,0.0,0.0,0.0,0.0,0.0,0.0,0.0,0.0,0.0,0.0,0.0,0.0,0.0,0.0,0.0,0.0,0.0,0.0,0.0,0.0,0.0,0.0,0.0,0.0,0.0,0.0,0.0,0.0,0.0,0.0,0.0,0.0,0.0,0.0,0.0,0.0,0.0,0.0,0.0,0.0,0.0,0.0,0.0,0.0,0.0,0.0,0.0,0.0,0.0,0.0,0.0,0.0,0.0,0.0,0.0,0.0,0.0,0.0,0.0,0.0,0.0,0.0,0.0,0.0,0.0,0.0,0.0,0.0,0.0,0.0,0.0,0.0,0.0,0.0,0.0,0.0,0.0,0.0,0.0,0.0,0.0,0.0,0.0,0.0,0.0,0.0,0.0,0.0,0.0,0.0,0.0,0.0,0.0,0.0,0.0,0.0,0.0,0.0,0.0,0.0,0.0,0.0,0.0,0.0,0.0,0.0,0.0,0.0,0.0,0.0,0.0,0.0,0.0,0.0,0.0,0.0,0.0,0.0,0.0,0.0,0.0,0.0,0.0,0.0,0.0,0.0,0.0,0.0,0.0,0.0,0.0,0.0,0.0,0.0,0.0,0.0,0.0,0.0,0.0,0.0,0.0,0.0,0.0,0.0,0.0,0.0,0.0,0.0,0.0,0.0,0.0,0.0,0.0,0.0,0.0,0.0,0.0,0.0,0.0,0.0,0.0,0.0,0.0,0.0,0.0,0.0,0.0,0.0,0.0,0.0,0.0,0.0,0.0,0.0,0.0,0.0,0.0,0.0,0.0,0.0,0.0,0.0,0.0,0.0,0.0,0.0,0.0,0.0,0.0,0.0,0.0,0.0,0.0,0.0,0.0,0.0,0.0,0.0,0.0,0.0,0.0,0.0,0.0,0.0,0.0,0.0,0.0,0.0,0.0,0.0,0.0,0.0,0.0,0.0,0.0,0.0,0.0,0.0,0.0,0.0,0.0,0.0,0.0,0.0,0.0,0.0,0.0,0.0,0.0,0.0,0.0,0.0,0.0,0.0,0.0,0.0,0.0,0.0,0.0,0.0,0.0,0.0,0.0,0.0,0.0,0.0,0.0,0.0,0.0,0.0,0.0,0.0,0.0,0.0,0.0,0.0,0.0,0.0,0.0,0.0,0.0,0.0,0.0,0.0,0.0,0.0,0.0,0.0,0.0,0.0,0.0,0.0,0.0,0.0,0.0,0.0,0.0,0.0,0.0,0.0,0.0,0.0,0.0,0.0,0.0,0.0,0.0,0.0,0.0,0.0,0.0,0.0,0.0,0.0,0.0,0.0,0.0,0.0,0.0,0.0,0.0,0.0,0.0,0.0,0.0,0.0,0.0,0.0,0.0,0.0,0.0,0.0,0.0,0.0,0.0,0.0,0.0,0.0,0.0,0.0,0.0,0.0,0.0,0.0,0.0,0.0,0.0,0.0,0.0,0.0,0.0,0.0,0.0,0.0,0.0,0.0,0.0,0.0,0.0,0.0,0.0,0.0,0.0,0.0,0.0,0.0,0.0,0.0,0.0,0.0,0.0,0.0,0.0,0.0,0.0,0.0,0.0,0.0,0.0,0.0,0.0,0.0,0.0,0.0,0.0,0.0,0.0,0.0,0.0,0.0,0.0,0.0,0.0,0.0,0.0,0.0,0.0,0.0,0.0,0.0,0.0,0.0,0.0,0.0,0.0,0.0,0.0,0.0,0.0,0.0,0.0,0.0,0.0,0.0,0.0,0.0,0.0,0.0,0.0,0.0,0.0,0.0,0.0,0.0,0.0,0.0,0.0,0.0,0.0,0.0,0.0,0.0,0.0,0.0,0.0,0.0,0.0,0.0,0.0,0.0,0.0,0.0,0.0,0.0,0.0,0.0,0.0,0.0,0.0,0.0,0.0,0.0,0.0,0.0,0.0,0.0,0.0,0.0,0.0,0.0,0.0,0.0,0.0,0.0,0.0,0.0,0.0,0.0,0.0,0.0,0.0,0.0,0.0,0.0,0.0,0.0,0.0,0.0,0.0,0.0,-1.3433,-1.2753,0.0,0.0,0.0,0.0,0.0,0.0,0.0,0.0,0.0,0.0,0.0,0.0,0.0,0.0,0.0,0.0,0.0,0.0,0.0,0.0,0.0,0.0,0.0,-0.3153,-0.2898,-0.2566,-0.248,0.0,0.0,0.0,0.0,0.0,0.0,0.0,0.0,0.0,-0.237,-0.1883,-0.1955,-0.1925,-0.183,-0.1992,-0.2154,-0.2355,0.0,0.0,0.0,0.0,0.0,0.0,0.0,0.0,0.0,0.0,0.0,0.0,0.0,0.0,0.0,0.0,0.0,0.0,0.0,0.0,0.0,0.0,0.0,0.0,0.0,0.0,0.0,0.0,0.0,0.0,0.0,0.0,0.0,0.0,0.0,0.0,0.0,0.0,0.0,0.0,0.0,0.0,0.0,0.0,0.0,0.0,0.0,0.0,0.0,0.0,0.0,0.0,0.0,0.0,0.0,0.0,0.0,0.0,0.0,0.0,0.0,0.0,0.0,0.0,0.0,0.0,0.0,0.0,0.0,0.0,-1.4102,-1.3479,0.0,0.0,0.0,0.0,0.0,0.0,0.0,0.0,0.0,0.0,0.0,0.0,0.0,0.0,0.0,0.0,0.0,0.0,0.0,0.0,0.0,-0.4145,-0.3793,-0.363,-0.3372,-0.2915,-0.271,-0.2589,-0.2539,-0.2381,0.0,0.0,0.0,0.0,-0.2561,-0.2603,-0.2546,-0.2427,-0.2465,-0.2553,-0.2737,-0.3058,-0.3091,-0.2847,-0.303,0.0,0.0,0.0,0.0,0.0,0.0,0.0,0.0,0.0,0.0,0.0,0.0,0.0,0.0,0.0,0.0,0.0,0.0,0.0,0.0,0.0,0.0,0.0,0.0,0.0,0.0,0.0,0.0,0.0,0.0,0.0,0.0,0.0,0.0,0.0,0.0,0.0,0.0,0.0,0.0,0.0,0.0,0.0,0.0,0.0,0.0,0.0,0.0,0.0,0.0,0.0,0.0,0.0,0.0,0.0,0.0,0.0,0.0,0.0,0.0,0.0,0.0,0.0,-1.5692,-1.5859,-1.6028,-1.5827,-1.5753,-1.5698,-1.4664,-1.4194,-1.4167,-1.3772,0.0,0.0,0.0,0.0,0.0,0.0,0.0,0.0,0.0,0.0,0.0,0.0,0.0,0.0,0.0,0.0,0.0,0.0,0.0,-0.45,-0.4398,-0.3751,-0.3282,-0.3159,-0.286,-0.2685,-0.2669,-0.2648,0.0,0.0,0.0,-0.273,-0.2846,-0.2469,-0.2375,-0.2575,-0.2688,-0.29,-0.3224,-0.3543,-0.3751,-0.3808,-0.3313,-0.3091,-0.3074,0.0,0.0,0.0,0.0,0.0,0.0,0.0,0.0,0.0,0.0,0.0,0.0,0.0,0.0,0.0,0.0,0.0,0.0,0.0,0.0,0.0,0.0,0.0,0.0,0.0,0.0,0.0,0.0,0.0,0.0,0.0,0.0,0.0,0.0,0.0,0.0,0.0,0.0,0.0,0.0,0.0,-1.0352,-1.1447,0.0,0.0,0.0,0.0,0.0,0.0,0.0,0.0,0.0,0.0,0.0,0.0,0.0,-1.5914,-1.5914,-1.5888,-1.5944,-1.6075,-1.5991,-1.6051,-1.616,-1.6028,-1.5964,-1.5923,-1.5619,0.0,-1.5414,-1.5029,0.0,0.0,0.0,0.0,0.0,0.0,0.0,0.0,0.0,0.0,0.0,0.0,0.0,0.0,0.0,0.0,0.0,0.0,0.0,0.0,0.0,-0.4237,-0.3914,-0.3614,-0.3348,-0.3182,-0.3092,-0.2986,0.0,0.0,-0.293,-0.2957,-0.301,-0.2895,-0.2959,-0.3283,-0.3404,-0.356,-0.3702,-0.391,-0.4058,-0.4109,-0.3965,-0.3747,-0.3493,-0.3412,0.0,0.0,0.0,0.0,0.0,0.0,0.0,0.0,0.0,0.0,0.0,0.0,0.0,0.0,0.0,0.0,0.0,0.0,0.0,0.0,0.0,0.0,0.0,0.0,0.0,0.0,0.0,0.0,0.0,0.0,0.0,0.0,0.0,0.0,0.0,0.0,0.0,0.0,0.0,-1.0727,-1.1553,-1.1709,-1.2072,-1.2405,0.0,0.0,0.0,0.0,0.0,0.0,0.0,0.0,0.0,-1.5823,-1.6324,-1.6575,-1.6575,-1.6992,-1.7262,-1.7456,-1.7489,-1.7533,-1.7593,-1.7439,-1.7274,-1.7169,-1.7099,-1.7064,-1.6972,-1.5881,-1.5432,-1.5395,0.0,0.0,0.0,0.0,-1.4643,-1.4643,0.0,0.0,0.0,0.0,0.0,0.0,0.0,0.0,0.0,0.0,0.0,0.0,-0.4924,-0.475,-0.457,-0.4302,-0.3933,-0.3664,-0.3569,-0.3264,-0.3101,-0.3101,-0.3138,-0.3178,-0.3216,-0.3401,-0.3576,-0.379,-0.4026,-0.4175,-0.4227,-0.4527,-0.4661,-0.4689,-0.5008,-0.4714,-0.3969,-0.3867,-0.3713,-0.3513,0.0,0.0,0.0,0.0,0.0,0.0,0.0,0.0,0.0,0.0,0.0,0.0,0.0,0.0,0.0,0.0,0.0,0.0,0.0,0.0,0.0,0.0,0.0,0.0,0.0,0.0,0.0,0.0,0.0,0.0,0.0,0.0,0.0,0.0,0.0,0.0,0.0,-1.1967,-1.2566,-1.2447,-1.3095,-1.3576,0.0,0.0,0.0,0.0,0.0,0.0,-1.6302,-1.6192,-1.6313,-1.674,-1.725,-1.7504,-1.7504,-1.81,-1.8507,-1.8713,-1.8852,-1.8967,-1.9004,-1.8789,-1.861,-1.8468,-1.843,-1.8329,-1.8127,-1.6734,-1.6147,-1.6138,-1.6037,-1.6001,-1.5991,-1.589,-1.5854,-1.5835,0.0,0.0,0.0,0.0,0.0,0.0,0.0,0.0,0.0,0.0,0.0,-0.5595,-0.5559,-0.5153,-0.4998,-0.5296,-0.4507,-0.3986,-0.3967,-0.3421,-0.3101,-0.3101,-0.3219,-0.3384,-0.3576,-0.3839,-0.3901,-0.3795,-0.4241,-0.4617,-0.4874,-0.5592,-0.5921,-0.5951,-0.6598,-0.5984,-0.4469,-0.4461,-0.4341,-0.4145,-0.401,0.0,0.0,0.0,0.0,0.0,0.0,0.0,0.0,0.0,0.0,0.0,0.0,0.0,0.0,0.0,0.0,0.0,0.0,0.0,0.0,0.0,0.0,0.0,0.0,0.0,0.0,0.0,0.0,0.0,0.0,0.0,0.0,0.0,0.0,0.0,0.0,0.0,0.0,-1.4756,-1.4577,0.0,0.0,0.0,0.0,-1.5298,-1.6197,-1.676,-1.6854,-1.7743,-1.8254,-1.8289,-1.8883,-1.9189,-1.9189,-1.9239,-1.9345,-1.9525,-1.9531,-1.965,-1.9836,-1.961,-1.9541,-1.9502,-1.9325,-1.9026,-1.8614,-1.7761,-1.7403,-1.7367,-1.6991,-1.6844,-1.6798,-1.6422,-1.6251,-1.623,0.0,0.0,0.0,-0.754,-0.7334,-0.7196,-0.7196,-0.7121,-0.6939,-0.6594,-0.6407,-0.6221,-0.6008,-0.5837,-0.5724,-0.5732,-0.546,-0.507,-0.4541,-0.4362,-0.4085,-0.37,-0.3728,-0.3897,-0.417,-0.4276,-0.437,-0.4519,-0.4667,-0.4813,-0.4921,-0.5751,-0.6144,-0.6171,-0.6908,-0.6938,-0.6359,-0.6193,-0.6009,-0.5824,-0.5354,-0.492,0.0,0.0,0.0,0.0,0.0,0.0,0.0,0.0,0.0,0.0,0.0,0.0,0.0,0.0,0.0,0.0,0.0,0.0,0.0,0.0,0.0,0.0,0.0,0.0,0.0,0.0,0.0,0.0,0.0,0.0,0.0,0.0,0.0,0.0,0.0,0.0,0.0,-1.4644,-1.5313,0.0,-1.6192,-1.6468,-1.6836,-1.7254,-1.7743,-1.8128,-1.8443,-1.9032,-1.9316,-1.9168,-1.9937,-2.0265,-2.008,-2.037,-2.0548,-2.0628,-2.0618,-2.0592,-2.0492,-2.041,-2.0287,-2.0182,-2.009,-2.0008,-1.9852,-1.9558,-1.8834,-1.7889,-1.7743,-1.7651,-1.7633,-1.7496,-1.745,-1.7423,0.0,0.0,0.0,-0.7569,-0.7349,-0.7196,-0.7196,-0.7314,-0.7233,-0.676,-0.6811,-0.677,-0.6385,-0.6287,-0.629,-0.6362,-0.6187,-0.5875,-0.5445,-0.5138,-0.4793,-0.439,-0.4292,-0.4362,-0.4641,-0.4644,-0.4741,-0.4958,-0.4958,-0.5109,-0.5439,-0.624,-0.674,-0.6994,-0.7759,-0.8138,-0.8211,-0.8015,-0.763,-0.7067,-0.6622,-0.618,-0.5693,0.0,0.0,0.0,0.0,0.0,0.0,0.0,0.0,0.0,0.0,0.0,0.0,0.0,0.0,0.0,0.0,0.0,0.0,0.0,0.0,0.0,0.0,0.0,0.0,0.0,0.0,0.0,0.0,0.0,0.0,0.0,0.0,0.0,0.0,-1.4294,-1.5282,-1.533,-1.6295,-1.7077,-1.7463,-1.7847,-1.8216,-1.8663,-1.8981,-1.9325,-1.9676,-2.0111,-2.0274,-2.0157,-2.0721,-2.0926,-2.0734,-2.1268,-2.1509,-2.1518,-2.1705,-2.1705,-2.1503,-2.1503,-2.1425,-2.1293,-2.1293,-2.1147,-2.0891,-2.0891,-2.0145,-1.8896,-1.8896,-1.8896,-1.8878,-1.8749,-1.8695,-1.8676,0.0,0.0,-0.799,-0.7344,-0.7211,-0.7196,-0.7196,-0.7536,-0.7541,-0.6808,-0.7075,-0.714,-0.6665,-0.6501,-0.6669,-0.7243,-0.6669,-0.6365,-0.6605,-0.5712,-0.5158,-0.514,-0.4846,-0.4769,-0.4891,-0.4894,-0.4965,-0.5106,-0.5106,-0.556,-0.64,-0.7088,-0.7809,-0.8522,-0.9215,-0.9612,-0.9804,-0.9804,-0.9023,-0.776,-0.7743,-0.7505,-0.7052,0.0,0.0,0.0,0.0,0.0,0.0,0.0,0.0,0.0,0.0,0.0,0.0,0.0,0.0,0.0,0.0,0.0,0.0,0.0,0.0,0.0,0.0,0.0,0.0,0.0,0.0,0.0,0.0,0.0,0.0,0.0,0.0,0.0,-1.5069,-1.5078,-1.5605,-1.7058,-1.7592,-1.8075,-1.8681,-1.9116,-1.9346,-1.9364,-1.9907,-2.0299,-2.0507,-2.097,-2.1216,-2.1216,-2.1244,-2.1254,-2.1254,-2.183,-2.2134,-2.2143,-2.2668,-2.2904,-2.2904,-2.2904,-2.2904,-2.2904,-2.2904,-2.2455,-2.1733,-2.1733,-2.1266,-2.0585,-2.0539,-2.0521,-2.0466,-2.0049,-1.9902,-1.9847,-0.8889,-0.8499,-0.8144,-0.7961,-0.753,-0.7196,-0.7196,-0.7536,-0.7605,-0.7064,-0.7331,-0.7417,-0.6929,-0.708,-0.7229,-0.7305,-0.7383,-0.733,-0.7119,-0.6939,-0.6524,-0.5789,-0.5162,-0.4894,-0.5036,-0.5042,-0.5145,-0.533,-0.533,-0.5672,-0.64,-0.7088,-0.7809,-0.8522,-0.9215,-0.9516,-0.958,-0.974,-0.9648,-0.932,-0.8829,-0.8504,-0.8246,0.0,0.0,0.0,0.0,0.0,0.0,0.0,0.0,0.0,0.0,0.0,0.0,0.0,0.0,0.0,0.0,0.0,0.0,0.0,0.0,0.0,0.0,0.0,0.0,0.0,0.0,0.0,0.0,0.0,0.0,0.0,-1.524,-1.6051,-1.5349,-1.6136,-1.7002,-1.7567,-1.8518,-1.9238,-1.9544,-1.9944,-2.0385,-2.0864,-2.0926,-2.099,-2.1228,-2.1755,-2.2023,-2.1858,-2.2598,-2.2909,-2.2719,-2.2897,-2.3065,-2.3249,-2.3028,-2.2989,-2.3167,-2.2989,-2.2904,-2.2904,-2.2904,-2.2776,-2.2574,-2.2574,-2.2446,-2.2117,-2.0979,-2.0521,-2.0512,-2.0393,-2.0356,-2.0296,-0.8946,-0.86,-0.8343,-0.8215,-0.7763,-0.7408,-0.7408,-0.7809,-0.7935,-0.7463,-0.7719,-0.7833,-0.7496,-0.7434,-0.7478,-0.7628,-0.7872,-0.7986,-0.7843,-0.7514,-0.6845,-0.581,-0.5353,-0.5145,-0.5223,-0.5226,-0.527,-0.5395,-0.5686,-0.6213,-0.701,-0.7707,-0.8457,-0.9258,-0.9669,-0.9841,-0.9835,-0.9858,-0.9965,-1.0135,-0.9624,-0.9346,-0.9176,-0.8428,-0.8074,-0.7886,-0.7279,-0.7122,-0.7128,-0.676,0.0,0.0,0.0,0.0,0.0,0.0,0.0,0.0,0.0,0.0,0.0,0.0,0.0,0.0,0.0,0.0,0.0,0.0,0.0,0.0,0.0,0.0,0.0,0.0,-1.6501,-1.7297,-1.7026,-1.765,-1.8226,-1.8527,-1.9401,-2.0038,-2.0254,-2.0608,-2.0995,-2.1556,-2.156,-2.172,-2.2058,-2.2438,-2.2609,-2.26,-2.3112,-2.3355,-2.3299,-2.3381,-2.3465,-2.3616,-2.3516,-2.3542,-2.3677,-2.3503,-2.3455,-2.3455,-2.3455,-2.3316,-2.3151,-2.3151,-2.3059,-2.2812,0.0,0.0,0.0,0.0,-2.1495,-2.1495,-0.8798,-0.8631,-0.853,-0.8287,-0.798,-0.7758,-0.7758,-0.8197,-0.8385,-0.7912,-0.8152,-0.8325,-0.8217,-0.7748,-0.7649,-0.8166,-0.8267,-0.8396,-0.8667,-0.7724,-0.6693,-0.5683,-0.5495,-0.5395,-0.5395,-0.5395,-0.5395,-0.5395,-0.6009,-0.6793,-0.7826,-0.8464,-0.931,-1.0292,-1.0292,-1.0292,-1.028,-1.0079,-1.0126,-1.0375,-1.0161,-1.0027,-0.9929,-0.9389,-0.9017,-0.8723,-0.8179,-0.8084,-0.818,-0.784,0.0,0.0,0.0,0.0,0.0,0.0,0.0,0.0,0.0,0.0,0.0,0.0,0.0,0.0,0.0,0.0,0.0,0.0,0.0,0.0,0.0,0.0,0.0,0.0,-1.7706,-1.854,-1.9329,-1.9346,-1.9409,-1.9669,-2.0289,-2.0743,-2.0908,-2.1217,-2.1549,-2.1868,-2.2057,-2.2417,-2.2914,-2.295,0.0,0.0,0.0,-2.3174,-2.3429,-2.3572,-2.3611,-2.3659,-2.4027,-2.4202,-2.4251,-2.4202,-2.4202,-2.4202,-2.4202,-2.395,-2.3563,-2.3563,-2.3361,-2.3032,-2.294,-2.2904,-2.2904,-2.2904,-2.2904,-2.2866,-0.9178,-0.8866,-0.8645,-0.8544,-0.829,-0.8105,-0.8105,-0.8517,-0.8677,-0.8253,-0.8593,-0.8853,-0.882,-0.8527,-0.8516,-0.8961,-0.8897,-0.8962,-0.9214,-0.8043,-0.7251,-0.7027,-0.5984,-0.5395,-0.5395,-0.5395,-0.5395,-0.5395,-0.5524,-0.6364,-0.7792,-0.7957,-0.8832,-1.0292,-1.0292,-1.0292,-1.0292,-1.0416,-1.0433,-1.0394,-1.0409,-1.0413,-1.0443,-1.0349,-1.0152,-0.995,-0.9712,-0.9605,-0.9506,-0.9343,-0.9237,-0.9207,-0.9184,-0.9188,0.0,0.0,0.0,0.0,0.0,0.0,0.0,0.0,0.0,0.0,0.0,0.0,0.0,0.0,0.0,0.0,0.0,0.0,0.0,-1.7596,-1.8572,-1.9356,-2.0163,-2.0787,-2.0986,-2.0398,-2.1191,-2.1717,-2.1537,-2.2143,-2.2695,-2.2992,-2.2861,-2.2879,-2.3186,-2.331,-2.3428,-2.3467,-2.3934,-2.4198,-2.4247,-2.4282,-2.4417,-2.4622,-2.4362,0.0,-2.444,-2.4251,-2.4202,-2.4202,-2.4202,-2.4156,-2.4082,-2.4082,-2.4036,-2.3859,-2.316,-2.2904,-2.2904,-2.2904,-2.2904,-2.2904,-0.9368,-0.9112,-0.8962,-0.899,-0.8659,-0.8404,-0.8404,-0.8854,-0.9117,-0.8931,-0.9123,-0.9439,-0.9813,-0.9332,-0.9303,-1.0051,-0.9903,-0.958,-0.907,-0.8356,-0.7772,-0.7419,-0.6765,-0.6408,-0.6408,-0.6408,-0.6408,-0.6408,-0.6765,-0.7512,-0.8541,-0.8885,-0.9637,-1.0683,-1.0683,-1.0755,-1.0857,-1.0793,-1.0786,-1.0725,-1.0651,-1.0594,-1.0593,-1.0498,-1.0403,-1.0288,-1.0332,-1.031,-1.0228,-1.0174,-1.005,-0.99,-0.99,-0.98,-0.9715,0.0,0.0,0.0,0.0,0.0,0.0,0.0,0.0,0.0,0.0,0.0,0.0,0.0,0.0,-1.3487,-1.4696,0.0,-1.7,-1.8523,-1.9399,-2.0191,-2.0973,-2.1431,-2.154,-2.1129,-2.194,-2.2437,-2.23,-2.2666,-2.3043,-2.3378,-2.3301,-2.3336,-2.374,-2.3788,-2.3898,-2.3987,-2.4239,-2.439,-2.448,-2.439,-2.4449,-2.4548,-2.4301,-2.4242,-2.4341,-2.4251,-2.4202,-2.4202,-2.4202,-2.4202,-2.4202,-2.4202,-2.4202,-2.4165,-2.3712,-2.3556,-2.3556,-2.3556,-2.3556,-2.3556,-0.9646,-0.9408,-0.9259,-0.9354,-0.9003,-0.8712,-0.8698,-0.9211,-0.9601,-0.9601,-0.9744,-1.0076,-1.0662,-1.0083,-1.0035,-1.1016,-1.0739,-1.014,-0.9221,-0.8769,-0.8258,-0.7647,-0.7484,-0.7386,-0.7386,-0.7386,-0.7386,-0.7386,-0.8004,-0.8611,-0.9246,-0.9887,-1.0474,-1.107,-1.1162,-1.1298,-1.1465,-1.1428,-1.1285,-1.1095,-1.1069,-1.0868,-1.0593,-1.0434,-1.0339,-1.0339,-1.053,-1.0561,-1.0561,-1.0593,-1.0432,-1.02,-1.02,-1.004,-0.9883,-0.9883,-0.9883,0.0,0.0,0.0,0.0,0.0,0.0,0.0,0.0,-1.1513,-1.1866,-1.2317,-1.3281,-1.4362,-1.5611,-1.7139,-1.8518,-1.9483,-2.0273,-2.0973,-2.1705,-2.1943,-2.2044,-2.2044,-2.262,-2.3023,-2.3023,-2.3096,-2.327,-2.359,-2.3657,-2.3804,-2.4183,-2.4202,-2.4251,-2.444,-2.4291,-2.4301,-2.444,-2.4301,-2.4202,-2.4202,-2.4202,-2.4202,-2.4202,-2.4202,-2.4202,-2.4202,-2.4202,-2.4202,-2.4202,-2.4202,-2.4202,-2.4202,-2.4202,-2.4202,-2.4202,-2.4202,-2.4202,-2.4152,-1.0261,-0.9841,-0.9341,-0.9245,-0.9178,-0.911,-0.9054,-0.9558,-0.9945,-0.9945,-1.0416,-1.0792,-1.0866,-1.0674,-1.0789,-1.1387,-1.0694,-1.0401,-1.0725,-0.943,-0.8581,-0.8393,-0.7744,-0.7386,-0.7386,-0.7386,-0.7386,-0.7386,-0.7484,-0.7999,-0.895,-0.9449,-1.0166,-1.1026,-1.1451,-1.1632,-1.17,-1.2581,-1.2238,-1.1176,-1.2055,-1.1669,-1.0593,-1.0593,-1.0466,-1.0339,-1.053,-1.0498,-1.0371,-1.053,-1.0573,-1.0546,-1.0546,-1.0519,-1.0492,-1.0492,-1.0492,-1.0492,-1.0492,-1.068,-1.0855,-1.0889,-1.1042,-1.1349,0.0,-1.2641,-1.3425,-1.5007,-1.5381,-1.6138,-1.8398,-1.8479,-1.8781,-2.0604,-2.1248,-2.1705,-2.2153,-2.284,-2.3297,-2.3297,-2.337,-2.3425,-2.3425,-2.3804,-2.4082,-2.4128,-2.4137,-2.4156,-2.4202,-2.4202,-2.4202,-2.4251,-2.4202,-2.4202,-2.4251,-2.4202,-2.4202,-2.4202,-2.4202,-2.4202,-2.4202,-2.4202,-2.4202,-2.4202,-2.4202,-2.4202,-2.4202,-2.4202,-2.4202,-2.4202,-2.4202,-2.4202,-2.4202,-2.4202,-2.4202,-2.4202,-0.9892,-0.9724,-0.954,-0.9446,-0.9299,-0.919,-0.9162,-0.9841,-1.0345,-1.0345,-1.0871,-1.1342,-1.158,-1.1751,-1.1804,-1.1629,-1.1109,-1.0792,-1.0821,-0.9755,-0.9153,-0.9236,-0.8856,-0.863,-0.863,-0.863,-0.863,-0.863,-0.863,-0.8914,-0.9494,-0.9807,-1.0442,-1.1366,-1.1653,-1.2052,-1.2529,-1.2947,-1.2791,-1.2237,-1.2671,-1.239,-1.1725,-1.1725,-1.1413,-1.0958,-1.0713,-1.0561,0.0,-1.0561,-1.0593,-1.0593,-1.0593,-1.0593,-1.0626,-1.0794,-1.0847,-1.0881,-1.1015,-1.1149,-1.1243,-1.1243,-1.1527,-1.1937,-1.2252,-1.2799,-1.3596,-1.4988,-1.5881,-1.6902,-1.8571,-1.9448,-2.0247,-2.1259,-2.1769,-2.2254,-2.2895,-2.3279,-2.3581,-2.3868,-2.3895,-2.3895,-2.3895,-2.4101,-2.4202,-2.4202,-2.4202,-2.4202,-2.4202,-2.4202,-2.4202,-2.4202,-2.4202,-2.4202,-2.4202,-2.4202,-2.4202,-2.4202,-2.4202,-2.4202,-2.4202,-2.4202,-2.4202,-2.4202,-2.4202,-2.4202,-2.4202,-2.4202,-2.4202,-2.4202,-2.4202,-2.4202,-2.4202,-2.4202,-2.4202,-2.4202,-0.9986,-0.9795,-0.9618,-0.9552,-0.9366,-0.9232,-0.9245,-1.0076,-1.066,-1.0608,-1.1215,-1.1777,-1.2068,-1.2256,-1.2271,-1.2007,-1.1564,-1.1197,-1.0872,-1.012,-0.9692,-0.9686,-0.9576,-0.9516,-0.9516,-0.9516,-0.9516,-0.9516,-0.9548,-0.9677,-0.9898,-1.0362,-1.0969,-1.1641,-1.2048,-1.2583,-1.3212,-1.3412,-1.3313,-1.3004,-1.3228,-1.2987,-1.2512,-1.2512,-1.2212,-1.1694,-1.1083,-1.0744,-1.0593,-1.0593,-1.0593,-1.0593,-1.0593,-1.0646,-1.0754,-1.0929,-1.1109,-1.1263,-1.1355,-1.1603,-1.1806,-1.1963,-1.2292,-1.2658,-1.3175,-1.3481,-1.4074,-1.5493,-1.6636,-1.7771,-1.9054,-2.0287,-2.1282,-2.1769,-2.219,-2.2693,-2.3398,-2.359,-2.3822,-2.4165,-2.4202,-2.4202,-2.4202,-2.4202,-2.4202,-2.4202,-2.4202,-2.4202,-2.4202,-2.4202,-2.4202,-2.4202,-2.4202,-2.4202,-2.4202,-2.4202,-2.4202,-2.4202,-2.4202,-2.4202,-2.4202,-2.4202,-2.4202,-2.4202,-2.4202,-2.4202,-2.4202,-2.4202,-2.4202,-2.4202,-2.4202,-2.4202,-2.4202,-2.4202,-2.4202,-2.4202,-1.1095,-1.027,-0.9485,-0.9421,-0.9341,-0.9314,-0.9381,-1.0258,-1.081,-1.0628,-1.1457,-1.2087,-1.2108,-1.1764,-1.184,-1.2604,-1.2075,-1.1529,-1.1218,-1.0667,-1.0077,-0.9444,-0.9479,-0.9516,-0.9516,-0.9516,-0.9516,-0.9516,-0.9708,-0.981,-0.9823,-1.1083,-1.1677,-1.1764,-1.2849,-1.3386,-1.3453,-1.4222,-1.3949,-1.3068,-1.3775,-1.3455,-1.2512,-1.2512,-1.2481,-1.2389,-1.1694,-1.1083,-1.0593,-1.0593,-1.0593,-1.0593,-1.0593,-1.0787,-1.0982,-1.0989,-1.1396,-1.1819,-1.1503,-1.2051,-1.2866,-1.3411,-1.3341,-1.3606,-1.5319,-1.5239,-1.5461,-1.7654,-1.8329,-1.9045,-2.0709,-2.1046,-2.1374,-2.2126,-2.2611,-2.3032,-2.3435,-2.3886,-2.4183,-2.4202,-2.4202,-2.4202,-2.4202,-2.4202,-2.4202,-2.4202,-2.4202,-2.4202,-2.4202,-2.4202,-2.4202,-2.4202,-2.4202,-2.4202,-2.4202,-2.4202,-2.4202,-2.4202,-2.4202,-2.4202,-2.4202,-2.4202,-2.4202,-2.4202,-2.4202,-2.4202,-2.4202,-2.4202,-2.4202,-2.4202,-2.4202,-2.4202,-2.4202,-2.4202,-2.4202,-2.4202,-1.1537,-1.1226,-1.0942,-1.0695,-1.0724,-1.0695,-1.0492,-1.0297,-1.0159,-1.0068,-1.0936,0.0,0.0,0.0,0.0,0.0,-1.1773,-1.1454,-1.1531,-1.0894,-1.0652,-1.0899,-1.0742,-1.0736,-1.1024,-1.0905,-1.0661,-1.0364,-1.0881,-1.0937,-1.0622,-1.1641,-1.2328,-1.2773,-1.326,-1.3723,-1.4144,-1.4431,-1.4329,-1.4013,-1.4266,-1.4155,-1.3821,-1.3821,-1.3541,-1.313,0.0,-1.2405,-1.1779,-1.1358,-1.1209,-1.1115,-1.0713,-1.0787,-1.1102,-1.169,-1.2004,-1.2364,-1.3221,-1.3572,-1.3906,-1.4834,-1.5165,-1.5345,-1.5779,-1.6048,-1.6565,-1.7772,-1.8506,-1.9356,-2.0766,-2.1392,-2.1962,-2.2713,-2.311,-2.3435,-2.3895,-2.411,-2.4202,-2.4202,-2.4202,-2.4202,-2.4202,-2.4202,-2.4202,-2.4202,-2.4202,-2.4202,-2.4202,-2.4202,-2.4202,-2.4202,-2.4202,-2.4202,-2.4202,-2.4202,-2.4202,-2.4202,-2.4202,-2.4202,-2.4202,-2.4202,-2.4202,-2.4202,-2.4202,-2.4202,-2.4202,-2.4202,-2.4202,-2.4202,-2.4202,-2.4202,-2.4202,-2.4202,-2.4202,-2.4202,-1.2176,-1.1993,-1.1776,-1.1275,-1.1366,0.0,0.0,0.0,0.0,0.0,0.0,0.0,0.0,0.0,0.0,0.0,0.0,-1.1568,-1.1557,-1.1147,-1.1009,-1.1285,-1.1277,-1.1391,-1.1654,-1.1674,-1.1524,-1.1226,-1.1748,-1.1795,-1.1485,-1.2328,-1.2948,-1.339,-1.37,-1.41,-1.4515,-1.4515,-1.4671,-1.4909,-1.4625,-1.468,-1.49,-1.4616,-1.4228,0.0,-1.3851,-1.3571,-1.3078,-1.2151,-1.1694,-1.1442,-1.1185,-1.1254,-1.1639,-1.2494,-1.2968,-1.3449,-1.4477,-1.4904,-1.5265,-1.6211,-1.6229,-1.6091,-1.6533,-1.6562,-1.6746,-1.7552,-1.8485,-1.9429,-2.0305,-2.1288,-2.2186,-2.2835,-2.3253,-2.3636,-2.4146,-2.4202,-2.4202,-2.4202,-2.4202,-2.4202,-2.4202,-2.4202,-2.4202,-2.4202,-2.4202,-2.4266,-2.4422,-2.4431,-2.4496,-2.4633,-2.4633,-2.4633,-2.4633,-2.4633,-2.4633,-2.4633,-2.4633,-2.4633,-2.4633,-2.4633,-2.4633,-2.4633,-2.4486,-2.4431,-2.4413,-2.4266,-2.4202,-2.4202,-2.4202,-2.4202,-2.4202,-2.4202,-2.4202,-2.4152,-1.3055,-1.2603,-1.2027,0.0,0.0,0.0,0.0,0.0,0.0,0.0,0.0,0.0,0.0,0.0,0.0,0.0,0.0,0.0,-1.1346,-1.137,-1.12,-1.0693,-1.1168,-1.1448,-1.1463,-1.1859,-1.2035,-1.2051,-1.2274,-1.2373,-1.2389,-1.3169,-1.3541,-1.3571,-1.4258,-1.4545,-1.4545,-1.4545,-1.5007,-1.5624,-1.4818,-1.4964,-1.5542,-1.4799,-1.4515,-1.4515,-1.4515,-1.4515,-1.4297,-1.2978,-1.2135,-1.1626,-1.1923,-1.2178,-1.2505,-1.3317,-1.415,-1.4934,-1.5245,-1.6053,-1.6879,-1.7482,-1.6573,-1.5966,-1.7553,-1.6852,-1.6152,-1.7198,-1.8394,-1.9357,-1.9542,-2.0876,-2.2113,-2.2519,-2.3099,-2.3636,-2.4146,-2.4202,-2.4202,-2.4202,-2.4202,-2.4202,-2.4202,-2.422,-2.4238,-2.4238,-2.4238,-2.4422,-2.4785,-2.4812,-2.4986,-2.5414,-2.5424,-2.5424,-2.5424,-2.5424,-2.5424,-2.5424,-2.5424,-2.5424,-2.5424,-2.5424,-2.5424,-2.5405,-2.4977,-2.4812,-2.4785,-2.4431,-2.4257,-2.4238,-2.4238,-2.422,-2.4202,-2.4202,-2.4152,-2.3954,0.0,0.0,0.0,0.0,0.0,0.0,0.0,0.0,0.0,0.0,0.0,0.0,0.0,0.0,0.0,0.0,0.0,0.0,-1.1465,-1.1475,-1.1543,-1.1717,-1.1991,-1.2298,-1.2601,-1.2583,-1.2571,-1.2532,-1.3016,-1.3249,-1.3199,-1.392,-1.4258,-1.4258,-1.4902,-1.5157,-1.5157,-1.5157,-1.5282,-1.5425,-1.4758,-1.4634,-1.479,-1.4588,-1.4515,-1.4515,-1.4515,-1.4515,-1.4357,-1.3541,-1.3013,-1.2662,-1.2384,-1.2544,-1.2992,-1.3975,-1.4271,-1.4743,-1.6725,-1.7341,-1.7471,-1.7809,-1.7607,-1.718,-1.665,-1.6626,-1.6906,-1.7549,-1.8366,-1.9276,-2.0319,-2.1168,-2.1924,-2.261,-2.3193,-2.3636,-2.4146,-2.4202,-2.4202,-2.4202,-2.4202,-2.4202,-2.4202,-2.4486,-2.467,-2.467,-2.467,-2.4794,-2.5249,-2.5277,-2.5271,-2.5414,-2.5424,-2.5424,-2.5424,-2.5424,-2.5424,-2.5424,-2.5424,-2.5424,-2.5424,-2.5424,-2.5424,-2.5362,-2.5313,-2.5277,-2.5267,-2.5157,-2.4937,-2.467,-2.467,-2.4477,-2.4202,-2.4202,-2.3646,-2.2778,0.0,0.0,0.0,0.0,0.0,0.0,0.0,0.0,0.0,0.0,0.0,0.0,0.0,0.0,0.0,0.0,0.0,0.0,0.0,-1.15,-1.1607,-1.1825,-1.2295,-1.2641,-1.2859,-1.2969,-1.3001,-1.297,-1.3308,-1.3548,-1.3728,-1.4089,-1.4363,-1.4561,-1.5213,-1.5464,-1.541,-1.569,-1.5887,0.0,0.0,-1.4712,-1.4785,-1.4198,-1.3974,-1.4002,-1.4176,-1.4359,-1.4446,-1.407,-1.387,-1.3672,-1.3114,-1.3366,-1.4124,-1.5066,-1.5439,-1.596,-1.7783,-1.8324,-1.8381,-1.8514,-1.7908,-1.718,-1.6821,-1.6149,-1.574,-1.6343,-1.7362,-1.8217,-1.8458,-2.0193,-2.1655,-2.186,-2.2783,-2.3636,-2.4146,-2.4202,-2.4202,-2.4202,-2.4202,-2.4275,-2.4459,-2.4647,-2.4931,-2.5271,-2.5142,-2.5267,-2.5663,-2.5681,-2.5764,-2.5903,-2.5903,-2.5903,-2.5903,-2.5903,-2.5903,-2.5903,-2.5903,-2.5903,-2.5903,-2.5903,-2.5903,-2.5894,-2.5764,-2.5681,-2.5619,-2.4903,-2.481,-2.4939,-2.3921,-2.3996,-2.4583,-2.3537,-2.2954,-2.2503,0.0,0.0,0.0,0.0,0.0,0.0,0.0,0.0,0.0,-1.2491,-1.2383,-1.2371,0.0,0.0,0.0,0.0,0.0,0.0,0.0,0.0,-1.1395,-1.1338,-1.212,-1.2529,-1.2549,-1.2891,-1.3103,-1.3213,-1.3294,-1.3547,-1.4005,-1.4075,-1.4297,-1.4648,-1.5311,-1.5563,-1.5464,-1.5995,-1.6392,-1.6566,-1.5289,-1.4921,-1.5003,0.0,-1.3341,-1.3351,-1.3773,-1.4157,-1.4515,-1.4515,-1.4617,-1.4624,-1.3941,-1.4399,-1.5381,-1.6252,-1.6896,-1.7553,-1.8491,-1.9006,-1.9262,-1.9103,-1.7827,-1.669,-1.7196,-1.5544,-1.4104,-1.4669,-1.6043,-1.686,-1.5899,-1.8862,-2.1287,-2.0825,-2.2276,-2.3553,-2.4064,-2.4165,-2.4202,-2.4202,-2.4202,-2.4367,-2.4739,-2.4831,-2.517,-2.5957,-2.5745,-2.5736,-2.6076,-2.6094,-2.6269,-2.6582,-2.6591,-2.6591,-2.6591,-2.6591,-2.6591,-2.6591,-2.6591,-2.6591,-2.6591,-2.6591,-2.6591,-2.6564,-2.6251,-2.6094,-2.596,-2.442,-2.4413,-2.5236,-2.3016,-2.347,-2.5154,-2.2888,-2.2425,-2.2624,0.0,0.0,0.0,0.0,0.0,0.0,0.0,0.0,0.0,0.0,-1.352,-1.348,0.0,0.0,0.0,0.0,0.0,0.0,0.0,0.0,0.0,-1.0524,-1.1287,-1.1706,-1.1706,-1.1788,-1.2147,-1.2799,-1.319,-1.3587,-1.4005,-1.4446,-1.4698,-1.4795,-1.5394,-1.5656,-1.5653,-1.5757,-1.5837,-1.5838,-1.5095,-1.458,-1.4191,-1.3965,0.0,0.0,-1.3773,-1.4157,-1.4515,-1.4515,-1.4945,-1.5389,-1.4665,-1.4985,-1.5833,-1.6647,-1.6968,-1.7324,-1.8596,-1.9137,-1.9103,-1.8215,-1.7732,-1.7074,-1.5572,-1.4908,0.0,-1.4626,-1.5637,-1.6676,-1.7249,-1.9203,-2.0766,-2.1003,-2.2139,-2.3151,-2.3544,-2.3941,-2.4202,0.0,-2.4202,-2.4367,-2.4739,-2.5078,-2.5515,-2.5975,-2.6215,-2.6408,-2.6481,-2.6481,-2.6518,-2.6591,-2.6591,-2.6591,-2.6591,-2.6591,-2.6591,-2.6591,-2.6591,-2.6591,-2.6591,-2.6591,-2.6591,-2.6582,-2.6509,-2.6481,-2.6418,-2.511,-2.5117,-2.5742,-2.4317,-2.4456,-2.5206,-2.3807,-2.2794,-2.1921,0.0,0.0,0.0,0.0,0.0,0.0,0.0,-1.4853,-1.5016,-1.4815,-1.4718,-1.4423,-1.3691,-1.3406,-1.3165,0.0,0.0,0.0,0.0,0.0,0.0,0.0,0.0,0.0,0.0,-1.1182,-1.1476,-1.2082,0.0,-1.3126,-1.3801,-1.4351,-1.4701,-1.4923,-1.5532,-1.5761,-1.5727,-1.6033,-1.6026,-1.5742,-1.5185,-1.465,-1.4152,0.0,0.0,0.0,-1.3506,-1.3983,-1.4515,-1.4515,-1.49,-1.535,-1.523,-1.5595,-1.6191,-1.6908,-1.7232,-1.759,-1.833,-1.884,-1.8993,-1.8402,-1.7861,-1.7237,-1.6157,0.0,0.0,-1.4305,-1.5261,-1.6074,-1.6031,-1.8189,-2.0053,-2.0262,-2.1494,-2.2662,-2.3407,-2.3895,-2.4202,-2.4202,-2.4202,-2.445,-2.5032,-2.5313,-2.5628,-2.6296,-2.6472,-2.6591,-2.6591,-2.6591,-2.6591,-2.6591,-2.6591,-2.6591,-2.6591,-2.6591,-2.6591,-2.6591,-2.6591,-2.6591,-2.6591,-2.6591,-2.6591,-2.6591,-2.6591,-2.6245,-2.5569,-2.439,-2.4105,-2.4276,-2.2433,-2.3114,-2.4788,-2.2308,-2.1751,-2.197,0.0,0.0,0.0,0.0,0.0,0.0,0.0,-1.5831,-1.5881,-1.5715,-1.5614,-1.5141,-1.4069,-1.3843,-1.3624,0.0,0.0,0.0,0.0,0.0,0.0,0.0,0.0,0.0,0.0,0.0,0.0,-1.1645,-1.2225,0.0,0.0,0.0,0.0,0.0,-1.5527,-1.567,-1.5587,-1.5968,-1.5923,0.0,0.0,-1.4566,0.0,0.0,0.0,0.0,0.0,-1.379,-1.4455,-1.4476,-1.4656,-1.4954,-1.5478,-1.5949,-1.6376,-1.6839,-1.7286,-1.7673,-1.7763,-1.8271,-1.8775,-1.8674,-1.8112,-1.7423,-1.6774,-1.5393,-1.4095,-1.3625,-1.4622,-1.5352,-1.466,-1.7101,-1.9367,-1.9622,-2.0912,-2.2215,-2.3251,-2.3767,-2.4101,-2.4192,-2.4202,0.0,-2.5341,-2.5424,-2.5711,-2.6527,-2.6591,-2.6591,-2.6591,-2.6591,-2.6591,-2.6591,-2.6591,-2.6591,-2.6591,-2.6591,-2.6591,-2.6591,-2.6591,-2.6591,-2.6591,-2.6591,-2.6591,-2.6591,-2.6591,-2.5907,-2.4723,-2.3488,-2.2974,-2.2813,-2.0608,-2.1687,-2.4047,-2.0952,-2.085,-2.1904,0.0,0.0,0.0,0.0,0.0,0.0,0.0,-1.6115,-1.6262,-1.5748,-1.5693,-1.5546,-1.5173,-1.4657,-1.4314,0.0,0.0,0.0,0.0,0.0,0.0,0.0,0.0,0.0,0.0,0.0,0.0,-1.2151,-1.3037,0.0,0.0,0.0,0.0,0.0,0.0,-1.5165,-1.5131,-1.4764,0.0,0.0,0.0,0.0,0.0,0.0,0.0,0.0,0.0,-1.3733,-1.4327,-1.4455,-1.4315,-1.4257,-1.5141,-1.5827,-1.6299,-1.6232,0.0,-1.7177,-1.6849,-1.7466,-1.8231,-1.8395,-1.8353,-1.7808,-1.5893,0.0,-1.437,-1.2478,-1.3393,-1.464,-1.4885,-1.6879,-1.8792,-1.9724,-2.0738,-2.1789,-2.2793,-2.3306,-2.3739,-2.4156,0.0,0.0,-2.5341,-2.5424,-2.5711,-2.6527,-2.6591,-2.6591,-2.6591,-2.6591,-2.6591,-2.6591,-2.6591,-2.6591,-2.6591,-2.6591,-2.6591,-2.6591,-2.6591,-2.6591,-2.6591,-2.6591,-2.6591,-2.6591,-2.6591,-2.5907,-2.4723,-2.3488,-2.2974,-2.2869,-2.1566,-2.1907,-2.2974,-2.1574,-2.1152,-2.113,0.0,0.0,0.0,0.0,0.0,0.0,-1.683,-1.6938,-1.6744,-1.6241,-1.6098,-1.5935,-1.5582,-1.5171,-1.4806,-1.4441,0.0,0.0,0.0,0.0,0.0,0.0,0.0,0.0,0.0,0.0,-1.1614,-1.221,-1.3207,0.0,0.0,0.0,0.0,0.0,0.0,-1.4947,-1.466,-1.4465,0.0,0.0,0.0,0.0,0.0,0.0,0.0,0.0,0.0,0.0,-1.4306,-1.4366,-1.4198,-1.4107,-1.4711,-1.5262,-1.5704,-1.6017,-1.6445,-1.6779,-1.65,-1.6973,-1.7602,-1.78,-1.7439,-1.6692,-1.5395,0.0,-1.3592,-1.2178,-1.3213,-1.4457,-1.4621,-1.6387,-1.8226,-1.9365,-2.0284,-2.1338,-2.2711,-2.3242,-2.3694,-2.4156,-2.4202,-2.4523,-2.5341,-2.5424,-2.5711,-2.6527,-2.6591,-2.6591,-2.6591,-2.6591,-2.6591,-2.6591,-2.6591,-2.6591,-2.6591,-2.6591,-2.6591,-2.6591,-2.6591,-2.6591,-2.6591,-2.6591,-2.6591,-2.6537,-2.5852,-2.4842,-2.36,-2.2418,-2.1517,-2.078,-2.027,-2.0838,-2.1794,-2.0551,-2.0558,-2.101,0.0,0.0,0.0,0.0,0.0,-1.6564,-1.7631,-1.7557,-1.722,-1.6778,-1.6509,-1.6259,-1.6022,-1.5758,-1.5438,-1.5061,-1.4139,0.0,0.0,0.0,0.0,0.0,0.0,0.0,0.0,0.0,-1.2233,-1.268,-1.3549,-1.4193,0.0,0.0,-1.5108,-1.5108,0.0,0.0,0.0,0.0,0.0,0.0,0.0,0.0,0.0,0.0,0.0,0.0,0.0,0.0,0.0,0.0,0.0,-1.3921,-1.4369,-1.4686,-1.4967,-1.5412,-1.598,-1.638,-1.6046,-1.6451,-1.7012,-1.7248,-1.6668,-1.5813,-1.5209,0.0,-1.2948,-1.2167,-1.3144,-1.4165,-1.426,-1.5955,-1.7752,-1.9085,-1.9869,-2.0935,-2.2674,-2.3142,-2.3565,-2.4137,-2.4312,-2.4661,-2.535,-2.5644,-2.5968,-2.6545,-2.6591,-2.6591,-2.6591,-2.6591,-2.6591,-2.6591,-2.6591,-2.6591,-2.6591,-2.6591,-2.6591,-2.6591,-2.6591,-2.6591,-2.6591,-2.6591,-2.6418,-2.6026,-2.5174,-2.3935,-2.2418,-2.1566,-2.05,-1.9424,-1.9424,-1.9931,-2.0551,-1.9707,-1.9931,-2.0558,0.0,0.0,0.0,0.0,0.0,0.0,-1.7691,-1.7787,-1.7659,-1.7261,-1.6799,-1.6552,-1.668,-1.6454,-1.6346,-1.6466,-1.4714,0.0,0.0,0.0,0.0,0.0,0.0,0.0,0.0,0.0,-1.3254,-1.3784,-1.419,-1.4617,-1.5085,-1.5108,-1.5108,-1.5108,0.0,0.0,0.0,0.0,0.0,0.0,0.0,0.0,0.0,0.0,0.0,0.0,0.0,0.0,0.0,0.0,0.0,0.0,0.0,-1.4227,-1.4143,-1.4293,-1.5186,-1.5972,-1.5385,-1.5741,-1.6394,-1.6824,-1.6286,-1.5631,-1.5266,-1.4021,-1.2804,-1.2371,-1.2929,-1.3609,-1.3932,-1.5594,-1.745,-1.9032,-1.9638,-2.0612,-2.2637,-2.2913,-2.3215,0.0,-2.4569,-2.4931,-2.5387,-2.6105,-2.6582,-2.6591,-2.6591,-2.6591,-2.6591,-2.6591,-2.6591,-2.6591,-2.6591,-2.6591,-2.6591,-2.6591,-2.6591,-2.6591,-2.6591,-2.6591,-2.6591,-2.6591,-2.5962,-2.4834,-2.4787,-2.3432,-2.1231,-2.1231,-2.05,-1.9424,-1.9424,-1.9424,-1.9424,-1.9424,-1.9424,-1.9424,0.0,0.0,0.0,0.0,0.0,0.0,0.0,-1.8288,-1.8115,-1.7679,-1.7482,-1.731,-1.706,-1.6879,-1.6824,-1.6968,-1.5452,0.0,0.0,0.0,0.0,0.0,0.0,0.0,0.0,0.0,-1.4239,-1.4697,-1.5181,-1.5665,-1.6128,-1.6128,-1.6128,-1.6105,-1.5784,-1.5452,0.0,0.0,0.0,0.0,0.0,0.0,0.0,0.0,0.0,0.0,0.0,0.0,0.0,0.0,0.0,0.0,0.0,0.0,0.0,-1.4142,-1.4789,-1.5515,-1.5572,-1.5789,-1.6062,-1.6476,-1.5761,-1.5003,-1.5155,-1.377,-1.2449,-1.2325,-1.2952,-1.3528,-1.3631,-1.5426,-1.7355,-1.8718,-1.9733,-2.0926,-2.2674,0.0,0.0,-2.4137,-2.4817,-2.5286,-2.5414,-2.6105,-2.6591,-2.6591,-2.6591,-2.6591,-2.6591,-2.6591,-2.6591,-2.6591,-2.6591,-2.6591,-2.6591,-2.6591,-2.6591,-2.6591,-2.6591,-2.6591,-2.6582,-2.5743,-2.5174,-2.4723,-2.3038,-2.1907,-2.1117,-2.0328,-1.9764,-1.9424,-1.9424,-1.9424,-1.9424,-1.9424,-1.9424,-1.9424,0.0,0.0,0.0,0.0,0.0,0.0,0.0,-1.8343,-1.84,-1.8095,-1.7902,-1.774,-1.7591,-1.7413,-1.738,-1.755,-1.6356,0.0,0.0,0.0,0.0,0.0,0.0,0.0,-1.4427,-1.4932,-1.5395,-1.5838,-1.6117,-1.64,-1.6662,-1.6623,-1.6598,-1.6587,-1.6289,-1.5968,0.0,0.0,0.0,0.0,0.0,0.0,-1.2699,0.0,0.0,0.0,0.0,0.0,0.0,0.0,0.0,0.0,0.0,0.0,0.0,0.0,-1.4427,-1.484,-1.5091,-1.5255,-1.5405,-1.5666,-1.5173,-1.4737,-1.5312,-1.4048,-1.2732,-1.2732,-1.3135,-1.3535,-1.366,-1.5202,-1.7,-1.8705,-1.9858,-2.1078,-2.2692,-2.3242,0.0,-2.4376,-2.5019,-2.5479,-2.5635,-2.6197,-2.6591,-2.6591,-2.6591,-2.6591,-2.6591,-2.6591,-2.6591,-2.6591,-2.6591,-2.6591,-2.6591,-2.6591,-2.6591,-2.6591,-2.6591,-2.6364,-2.5907,-2.5119,-2.427,-2.3376,-2.1851,-2.0945,0.0,-1.9707,-1.9424,-1.9424,-1.9424,-1.9424,-1.9424,-1.9424,-1.9424,-1.9424,0.0,0.0,0.0,0.0,0.0,0.0,0.0,-1.8025,-1.8369,-1.8428,-1.8027,-1.7861,-1.8129,-1.7955,-1.7882,-1.8109,0.0,0.0,0.0,0.0,0.0,0.0,0.0,0.0,-1.5608,-1.6103,-1.6609,-1.7152,-1.6943,-1.6869,-1.6904,-1.6777,-1.6713,-1.6713,-1.6667,-1.6621,0.0,0.0,0.0,0.0,-1.2755,-1.2315,0.0,0.0,0.0,0.0,0.0,0.0,0.0,0.0,0.0,0.0,0.0,0.0,0.0,0.0,0.0,0.0,0.0,-1.4291,-1.4641,-1.4569,-1.4621,-1.4867,-1.562,-1.4669,0.0,-1.3637,-1.3564,-1.3631,-1.3961,-1.5011,-1.6556,-1.8827,-1.9968,-2.1141,-2.2692,-2.327,0.0,-2.4684,-2.5185,-2.558,-2.5975,-2.6344,-2.6591,-2.6591,-2.6591,-2.6591,-2.6591,-2.6591,-2.6591,-2.6591,-2.6591,-2.6591,-2.6591,-2.6591,-2.6591,-2.6591,-2.6591,-2.5962,-2.4778,-2.4723,-2.3424,-2.1174,-2.1117,-2.0443,-1.9424,-1.9424,-1.9424,-1.9424,-1.9424,-1.9424,-1.9424,-1.9424,-1.9424,-1.9424,0.0,0.0,0.0,0.0,0.0,0.0,0.0,0.0,0.0,0.0,-1.7446,-1.7365,-1.7827,-1.7841,-1.77,0.0,0.0,0.0,0.0,0.0,0.0,0.0,0.0,0.0,-1.6788,-1.6931,-1.7214,-1.7645,-1.7492,-1.7612,-1.8022,-1.7836,-1.7756,-1.7745,-1.7381,-1.6773,0.0,0.0,0.0,0.0,-1.3,-1.2531,0.0,0.0,0.0,0.0,-1.25,-1.2935,0.0,0.0,0.0,0.0,0.0,0.0,0.0,0.0,-1.3418,-1.306,-1.2566,0.0,-1.4956,-1.4421,-1.492,-1.5576,0.0,-1.5054,-1.4428,-1.4746,-1.4275,-1.3923,-1.4245,-1.5677,-1.7098,-1.8137,-2.0184,-2.1952,-2.2774,-2.3565,0.0,-2.4721,-2.5185,-2.558,-2.5975,-2.6344,-2.6591,-2.6591,-2.6591,-2.6591,-2.6591,-2.6591,-2.6591,-2.6591,-2.6591,-2.6591,-2.6591,-2.6591,-2.6591,-2.6591,-2.6591,-2.5962,-2.4778,-2.3824,-2.258,-2.1174,-2.0213,-1.9649,-1.9424,-1.9424,-1.9424,-1.9424,-1.9424,-1.9424,-1.9424,-1.9424,-1.9424,-1.9424,0.0,0.0,0.0,0.0,0.0,0.0,0.0,0.0,0.0,0.0,0.0,-1.7197,-1.7476,-1.7317,0.0,0.0,0.0,0.0,0.0,0.0,0.0,0.0,0.0,-1.6895,-1.7649,-1.7598,-1.7823,-1.8358,-1.8081,-1.8142,-1.8491,-1.822,-1.8084,-1.81,-1.7825,-1.7159,0.0,0.0,0.0,-1.3855,-1.2781,0.0,0.0,0.0,0.0,0.0,-1.2417,-1.2869,0.0,-1.3511,-1.3511,-1.3511,0.0,0.0,0.0,0.0,-1.335,-1.2971,-1.1978,-1.317,-1.4522,-1.3851,-1.4765,-1.5805,-1.5805,-1.5587,-1.5348,-1.5221,-1.4961,-1.4912,-1.5566,-1.6484,-1.7672,-1.9316,-2.0917,-2.2333,0.0,0.0,-2.4358,-2.473,-2.5185,-2.558,-2.5975,-2.6344,-2.6591,-2.6591,-2.6591,-2.6591,-2.6591,-2.6591,-2.6591,-2.6591,-2.6591,-2.6591,-2.6591,-2.6591,-2.6591,-2.6591,-2.6591,-2.5688,-2.3935,-2.332,-2.2021,-2.0328,-1.9707,-1.9424,-1.9424,-1.9424,-1.9424,-1.9424,-1.9424,-1.9424,-1.9424,-1.9424,-1.9424,-1.9424,0.0,0.0,0.0,0.0,0.0,0.0,0.0,0.0,0.0,0.0,0.0,0.0,0.0,0.0,0.0,0.0,0.0,0.0,0.0,0.0,0.0,0.0,0.0,-1.776,-1.8288,-1.8255,-1.8491,-1.9054,-1.8771,-1.8682,-1.8795,-1.8398,-1.8192,-1.8084,-1.7991,-1.7409,0.0,0.0,-1.436,-1.3281,-1.2412,0.0,0.0,0.0,0.0,0.0,0.0,0.0,0.0,-1.3511,-1.3511,-1.3511,-1.3511,0.0,0.0,0.0,0.0,0.0,-1.195,-1.2827,-1.3892,-1.3192,-1.4444,-1.5814,-1.5865,-1.6114,-1.6179,-1.5658,-1.5761,-1.6195,-1.7106,-1.745,-1.8431,-2.082,-2.1761,-2.267,-2.3996,-2.4202,-2.4385,-2.4812,-2.517,-2.5607,-2.6067,-2.638,-2.6591,-2.6591,-2.6591,-2.6591,-2.6591,-2.6591,-2.6591,-2.6591,-2.6591,-2.6591,-2.6591,-2.6591,-2.6591,-2.6591,-2.6591,-2.5348,-2.2974,-2.2974,-2.1687,-1.9424,-1.9424,-1.9424,-1.9424,-1.9424,-1.9424,-1.9424,-1.9424,-1.9424,-1.9424,-1.9424,-1.9424,-1.9424,0.0,0.0,0.0,0.0,0.0,0.0,0.0,0.0,0.0,0.0,0.0,0.0,0.0,0.0,0.0,0.0,0.0,0.0,0.0,0.0,0.0,0.0,-1.7785,-1.8286,-1.8694,-1.9095,-1.9274,-1.9246,-1.9534,-1.9669,-1.9686,-1.9074,-1.8524,-1.8084,-1.7556,-1.7033,-1.6401,-1.4938,-1.3913,-1.3132,-1.2159,0.0,0.0,0.0,0.0,0.0,0.0,0.0,0.0,-1.3511,-1.3511,-1.3511,-1.3511,0.0,0.0,0.0,0.0,0.0,-1.2381,-1.3052,-1.3613,-1.2931,-1.4303,-1.5882,-1.6146,-1.6302,-1.6524,-1.7043,-1.7017,-1.7017,-1.7439,-1.8694,-1.9805,-2.0223,-2.1977,-2.3499,-2.4128,-2.4202,-2.4486,-2.524,-2.5387,-2.5665,-2.6417,-2.6554,-2.6591,-2.6591,-2.6591,-2.6591,-2.6591,-2.6591,-2.6591,-2.6591,-2.6591,-2.6591,-2.6591,-2.6591,-2.6591,-2.6591,-2.6591,-2.5348,-2.2974,-2.2974,-2.1687,-1.9424,-1.9424,-1.9424,-1.9424,-1.9424,-1.9424,-1.9424,-1.9424,-1.9424,-1.9424,-1.9424,-1.9424,-1.9424,0.0,0.0,0.0,0.0,0.0,0.0,0.0,0.0,0.0,0.0,0.0,0.0,0.0,0.0,0.0,0.0,0.0,0.0,0.0,0.0,0.0,-1.7708,-1.8233,-1.8601,-1.8798,-1.8931,-1.9109,-1.9291,-1.9338,-1.9535,-1.9889,-1.8867,-1.8131,-1.7584,-1.6978,-1.6413,-1.5841,-1.4914,-1.4003,-1.3098,0.0,0.0,0.0,0.0,0.0,0.0,0.0,0.0,0.0,0.0,-1.3511,-1.3511,-1.3511,0.0,0.0,0.0,0.0,0.0,-1.2844,-1.3518,-1.4197,-1.4053,-1.5141,-1.638,-1.6707,-1.7218,-1.7733,-1.8092,-1.8423,-1.8835,-1.9497,-2.0262,-2.1056,-2.1831,-2.3018,-2.3932,-2.4174,-2.4395,-2.4762,-2.535,-2.5607,-2.5975,-2.6527,-2.6591,-2.6591,-2.6591,-2.6591,-2.6591,-2.6591,-2.6591,-2.6591,-2.6591,-2.6793,-2.6903,-2.6903,-2.7114,-2.7013,-2.6582,-2.5962,-2.4723,-2.2982,-2.2305,-2.106,-1.9424,-1.9424,-1.9424,-1.9424,-1.9424,-1.9424,-1.9424,-1.9424,-1.9424,-1.9424,-1.9424,-1.9424,-1.9424,0.0,0.0,0.0,0.0,0.0,0.0,0.0,0.0,0.0,0.0,0.0,0.0,0.0,0.0,0.0,0.0,0.0,0.0,0.0,0.0,-1.7504,-1.7938,-1.846,-1.8744,-1.8718,-1.8704,-1.894,-1.9394,-1.931,-1.939,-1.9572,-1.8442,-1.759,-1.695,-1.6358,-1.5825,-1.5352,-1.4762,-1.4016,-1.3139,0.0,0.0,0.0,0.0,0.0,0.0,0.0,0.0,0.0,0.0,0.0,0.0,0.0,0.0,0.0,-1.3511,-1.3449,-1.3392,-1.3338,-1.4007,-1.4824,-1.5305,-1.6014,-1.6757,-1.7418,-1.8113,-1.8718,-1.8936,-1.9644,-2.0505,-2.1248,-2.1672,-2.2289,-2.3471,-2.395,-2.4202,-2.4202,-2.4569,-2.4931,-2.5378,-2.5773,-2.6177,-2.6545,-2.6591,-2.6591,-2.6591,-2.6591,-2.6591,-2.6591,-2.6674,-2.6729,-2.6729,-2.7105,-2.7315,-2.7315,-2.7675,-2.7295,-2.6326,-2.536,-2.413,-2.2531,-2.1623,-2.0551,-1.9424,-1.9424,-1.9424,-1.9424,-1.9424,-1.9424,-1.9424,-1.9424,-1.9424,-1.9424,-1.9424,-1.9424,-1.9424,0.0,0.0,0.0,0.0,0.0,0.0,0.0,0.0,0.0,0.0,0.0,0.0,0.0,0.0,0.0,0.0,0.0,0.0,0.0,0.0,-1.7243,-1.7798,-1.8342,-1.8572,-1.8422,-1.8837,-1.9251,-1.9661,-2.0079,-1.9784,-1.8764,-1.8045,-1.725,-1.633,-1.5719,-1.5439,-1.5323,-1.4173,-1.358,-1.3327,-1.2798,0.0,0.0,0.0,0.0,0.0,0.0,0.0,0.0,0.0,0.0,0.0,0.0,0.0,-1.3511,-1.3511,-1.3318,-1.3251,-1.3863,-1.4413,-1.5051,-1.6063,-1.6319,-1.673,-1.825,-1.851,-1.8684,-1.9605,-2.0585,-2.1328,-2.1392,-2.2462,-2.3517,-2.4082,-2.4183,-2.4202,-2.4202,-2.4569,-2.4931,-2.5378,-2.5773,-2.6177,-2.6545,-2.6591,-2.6591,-2.6591,-2.6591,-2.6591,-2.6591,-2.694,-2.7132,-2.7132,-2.7574,-2.7776,-2.7776,-2.7803,-2.7026,-2.5461,-2.5405,-2.3967,-2.1345,-2.1231,-2.0551,-1.9424,-1.9424,-1.9424,-1.9424,-1.9424,-1.9424,-1.9424,-1.9424,-1.9424,-1.9424,-1.9424,-1.9424,-1.9424,0.0,0.0,0.0,0.0,0.0,0.0,0.0,0.0,0.0,0.0,0.0,0.0,0.0,0.0,0.0,0.0,0.0,0.0,0.0,-1.6327,-1.7346,-1.8148,-1.837,-1.8383,-1.8232,-1.8514,-1.9008,-1.9688,-2.0036,-1.9493,-1.8077,-1.744,-1.6637,-1.5719,-1.501,-1.4734,-1.4686,-1.4107,-1.3646,-1.3272,-1.3037,-1.2297,0.0,0.0,0.0,0.0,0.0,0.0,0.0,0.0,-1.1966,-1.2204,-1.1836,-1.1974,-1.2351,-1.2757,-1.2641,-1.2649,-1.4094,-1.4654,-1.525,-1.6879,-1.7457,-1.7883,-1.8837,-1.9502,-2.0095,-2.0849,-2.1535,-2.2108,-2.2618,-2.3389,-2.3978,-2.4174,-2.4202,-2.4293,-2.456,-2.4946,-2.5298,-2.5745,-2.6149,-2.6417,-2.6573,-2.6591,-2.6591,-2.6591,-2.6591,-2.6692,-2.694,-2.7095,-2.7288,-2.7592,-2.7939,-2.8159,-2.8159,-2.8397,-2.7305,-2.4908,-2.4671,-2.3452,-2.1409,-2.0667,-1.9993,-1.9424,-1.9424,-1.9424,-1.9424,-1.9424,-1.9424,-1.9424,-1.9424,-1.9424,-1.9424,-1.9424,-1.9424,-1.9424,0.0,0.0,0.0,0.0,0.0,0.0,0.0,0.0,0.0,0.0,0.0,0.0,0.0,0.0,0.0,0.0,0.0,0.0,-1.5365,-1.6349,-1.7301,-1.8267,-1.8313,-1.8232,-1.8084,-1.8045,-1.8464,-1.9339,-1.9404,-1.874,-1.7388,-1.6762,-1.5973,-1.5098,-1.4526,-1.4297,-1.4297,-1.3886,-1.3478,-1.3075,-1.2898,-1.2032,0.0,0.0,0.0,0.0,0.0,0.0,0.0,0.0,-1.113,-1.1332,-1.1117,-1.1243,-1.1663,-1.2461,-1.2583,-1.2841,-1.4512,-1.5313,-1.6075,-1.7509,-1.8434,-1.9097,-1.9662,-2.0361,-2.1076,-2.1752,-2.23,-2.2876,-2.3611,-2.396,-2.4202,-2.4202,-2.4312,-2.4505,-2.4739,-2.5286,-2.5708,-2.5984,-2.6388,-2.6591,-2.6591,-2.6591,-2.6591,-2.6591,-2.6591,-2.6765,-2.716,-2.7297,-2.7545,-2.8005,-2.837,-2.8581,-2.8581,-2.8847,-2.7561,-2.4698,-2.4452,-2.3206,-2.1154,-2.0285,-1.978,-1.9506,-1.9506,-1.9511,-1.9424,-1.9424,-1.9424,-1.9424,-1.9424,-1.9424,-1.9424,-1.9424,-1.9424,-1.9424,0.0,0.0,0.0,0.0,0.0,0.0,0.0,0.0,0.0,0.0,0.0,0.0,0.0,0.0,0.0,0.0,0.0,0.0,-1.522,-1.612,-1.7057,-1.8077,-1.8084,-1.8084,-1.8084,-1.7501,-1.7654,-1.8594,-1.8187,-1.7595,-1.6772,-1.6032,-1.5267,-1.4476,-1.4366,-1.4297,-1.4249,-1.3494,-1.3029,-1.274,-1.2206,-1.1428,-1.0587,0.0,0.0,0.0,0.0,0.0,0.0,0.0,-1.031,-1.0951,-1.0291,-1.0741,-1.17,-1.275,-1.3371,-1.3939,-1.5163,-1.6465,-1.7583,-1.7981,-1.9112,-2.0219,-2.07,-2.0962,-2.1356,-2.2163,-2.2931,-2.3675,-2.4128,-2.4202,-2.4202,-2.4202,-2.456,-2.4785,-2.4785,-2.5515,-2.6012,-2.6021,-2.6388,-2.6591,-2.6591,-2.6591,-2.6591,-2.6591,-2.6591,-2.6765,-2.716,-2.761,-2.7967,-2.8388,-2.8783,-2.8984,-2.8984,-2.8984,-2.7633,-2.4994,-2.4994,-2.3299,-2.0173,-2.0173,-2.008,-1.9806,-1.98,-1.9639,-1.943,-1.9424,-1.9424,-1.9424,-1.9424,-1.9424,-1.9424,-1.9424,-1.9424,-1.9424,0.0,0.0,0.0,0.0,0.0,0.0,0.0,0.0,0.0,0.0,0.0,0.0,0.0,0.0,0.0,0.0,0.0,0.0,-1.5096,-1.6061,-1.7057,-1.8077,-1.7705,-1.7462,-1.7462,-1.6728,-1.6497,-1.6769,-1.7028,-1.6616,-1.5589,-1.537,-1.5001,-1.4476,-1.4198,-1.383,-1.3334,-1.2688,-1.2232,-1.1843,-1.1313,-1.0624,-0.995,0.0,0.0,0.0,0.0,0.0,0.0,0.0,0.0,0.0,-0.9456,-0.9712,-1.0244,-1.103,-1.1286,-1.1785,-1.3997,-1.5227,-1.6335,-1.8276,-1.9448,-2.0416,-2.1428,-2.1708,-2.1987,-2.2948,-2.3602,-2.4005,-2.4183,-2.4202,-2.4202,-2.4202,-2.456,-2.4876,-2.5161,-2.569,-2.6122,-2.6371,-2.6509,-2.6591,-2.6591,-2.6591,-2.6591,-2.6591,-2.6848,-2.7178,-2.762,-2.7985,-2.8388,-2.8792,-2.892,-2.8984,-2.8984,-2.8984,-2.7633,-2.4994,-2.4994,-2.3419,-2.0541,-2.0541,-2.0388,-2.0094,-1.9887,-1.9746,-1.9659,-1.9511,-1.9424,-1.9424,-1.9424,-1.9424,-1.9424,-1.9424,-1.9424,-1.9424,0.0,0.0,0.0,0.0,0.0,0.0,0.0,0.0,0.0,0.0,-1.2556,-1.2455,0.0,0.0,0.0,0.0,0.0,0.0,-1.4752,-1.5762,-1.6672,-1.7434,-1.728,-1.6978,-1.65,-1.5998,-1.5642,-1.5411,-1.6033,-1.593,-1.5102,-1.4773,-1.4413,-1.401,-1.339,-1.2887,-1.2488,-1.1908,-1.145,-1.1037,-1.0484,-0.9884,-0.9279,0.0,0.0,0.0,0.0,0.0,0.0,0.0,0.0,0.0,-0.9065,-0.9287,-0.9695,-1.0592,-1.0883,-1.1469,-1.4052,-1.5312,-1.6433,-1.8766,-1.9895,-2.0786,-2.208,-2.247,-2.2817,-2.3599,-2.3978,-2.4202,-2.4202,-2.4202,-2.4257,-2.4422,-2.4799,-2.5203,-2.5598,-2.6002,-2.6307,-2.6554,-2.6591,-2.6591,-2.6591,-2.6591,-2.6591,-2.6591,-2.6949,-2.7408,-2.7803,-2.8168,-2.8572,-2.8975,-2.8984,-2.8984,-2.8984,-2.8984,-2.7942,-2.579,-2.579,-2.4638,-2.2374,-2.1334,-2.0688,-2.0388,-1.998,-1.98,-1.978,-1.9486,-1.9424,-1.9424,-1.9424,-1.9424,-1.9424,-1.9424,-1.9424,-1.9424,0.0,0.0,0.0,0.0,0.0,0.0,0.0,0.0,0.0,-1.2692,-1.2502,-1.2383,0.0,0.0,0.0,-1.2048,-1.2559,-1.3283,-1.4161,-1.52,-1.5928,-1.6286,-1.6754,-1.6437,-1.5293,-1.5245,-1.4981,-1.4515,-1.5168,-1.53,-1.4945,-1.4141,-1.3549,-1.3169,-1.2235,-1.1764,-1.1688,-1.1127,-1.0727,-1.0375,-0.9758,-0.9191,-0.871,-0.8427,0.0,0.0,0.0,0.0,0.0,0.0,0.0,0.0,-0.8987,-0.9269,-0.9719,-1.0894,-1.1463,-1.2218,-1.4738,-1.608,-1.7262,-1.934,-2.0452,-2.1318,-2.261,-2.3242,-2.3703,-2.4128,-2.4202,-2.4202,-2.4202,-2.4238,-2.4385,-2.4721,-2.5142,-2.5598,-2.5966,-2.6379,-2.6591,-2.6591,-2.6591,-2.6591,-2.6591,-2.6591,-2.6591,-2.6591,-2.6985,-2.7389,-2.7803,-2.8205,-2.8618,-2.8975,-2.9044,-2.9044,-2.9044,-2.9044,-2.837,-2.7073,-2.7013,-2.6286,-2.4933,-2.2404,-2.1074,-2.071,-2.0227,-1.9965,-1.978,-1.9512,-1.9392,-1.9424,-1.9424,-1.9424,-1.9424,-1.9424,-1.9424,-1.9424,0.0,0.0,0.0,0.0,0.0,0.0,0.0,0.0,-1.2484,-1.2538,-1.2365,-1.2246,-1.2246,-1.2156,0.0,-1.1664,-1.2408,-1.2884,-1.2829,-1.4013,-1.4777,-1.4921,-1.5178,-1.4967,-1.424,-1.401,-1.4091,-1.4515,-1.4139,-1.3931,-1.3822,-1.3032,-1.2591,-1.2481,-1.202,-1.1524,-1.0972,-1.0512,-1.0052,-0.9653,-0.9101,-0.8949,-0.8963,-0.8493,-0.8409,0.0,0.0,0.0,0.0,0.0,0.0,0.0,-0.877,-0.9125,-0.956,-0.9834,-1.0359,-1.1324,-1.3391,-1.4849,-1.6421,-1.9016,-2.1071,-2.2537,-2.2849,-2.351,-2.4101,-2.4183,-2.4202,-2.4202,-2.4202,-2.4477,-2.4675,-2.4766,-2.5424,-2.592,-2.6002,-2.6379,-2.6591,-2.6591,-2.6591,-2.6591,-2.6591,-2.6591,-2.6591,-2.6591,-2.7298,-2.773,-2.7822,-2.8462,-2.8893,-2.8975,-2.9272,-2.9381,-2.9381,-2.9381,-2.871,-2.7366,-2.7134,-2.6286,-2.4933,-2.3387,-2.1929,-2.073,-2.161,-2.1159,-1.98,-1.9733,-1.9573,-1.9424,-1.9424,-1.9424,-1.9424,-1.9424,-1.9424,-1.9424,0.0,0.0,0.0,0.0,0.0,0.0,0.0,0.0,-1.2611,-1.2496,-1.2048,-1.1845,-1.2155,-1.197,0.0,0.0,-1.205,-1.2246,-1.2298,-1.303,-1.363,-1.4042,-1.4085,-1.3867,-1.3444,-1.3298,-1.3331,-1.3541,-1.2864,-1.2864,-1.348,-1.2573,-1.1989,-1.164,-1.1,-1.0503,-1.0148,-0.9913,-0.9693,-0.948,-0.9059,-0.8975,-0.9053,-0.8656,-0.859,-0.8692,-0.8554,0.0,0.0,0.0,0.0,0.0,0.0,0.0,-0.9516,-0.9612,-1.0089,-1.0972,-1.2745,-1.4329,-1.6248,-1.9261,-2.1496,-2.2904,-2.2904,-2.3574,-2.4202,-2.4202,-2.4202,-2.4202,-2.4202,-2.4551,-2.4849,-2.5032,-2.5617,-2.6085,-2.6287,-2.6454,-2.6591,-2.6591,-2.6591,-2.6591,-2.6591,-2.6591,-2.6591,-2.6591,-2.7381,-2.7822,-2.7822,-2.8535,-2.8984,-2.8984,-2.9153,-2.9331,-2.9499,-2.9331,-2.9016,-2.8453,-2.8113,-2.7263,-2.5912,-2.4,-2.2616,-2.1845,-2.176,-2.1155,-2.0201,-1.992,-1.9713,-1.9559,-1.9419,-1.9424,-1.9424,-1.9424,-1.9424,-1.9424,0.0,0.0,0.0,0.0,0.0,0.0,0.0,0.0,0.0,-1.2304,-1.1675,-1.1465,-1.2018,-1.1785,-1.1716,0.0,0.0,0.0,-1.1866,-1.1982,-1.2335,-1.2972,-1.2911,-1.2751,-1.2513,-1.2505,-1.2475,-1.2417,-1.1819,-1.2066,-1.3139,-1.2143,-1.1361,-1.0773,-0.9881,-0.9516,-0.9516,-0.9516,-0.9516,-0.9498,-0.9263,-0.9167,-0.9143,-0.8878,-0.8806,-0.8842,-0.8794,-0.8776,-0.8776,-0.8776,0.0,0.0,0.0,0.0,-0.9548,-0.9708,-1.0118,-1.0867,-1.2311,-1.4219,-1.6526,-1.9529,-2.1506,-2.273,-2.2876,-2.3519,-2.4119,-2.4183,-2.4202,-2.4202,-2.4202,-2.4606,-2.4986,-2.5368,-2.5819,-2.6241,-2.6536,-2.6591,-2.6591,-2.6591,-2.6591,-2.6591,-2.6591,-2.6591,-2.6619,-2.6683,-2.7361,-2.7849,-2.7923,-2.8581,-2.9044,-2.9103,-2.9103,-2.9331,-2.9627,-2.9331,-2.9272,-2.9568,-2.9153,-2.843,-2.7263,-2.4617,-2.3318,-2.3062,-2.1707,-2.0963,-2.0641,-2.0154,-1.9893,-1.9773,-1.9539,-1.947,-1.9424,-1.9424,-1.9424,-1.9424,0.0,0.0,0.0,0.0,0.0,0.0,0.0,0.0,0.0,0.0,-1.1423,-1.1498,-1.158,-1.185,-1.1914,-1.1616,-1.1529,-1.1236,-1.0587,0.0,0.0,-1.0648,-1.0959,-1.1055,-1.0913,-1.0953,-1.1358,-1.2156,-1.1706,-1.1577,-1.1763,-1.073,-1.0174,-0.9958,-0.9644,-0.9516,-0.9516,-0.9516,-0.9516,-0.951,-0.9474,-0.9462,-0.9426,-0.9149,-0.9197,-0.9378,-0.9131,-0.9047,-0.9047,-0.9047,-0.9065,0.0,0.0,0.0,-0.9516,-0.9548,-0.989,-1.0514,-1.1628,-1.4467,-1.744,-1.9005,-2.0632,-2.2044,-2.2748,-2.3251,-2.373,-2.4128,-2.4202,-2.4202,-2.4202,-2.4826,-2.5359,-2.5414,-2.6004,-2.6527,-2.6582,-2.6591,-2.6591,-2.6591,-2.6591,-2.6591,-2.6591,-2.6591,-2.6729,-2.7077,-2.7517,-2.7921,-2.8287,-2.8737,-2.9153,-2.945,-2.9686,-2.9922,-3.0274,-2.9922,-2.9804,-2.9863,-2.9281,-2.8916,-2.8609,-2.5973,-2.4124,-2.3076,-2.2846,-2.2004,-2.0668,-2.0595,-2.0261,-1.98,-1.976,-1.9586,-1.9424,-1.9424,-1.9424,-1.9424,0.0,0.0,0.0,0.0,0.0,0.0,0.0,0.0,0.0,0.0,0.0,-1.1038,-1.1462,-1.167,-1.1685,-1.1512,-1.1283,-1.0813,-1.0028,-0.9933,-0.9899,-0.9869,-1.0035,-1.01,-1.0046,-1.0059,-1.0382,-1.0966,-1.0784,-1.0698,-1.0643,-1.0206,-0.9958,-0.9894,-0.9606,-0.9516,-0.9516,-0.9516,-0.9516,-0.9516,-0.9516,-0.9516,-0.9504,-0.9378,-0.9408,-0.9498,-0.9378,-0.933,-0.933,-0.933,-0.933,-0.933,-0.933,0.0,0.0,0.0,-0.9768,-1.0429,-1.2266,-1.4638,-1.7053,-1.876,-2.0464,-2.1906,-2.2721,-2.3215,-2.3608,-2.4119,-2.4202,-2.4202,-2.4202,-2.4689,-2.5115,-2.5387,-2.5911,-2.6316,-2.6554,-2.6591,-2.6591,-2.6591,-2.6591,-2.6591,-2.6591,-2.6591,-2.6655,-2.6839,-2.7473,-2.7904,-2.8031,-2.8636,-2.9153,-2.9509,-2.945,-2.9745,-3.0382,-2.9912,-2.9745,-2.9922,-2.9627,-2.9144,-2.8361,-2.6269,-2.4855,-2.407,-2.2654,-2.1588,-2.0909,-2.0742,-2.0521,-2.0261,-1.9927,-1.972,-1.9593,-1.9491,-1.9424,-1.9424,0.0,0.0,0.0,0.0,0.0,0.0,0.0,0.0,0.0,0.0,0.0,-1.0583,-1.114,0.0,0.0,0.0,-1.0872,-1.0215,-0.939,-0.9293,-0.9228,-0.9122,-0.9117,-0.9113,-0.9059,-0.9213,-0.9443,-0.9757,-0.9977,-1.005,-0.9977,-0.9983,-0.9983,-0.9926,-0.9644,-0.9516,-0.9516,-0.9516,-0.9516,-0.9516,-0.9516,-0.9516,-0.9516,-0.9516,-0.9548,-0.9586,-0.9594,-0.9602,-0.9592,-0.9594,-0.957,-0.9516,-0.9516,-0.9516,0.0,0.0,0.0,-1.0337,-1.2348,-1.4119,-1.5865,-1.8004,-1.9765,-2.1275,-2.2364,-2.2986,-2.3462,-2.3914,-2.4128,-2.4202,-2.4202,-2.4551,-2.4876,-2.5221,-2.569,-2.6122,-2.6389,-2.6518,-2.6591,-2.6591,-2.6591,-2.6591,-2.6591,-2.6591,-2.6628,-2.6729,-2.737,-2.7868,-2.7978,-2.8599,-2.9153,-2.9509,-2.9272,-2.9509,-3.0274,-2.9853,-2.9686,-2.9922,-2.9922,-2.9381,-2.8403,-2.6503,-2.5468,-2.5109,-2.2404,-2.1299,-2.1342,-2.1063,-2.0866,-2.0745,-2.0167,-1.9867,-1.9766,-1.9472,-1.9424,-1.9424,0.0,0.0,0.0,0.0,0.0,0.0,0.0,0.0,0.0,0.0,0.0,-1.0321,-1.036,-1.0698,-1.0938,-1.0938,-1.017,-0.93,-0.8422,-0.8373,-0.8196,-0.7808,-0.7802,0.0,-0.7619,-0.8176,-0.8602,-0.8878,-0.9706,-1.0036,-0.991,-0.9957,-0.9926,-0.9804,-0.958,-0.9516,-0.9516,-0.9516,-0.9516,-0.9516,-0.9516,-0.9516,-0.9516,-0.9516,-0.9612,-0.9803,-0.9859,-0.9825,-0.9809,-0.9865,-0.9721,-0.9516,-0.9516,-0.9516,-0.9516,0.0,0.0,0.0,-1.0972,-1.2264,-1.3908,-1.6193,-1.7895,-1.9514,-2.1337,-2.2373,-2.305,-2.3444,-2.3877,-2.4202,-2.4202,-2.4551,-2.4785,-2.4812,-2.5506,-2.6021,-2.6039,-2.6334,-2.6591,-2.6591,-2.6591,-2.6591,-2.6591,-2.6591,-2.6747,-2.7114,-2.7583,-2.7996,-2.8342,-2.8755,-2.9153,-2.9509,-2.9499,-2.9627,-2.9922,-2.9863,-2.9872,-2.9922,-2.9922,-2.9863,-2.9686,-2.7116,-2.5956,-2.5774,-2.2834,-2.1734,-2.2048,-2.172,-2.1423,-2.1136,-2.0456,-2.004,-1.9766,-1.9472,-1.9424,-1.9424,0.0,0.0,0.0,0.0,0.0,0.0,0.0,0.0,0.0,0.0,0.0,0.0,0.0,-1.0346,-1.0404,-0.9989,-0.922,-0.8638,-0.8324,-0.8062,-0.7848,-0.7703,-0.7412,-0.7326,-0.7506,-0.7705,-0.8147,-0.8804,-0.903,-0.9254,-0.9443,-0.9396,-0.9358,-0.9351,-0.947,-0.9516,-0.9516,-0.9516,-0.9516,-0.9528,-0.9827,-0.9966,-0.9984,-1.0284,-1.0453,-1.0499,-1.0396,-1.0331,-1.0273,-0.9998,-0.9841,-0.9739,-0.957,-0.9516,-0.9516,-0.9516,-0.9703,-1.0089,-1.087,-1.1999,-1.3412,-1.5283,-1.7005,-1.8742,-2.0482,-2.15,-2.2382,-2.3306,-2.3608,-2.384,-2.4156,-2.433,-2.4514,-2.4739,-2.5014,-2.5433,-2.5938,-2.614,-2.6289,-2.6554,-2.6591,-2.6591,-2.6591,-2.6591,-2.6646,-2.6784,-2.7169,-2.7563,-2.7967,-2.8379,-2.8895,-2.9499,-2.9499,-2.9736,-3.0216,-3.0401,-3.0528,-3.0528,-3.0528,-3.0098,-2.9176,-2.722,-2.6017,-2.5301,-2.3153,-2.2167,-2.2111,-2.1985,-2.1734,-2.1423,-2.0999,-2.0517,-2.004,-1.9753,-1.9526,-1.9424,0.0,0.0,0.0,0.0,0.0,0.0,0.0,0.0,-0.9204,-0.9471,0.0,0.0,0.0,0.0,-0.9878,-0.9198,-0.859,-0.8175,-0.8048,-0.7685,-0.7474,-0.7474,-0.7168,-0.7114,-0.7337,-0.7437,-0.7832,-0.8485,-0.8626,-0.8712,-0.8767,-0.8982,-0.8991,-0.8855,-0.9199,-0.9426,-0.9516,-0.9516,-0.957,-0.966,-1.0067,-1.0229,-1.0267,-1.0745,-1.0915,-1.0928,-1.0874,-1.0856,-1.0785,-1.0467,-1.0276,-1.0092,-0.9825,-0.9621,-0.9516,-0.9516,-0.9636,-0.9904,-1.0518,-1.1388,-1.2486,-1.4055,-1.5698,-1.7383,-1.9305,-2.0536,-2.1626,-2.2838,-2.3306,-2.3581,-2.3895,-2.411,-2.4293,-2.4578,-2.4684,-2.4968,-2.5543,-2.5727,-2.5966,-2.6325,-2.638,-2.6435,-2.6573,-2.6591,-2.6591,-2.6591,-2.6949,-2.7344,-2.761,-2.8095,-2.8747,-2.949,-2.9499,-2.9795,-3.0382,-3.0635,-3.0762,-3.0889,-3.0889,-3.0216,-2.8861,-2.734,-2.6078,-2.501,-2.3347,-2.255,-2.2418,-2.2167,-2.1985,-2.1706,-2.1224,-2.0679,-2.0194,-1.9907,-1.9619,-1.9424,0.0,0.0,0.0,0.0,0.0,0.0,0.0,0.0,-0.9693,-0.97,0.0,0.0,0.0,0.0,0.0,-0.8672,-0.83,-0.7942,-0.7562,-0.7208,-0.7013,-0.7013,-0.7006,-0.7,-0.7,-0.733,-0.7625,-0.7892,-0.8472,-0.8468,-0.7925,-0.8755,-0.8842,-0.8303,-0.8807,-0.9183,-0.9484,-0.9484,-0.9666,-0.9907,-1.0147,-1.0279,-1.0381,-1.0855,-1.1073,-1.1111,-1.1341,-1.1414,-1.1367,-1.1325,-1.1028,-1.0579,-1.0294,-0.9896,-0.9528,-0.9484,-0.9516,-0.9576,0.0,0.0,0.0,-1.241,-1.38,-1.5492,-1.7871,-1.941,-2.0644,-2.198,-2.2895,-2.3395,-2.3471,-2.3859,-2.4183,-2.4183,-2.4542,-2.4766,-2.4785,-2.5115,-2.5552,-2.5947,-2.5993,-2.6159,-2.6527,-2.6564,-2.6573,-2.6591,-2.694,-2.7169,-2.7178,-2.7948,-2.8738,-2.9471,-2.9499,-2.9795,-3.0392,-3.0382,-3.0577,-3.0889,-3.0889,-3.0216,-2.8861,-2.7607,-2.6286,-2.501,-2.3347,-2.2793,-2.305,-2.2355,-2.2111,-2.2013,-2.1106,-2.0508,-2.0153,-1.992,-1.9633,-1.9437,0.0,0.0,0.0,0.0,0.0,-0.8567,-0.8721,-0.9094,-0.9417,0.0,0.0,0.0,-0.9709,-0.9473,-0.9253,-0.9044,-0.8593,-0.8269,-0.8147,-0.7658,-0.7363,-0.7363,-0.7134,-0.7,-0.7,-0.708,-0.7295,-0.7618,-0.7784,-0.786,-0.7898,-0.7763,-0.775,-0.7857,-0.7581,-0.7922,-0.8818,-0.9285,-0.9666,-0.9952,-1.0486,-1.0988,-1.1443,-1.2057,-1.2411,-1.2576,-1.2499,-1.2479,-1.2421,-1.2087,-1.175,-1.1333,-1.0486,-1.0019,-0.9757,-0.957,-0.9516,-0.9576,-0.9835,0.0,0.0,0.0,0.0,0.0,-1.5996,-1.7064,-1.8267,-2.0487,-2.1105,-2.1616,-2.2864,-2.3398,-2.3712,-2.3712,-2.406,-2.4486,-2.4739,-2.4876,-2.5148,-2.5543,-2.5589,-2.5745,-2.6149,-2.6186,-2.6315,-2.6564,-2.6692,-2.6875,-2.716,-2.7948,-2.8667,-2.9332,-2.9644,-3.0098,-3.0762,-3.0762,-3.083,-3.0889,-3.0889,-3.0216,-2.8861,-2.7607,-2.6286,-2.501,-2.3596,-2.2863,-2.2738,-2.2299,-2.1985,-2.1727,-2.1456,-2.1058,-2.0514,-2.0221,-1.9927,-1.9646,0.0,0.0,-0.7616,-0.7849,-0.8261,-0.8651,-0.8918,-0.9311,-0.9637,0.0,0.0,0.0,-0.988,-0.9599,-0.9397,-0.9397,-0.9005,-0.8738,-0.8738,-0.8201,-0.7812,-0.7669,-0.7324,-0.7069,-0.6971,-0.6907,-0.703,-0.734,-0.7225,-0.7156,-0.7107,-0.6908,-0.688,-0.7012,-0.7186,-0.7706,-0.856,-0.9332,-0.9829,-1.0134,-1.093,-1.1503,-1.1942,-1.2726,-1.3035,-1.3125,-1.3202,-1.316,-1.3074,-1.2863,-1.2414,-1.1777,-1.1006,-1.0554,-1.0218,-0.979,-0.9776,-0.9913,-0.9858,-1.0098,-1.0507,-1.1148,0.0,0.0,-1.523,-1.5934,-1.7008,-1.9852,-2.0088,-2.0357,-2.2079,-2.2566,-2.2802,-2.3204,-2.3232,-2.3529,-2.4414,-2.4569,-2.4716,-2.5078,-2.5124,-2.5332,-2.5727,-2.5764,-2.5938,-2.6298,-2.6325,-2.6573,-2.7141,-2.7627,-2.8318,-2.9268,-2.9524,-3.0044,-3.0889,-3.0889,-3.0889,-3.0889,-3.0333,-2.9362,-2.8086,-2.6762,-2.5493,-2.4216,-2.3168,-2.2543,-2.2362,-2.1859,-2.167,-2.1614,-2.1418,-2.1117,-2.0641,-2.0341,-2.0047,-1.976,0.0,0.0,-0.7808,-0.8342,-0.8691,-0.9005,-0.9264,-0.9777,-1.0167,0.0,-1.0394,-1.0492,-1.0194,-0.9933,-0.9809,-0.9809,-0.9477,-0.9311,-0.9311,-0.8791,-0.8337,-0.8019,-0.7619,-0.7266,-0.6945,-0.6817,-0.6839,-0.6988,-0.6754,-0.642,-0.5987,-0.6173,-0.6206,-0.6143,-0.7215,-0.7982,-0.8538,-0.9353,-0.9957,-1.0487,-1.143,-1.1853,-1.2031,-1.2994,-1.3296,-1.3236,-1.3688,-1.3743,-1.3576,-1.3675,-1.3074,-1.2192,-1.179,-1.1373,-1.0928,-1.0245,-1.0275,-1.0454,-0.9987,-1.0119,-1.0424,-1.0567,-1.1255,0.0,-1.49,-1.534,-1.6147,-1.9254,-1.9198,-1.9163,-2.0891,-2.1211,-2.1453,-2.2326,-2.2018,-2.2166,-2.3709,-2.3868,-2.3981,-2.4302,-2.4347,-2.4552,-2.5106,-2.5142,-2.5359,-2.5867,-2.5984,-2.6352,-2.7068,-2.716,-2.7781,-2.9117,-2.9221,-2.9815,-3.081,-3.0869,-3.0889,-3.0889,-2.953,-2.8206,-2.6952,-2.5615,-2.4332,-2.2988,-2.2355,-2.2111,-2.1985,-2.1425,-2.1299,-2.1481,-2.1235,-2.0949,-2.0688,-2.0394,-2.0094,-1.9806,-0.743,-0.7692,-0.8029,-0.8617,-0.9165,-0.9613,-0.987,-1.0247,-1.0506,-1.0506,-1.0553,-1.0573,-1.0512,-1.0459,-1.0419,-1.0419,-1.012,-0.9917,-0.9917,-0.9371,-0.8911,-0.8651,-0.8332,-0.7871,-0.7224,-0.7195,-0.6856,-0.6222,-0.6276,-0.6149,-0.5839,-0.5516,-0.5826,-0.6648,-0.6439,-0.7152,-0.8484,-0.8475,-0.9417,-1.0999,-1.1586,-1.1888,-1.2116,-1.3445,-1.4064,-1.4253,-1.4639,-1.4701,-1.4654,-1.4406,-1.3948,-1.3367,-1.2804,-1.2305,-1.1826,-1.1251,-1.0982,-1.0706,-1.0234,-1.0257,-1.0406,-1.0503,-1.0962,0.0,-1.275,-1.306,-1.3685,0.0,-1.6197,-1.6692,-1.8091,-1.8723,-1.9208,-1.9632,-1.9909,-2.0568,-2.2109,-2.1862,-2.1573,-2.1646,-2.1655,-2.2162,-2.341,-2.3557,-2.4085,-2.5402,-2.5828,-2.6232,-2.6674,-2.7004,-2.7521,-2.8293,-2.8937,-2.9604,-3.0332,-3.0703,-3.0889,-3.0889,-2.953,-2.8206,-2.6952,-2.5431,-2.3961,-2.2675,-2.2299,-2.1922,-2.167,-2.1544,-2.1362,-2.1172,-2.1109,-2.1076,-2.0989,-2.0695,-2.0401,-1.9919,-0.7609,-0.7799,-0.8139,-0.8871,-0.9392,-0.978,-1.0074,-1.0367,-1.0593,-1.0593,-1.072,-1.0861,-1.0975,-1.0995,-1.0995,-1.0995,-1.0722,-1.0555,-1.0555,-0.997,-0.9517,-0.9259,-0.8765,-0.827,-0.7756,-0.7347,-0.6861,-0.6242,-0.6243,-0.6088,-0.5791,-0.5762,-0.6184,-0.6947,-0.6743,-0.7463,-0.8761,-0.8359,-0.9,-1.0342,-1.1248,-1.2114,-1.301,-1.3933,-1.4576,-1.4997,-1.5291,-1.5491,-1.5571,-1.514,-1.4749,-1.4312,-1.3736,-1.3263,-1.2752,-1.2056,-1.1741,-1.1485,-1.0887,-1.0812,-1.0905,-1.102,-1.1335,0.0,0.0,-1.2835,-1.3181,-1.5069,-1.5006,-1.5131,-1.6864,-1.7219,-1.75,-1.8289,-1.8338,-1.8543,-1.9296,-2.0013,-2.0474,-2.0649,-2.0673,-2.1012,-2.1932,-2.2024,-2.2431,-2.3383,-2.4536,-2.5227,-2.5432,-2.6381,-2.7253,-2.8056,-2.8709,-2.9412,-3.0195,-3.0664,-3.0577,-2.9903,-2.8573,-2.7185,-2.5729,-2.4263,-2.3161,-2.2362,-2.1985,-2.1734,-2.1614,-2.1418,-2.1235,-2.1109,-2.1109,-2.1109,-2.1076,-2.0782,-2.0488,-2.0066,-0.7812,-0.7999,-0.8332,-0.9158,-0.9573,-0.9866,-1.016,-1.0439,-1.0613,-1.0667,-1.0895,-1.1169,-1.1369,-1.1389,-1.1389,-1.1389,-1.1209,-1.1076,-1.1076,-1.0581,-1.0154,-0.9896,-0.9248,-0.8718,-0.837,-0.7684,-0.7079,-0.6664,-0.6361,-0.6037,-0.5699,-0.6051,-0.6477,-0.6947,-0.7355,-0.8038,-0.89,-0.8549,-0.8911,-0.9857,-1.0939,-1.2212,-1.3595,-1.4416,-1.5104,-1.5605,-1.5892,-1.6152,-1.6319,-1.5886,-1.5464,-1.5079,-1.464,-1.4193,-1.3728,-1.2885,0.0,0.0,0.0,0.0,0.0,0.0,-1.1764,-1.217,0.0,0.0,0.0,0.0,0.0,0.0,0.0,-1.5737,-1.5784,-1.6699,0.0,0.0,0.0,-1.7795,0.0,-1.9548,-1.9664,-1.9892,-2.0437,-2.0743,-2.1079,-2.1466,-2.2888,-2.3835,-2.3934,-2.5341,-2.6582,-2.7529,-2.8219,-2.903,-2.9955,-3.0238,-2.9886,-2.8861,-2.7306,-2.5851,-2.4571,-2.3098,-2.2237,-2.1985,-2.167,-2.1481,-2.1488,-2.1235,-2.1109,-2.1109,-2.1109,-2.1109,-2.1082,-2.0848,-2.0575,-2.0213,-0.7892,-0.8325,-0.8905,-0.9526,-0.9873,-1.0167,-1.0492,-1.0573,-1.0687,-1.0909,-1.1196,-1.1355,-1.1389,-1.1389,-1.1389,-1.1389,-1.1362,-1.1342,-1.1342,-1.1069,-1.0762,-1.0506,-1.014,-0.9641,-0.9001,-0.8619,-0.8011,-0.7199,-0.6288,-0.5684,-0.5362,-0.5524,-0.5847,-0.6366,-0.7731,-0.8345,-0.8326,-0.8567,-0.9606,-1.1103,-1.1186,-1.1701,-1.2638,-1.4807,-1.5885,-1.6213,-1.65,-1.6627,-1.6653,-1.657,-1.6203,-1.5796,-1.5684,-1.5266,-1.4714,-1.4094,0.0,0.0,0.0,0.0,0.0,-1.1572,-1.1764,-1.1919,-1.2094,0.0,-1.2432,-1.2651,0.0,0.0,0.0,0.0,0.0,0.0,0.0,0.0,-1.3821,-1.4577,-1.552,-1.6621,-1.699,-1.7616,-1.8926,-2.0194,-2.1079,-2.1466,-2.1675,-2.2102,-2.2692,-2.3867,-2.4881,-2.5514,-2.7225,-2.8498,-2.9199,-2.8791,-2.8698,-2.8861,-2.6147,-2.4756,-2.451,-2.2598,-2.167,-2.167,-2.1299,-2.1172,-2.1172,-2.1109,-2.1109,-2.1109,-2.1109,-2.1109,-2.1109,-2.1076,-2.0875,-2.0451,-0.8176,-0.8524,-0.8991,-0.9579,-0.9927,-1.0214,-1.0546,-1.0734,-1.1035,-1.167,-1.1857,-1.2071,-1.2425,-1.2421,-1.2421,-1.2421,-1.2138,-1.2004,-1.2214,-1.1597,-1.1021,-1.0497,-1.0424,-0.9991,-0.913,-0.8546,-0.8106,-0.7815,-0.7074,-0.6497,-0.6064,-0.654,-0.687,-0.7052,-0.7923,-0.8706,-0.9284,-0.8743,-0.9758,-1.1711,-1.1509,-1.2382,-1.3897,-1.527,-1.6226,-1.6871,-1.7108,-1.7215,-1.7188,-1.7021,-1.6837,-1.664,-1.6384,-1.6036,-1.565,-1.5068,0.0,0.0,0.0,0.0,-1.2698,-1.2578,-1.257,-1.2599,-1.2307,-1.2434,-1.2512,-1.219,0.0,0.0,0.0,0.0,0.0,0.0,-1.3187,0.0,0.0,0.0,0.0,0.0,0.0,0.0,-1.7738,-1.8424,-1.889,-1.9201,-2.0016,-2.0613,-2.0902,-2.2383,-2.3548,-2.4128,-2.5336,-2.6308,-2.6929,-2.7138,-2.699,-2.6372,-2.5205,-2.4077,-2.3091,-2.2041,-2.1481,-2.1299,-2.1172,-2.1109,-2.1109,-2.1109,-2.1109,-2.1109,-2.1109,-2.1109,-2.1109,-2.1109,-2.0922,-2.0573,-0.815,-0.8657,-0.9185,-0.9613,-0.9993,-1.0334,-1.0667,-1.1028,-1.149,-1.2204,-1.2518,-1.2839,-1.324,-1.3327,-1.3327,-1.3327,-1.2852,-1.2639,-1.2898,-1.1965,-1.1249,-1.092,-1.0428,-0.9911,-0.9349,-0.8456,-0.8051,-0.8149,-0.747,-0.6966,-0.6577,-0.7152,-0.7325,-0.7185,-0.7936,-0.8817,-0.9643,-0.912,-1.0169,-1.226,-1.2269,-1.3567,-1.5588,-1.6108,-1.6707,-1.7347,-1.7508,-1.7582,-1.7549,-1.7393,-1.7268,-1.717,-1.6921,-1.663,-1.6341,0.0,0.0,0.0,-1.4377,-1.4009,-1.3831,-1.35,-1.3387,-1.3207,-1.2784,-1.2729,-1.2685,-1.2315,-1.2247,0.0,0.0,0.0,0.0,0.0,0.0,-1.2623,0.0,0.0,0.0,0.0,0.0,0.0,0.0,-1.6985,-1.7199,-1.7494,-1.8562,-1.9237,-1.9277,-2.0855,-2.2017,-2.2638,-2.3654,-2.4484,-2.5156,-2.5561,-2.5398,-2.4607,-2.4101,-2.3278,-2.2111,-2.167,-2.1362,-2.1109,-2.1109,-2.1109,-2.1109,-2.1109,-2.1109,-2.1109,-2.1109,-2.1109,-2.1109,-2.1109,-2.0975,-2.0748,-0.7592,-0.8732,-0.9688,-0.9708,-1.0191,-1.0673,-1.0935,-1.1504,-1.1986,-1.2265,-1.302,-1.3567,-1.3586,-1.3586,-1.3586,-1.3586,-1.3313,-1.3186,-1.32,-1.2059,-1.1645,-1.2211,-1.0207,-0.9336,-0.9965,-0.8673,-0.8015,-0.8015,-0.7003,-0.652,-0.6499,-0.6666,-0.645,-0.6042,-0.773,-0.8538,-0.87,-0.9706,-1.1185,-1.2918,-1.3635,-1.5232,-1.7154,-1.7422,-1.7542,-1.7569,-1.7582,-1.7582,-1.7582,-1.7569,-1.7417,-1.7219,-1.7183,-1.698,-1.6657,-1.6384,-1.6093,-1.5803,-1.5418,-1.4955,-1.4504,-1.4159,-1.3841,-1.3513,-1.322,-1.2966,-1.2784,-1.277,0.0,0.0,0.0,0.0,0.0,0.0,0.0,0.0,0.0,0.0,0.0,0.0,0.0,0.0,0.0,-1.6386,-1.684,0.0,-1.7487,-1.7775,-1.8029,-1.9199,-2.018,-2.0781,-2.2505,-2.3784,-2.4514,-2.4148,-2.4206,-2.4607,-2.2945,-2.2174,-2.2111,-2.1418,-2.1109,-2.1109,-2.1109,-2.1109,-2.1109,-2.1109,-2.1109,-2.1109,-2.1109,-2.1109,-2.1109,-2.1109,-2.1102,-2.1056,-0.7756,-0.826,-0.8563,-0.8563,-0.8939,-0.9598,-1.0691,-1.1145,-1.1802,-1.3021,-1.3627,-1.4008,-1.4159,-1.4396,-1.4516,-1.4516,-1.4249,-1.4162,-1.4398,-1.2962,-1.2249,-1.2479,-1.0687,-0.9631,-0.9605,-0.8436,-0.7872,-0.8011,-0.7228,-0.6758,-0.663,-0.667,-0.6487,-0.6176,-0.8049,-0.9073,0.0,0.0,0.0,-1.4078,-1.5266,-1.6364,-1.7233,-1.7521,-1.7582,-1.7582,-1.7582,-1.7582,-1.7582,-1.7582,-1.7529,-1.7463,-1.7468,-1.7389,-1.7257,-1.6967,-1.6847,-1.667,-1.6132,-1.5858,-1.5591,-1.5097,-1.4877,-1.4632,-1.4012,-1.3765,-1.3581,-1.322,0.0,0.0,0.0,0.0,0.0,0.0,0.0,0.0,0.0,0.0,0.0,0.0,0.0,0.0,0.0,0.0,0.0,0.0,-1.7179,0.0,-1.7722,-1.8291,-1.8965,-1.9818,-2.0407,-2.1234,-2.2318,-2.2182,-2.2401,-2.2984,-2.2148,-2.1908,-2.2111,-2.1425,-2.1109,-2.1109,-2.1109,-2.1109,-2.1109,-2.1109,-2.1109,-2.1109,-2.1109,-2.1109,-2.1109,-2.1109,-2.1109,-2.0909,-0.7334,-0.738,-0.7483,-0.7918,-0.834,-0.9125,-1.0689,-1.1191,-1.2006,-1.3571,-1.4242,-1.4663,-1.4905,-1.5157,-1.5317,-1.547,-1.5157,-1.5064,-1.5257,-1.3861,-1.3132,-1.329,-1.1456,-1.0362,-1.0237,-0.8771,-0.8025,-0.8025,-0.721,-0.6686,-0.6512,-0.6512,-0.6423,-0.6329,-0.7718,-0.8944,-1.0018,-1.137,-1.3028,-1.495,-1.6313,-1.7041,-1.7387,-1.7622,-1.7742,-1.7749,-1.7749,-1.7816,-1.7903,-1.7903,-1.7903,-1.7889,-1.7782,-1.7749,-1.7689,-1.744,-1.7353,-1.7253,-1.6764,-1.6636,-1.6496,-1.5858,-1.5705,-1.5551,-1.4784,-1.4515,-1.4272,-1.3805,-1.34,0.0,0.0,0.0,0.0,0.0,0.0,0.0,0.0,0.0,0.0,0.0,0.0,0.0,0.0,0.0,0.0,0.0,0.0,0.0,0.0,-1.7769,-1.8232,-1.9076,-1.9271,-1.9864,-2.0864,-2.1227,-2.1604,-2.1997,-2.1868,-2.181,-2.1922,-2.1481,-2.1235,-2.1109,-2.1109,-2.1109,-2.1109,-2.1109,-2.1109,-2.1109,-2.1109,-2.1109,-2.1109,-2.1109,-2.1109,-2.0909,-0.6384,-0.6318,-0.6588,-0.7777,-0.8396,-0.9229,-1.0787,-1.1555,-1.2457,-1.386,-1.4825,-1.5524,-1.5751,-1.5804,-1.5985,-1.6266,-1.6039,-1.5824,-1.5824,-1.4706,-1.4218,-1.4566,-1.245,-1.142,-1.1739,-0.9713,-0.8461,-0.8094,-0.6947,-0.6324,-0.6193,-0.6181,-0.6251,-0.6415,-0.6911,-0.8289,-1.0273,-1.1028,-1.2964,-1.5558,-1.6744,-1.7373,-1.7615,-1.7909,-1.7982,-1.8015,-1.8015,-1.825,-1.849,-1.849,-1.849,-1.8444,-1.8102,-1.8015,-1.7955,-1.7695,-1.7602,-1.7542,-1.73,-1.7226,-1.7085,-1.6509,-1.6319,-1.6166,-1.5591,-1.5237,-1.4988,-1.4643,-1.4073,0.0,0.0,0.0,0.0,0.0,0.0,0.0,0.0,0.0,0.0,0.0,0.0,0.0,0.0,0.0,0.0,0.0,0.0,0.0,0.0,-1.7575,-1.7881,-1.8515,-1.9083,-1.9673,-2.0279,-2.1184,-2.1656,-2.1735,-2.1969,-2.1913,-2.167,-2.1607,-2.1418,-2.1172,-2.1172,-2.1172,-2.1109,-2.1109,-2.1109,-2.1109,-2.1109,-2.1109,-2.1109,-2.1109,-2.1109,-2.1069,-0.6379,-0.6493,-0.6779,-0.75,-0.7616,-0.8065,-0.9396,-1.0759,-1.2051,-1.3213,-1.4708,-1.5698,-1.5771,-1.6219,-1.6513,-1.6587,-1.6526,-1.648,-1.648,-1.5462,-1.5082,-1.5471,-1.3377,-1.229,-1.2369,-1.0236,-0.885,-0.8261,-0.7005,-0.6317,-0.6139,-0.6177,-0.6185,-0.626,-0.8219,-0.959,-1.063,-1.2764,-1.4683,-1.6413,-1.6991,-1.7373,-1.7615,-1.7923,-1.8129,-1.8377,-1.8377,-1.8424,-1.849,-1.849,-1.849,-1.8477,-1.8404,-1.8377,-1.8317,-1.8016,-1.7876,-1.7862,-1.7555,-1.7521,-1.7434,-1.7072,-1.6971,-1.6878,-1.6453,-1.6146,-1.5852,-1.5551,-1.503,-1.4469,-1.3955,-1.3554,0.0,0.0,0.0,0.0,0.0,0.0,0.0,0.0,0.0,0.0,0.0,0.0,0.0,0.0,0.0,0.0,0.0,0.0,-1.7981,-1.8777,-1.8974,-1.9507,-2.0616,-2.0666,-2.1138,-2.2057,-2.164,-2.177,-2.2362,-2.2111,-2.1922,-2.1859,-2.1859,-2.167,-2.1481,-2.1481,-2.1299,-2.1109,-2.1109,-2.1109,-2.1109,-2.1109,-2.1109,-2.1069,-0.6652,-0.6798,-0.7045,-0.7415,-0.7944,-0.8731,-0.9973,-1.115,-1.246,-1.4068,-1.5408,-1.6259,-1.6393,-1.67,-1.6954,-1.7081,-1.7088,-1.7088,-1.7088,-1.6458,-1.6085,-1.6184,-1.4787,-1.3955,-1.3809,-1.1892,-1.0556,-0.9888,-0.8189,-0.7197,-0.6863,-0.6559,-0.6429,-0.6577,-0.8116,-0.9543,-1.0971,-1.4014,-1.5912,-1.6978,-1.7273,-1.7515,0.0,-1.8123,-1.8424,-1.8698,-1.8824,-1.8871,-1.8871,-1.8871,-1.8871,-1.8851,-1.8724,-1.8677,-1.8624,-1.833,-1.8237,-1.8203,-1.8029,-1.7889,-1.7749,-1.7582,-1.7442,-1.7313,-1.6967,-1.6824,-1.6623,-1.6273,-1.5852,-1.5444,-1.493,-1.4502,0.0,0.0,0.0,0.0,0.0,0.0,0.0,0.0,0.0,0.0,0.0,0.0,0.0,0.0,0.0,0.0,0.0,0.0,0.0,-1.8674,-1.8959,-1.9499,-2.0294,-2.0395,-2.0806,-2.1541,-2.1431,-2.1683,-2.2157,-2.2291,-2.223,-2.2111,-2.2111,-2.1985,-2.1796,-2.1796,-2.1607,-2.1299,-2.1172,-2.1109,-2.1109,-2.1109,-2.1109,-2.1089,-0.709,-0.7204,-0.7391,-0.759,-0.8909,-1.0348,-1.15,-1.2254,-1.3391,-1.5425,-1.6301,-1.686,-1.7172,-1.7233,-1.736,-1.7562,-1.7582,-1.7582,-1.7582,-1.74,-1.7125,-1.6774,-1.6273,-1.5832,-1.5464,-1.3894,-1.2741,-1.1999,-0.9912,-0.8613,-0.8153,-0.7461,-0.7214,-0.7396,-0.7918,-0.9448,0.0,-1.5012,-1.6697,-1.7226,-1.7468,-1.7769,-1.8029,-1.8377,-1.8671,-1.8965,-1.9259,-1.9424,-1.9424,-1.9424,-1.9424,-1.9325,-1.9065,-1.8985,-1.8925,-1.8631,-1.8551,-1.8537,-1.8504,-1.8303,-1.8049,-1.8049,-1.7876,-1.7575,-1.738,-1.7286,-1.7172,-1.682,-1.656,-1.6286,-1.5945,-1.5319,0.0,0.0,0.0,0.0,0.0,0.0,0.0,0.0,0.0,0.0,0.0,0.0,0.0,0.0,0.0,0.0,0.0,0.0,0.0,-1.8356,-1.9031,-1.9525,-1.9862,-2.0359,-2.0707,-2.085,-2.1398,-2.1712,-2.1779,-2.24,-2.2487,-2.2237,-2.2237,-2.2237,-2.2174,-2.2174,-2.1922,-2.1607,-2.1362,-2.1172,-2.1109,-2.1172,-2.1172,-2.1109,-0.7629,-0.7756,-0.7979,-0.8359,-0.962,-1.1074,-1.2456,-1.3507,-1.4351,-1.496,-1.6242,-1.7139,-1.7192,-1.7414,-1.7528,-1.7582,-1.7582,-1.7582,-1.7582,-1.7535,-1.7427,-1.7132,-1.7025,-1.6553,-1.5772,-1.456,-1.3481,-1.2469,-1.105,-1.0066,-0.9553,-0.9454,-0.9427,-0.9463,-1.1009,0.0,-1.5047,-1.6168,-1.6834,-1.7226,-1.7468,-1.7769,-1.8029,-1.8377,-1.8671,-1.8965,-1.9259,-1.9424,-1.9424,-1.9424,-1.9424,-1.9417,-1.9305,-1.9292,-1.9232,-1.8938,-1.8844,-1.8791,-1.8557,-1.8457,-1.841,-1.841,-1.819,-1.7902,-1.7849,-1.7695,-1.7474,-1.7186,-1.7085,-1.6884,-1.6293,-1.5091,-1.4245,0.0,0.0,0.0,0.0,0.0,0.0,0.0,0.0,0.0,0.0,0.0,0.0,0.0,0.0,0.0,0.0,0.0,0.0,0.0,-1.8761,-1.936,-2.0128,-2.0302,-2.0779,-2.1518,-2.1644,-2.1953,-2.2454,-2.2835,-2.2988,-2.2918,-2.2918,-2.2793,-2.2487,-2.2487,-2.2174,-2.1607,-2.1859,-2.1614,-2.1109,-2.1425,-2.1362,-2.1109,-0.8204,-0.8316,-0.869,-0.9593,-1.0927,-1.24,-1.3906,-1.5153,-1.5956,-1.6092,-1.6838,-1.7427,-1.7427,-1.7502,-1.7582,-1.7582,-1.7582,-1.7582,-1.7582,-1.7582,-1.7522,-1.7434,-1.728,-1.7005,-1.652,-1.5728,-1.4873,-1.4034,-1.2829,-1.1958,-1.1449,-1.1057,-1.0865,-1.0909,-1.2647,-1.4137,-1.5409,-1.648,-1.7108,-1.7454,-1.7702,-1.8009,-1.831,-1.8604,-1.8898,-1.9172,-1.9319,-1.9466,-1.9573,-1.9477,-1.9424,-1.9424,-1.9424,-1.9424,-1.9397,-1.9199,-1.9152,-1.9125,-1.8985,-1.8831,-1.8718,-1.8718,-1.8497,-1.8277,-1.8277,-1.8043,-1.7782,-1.7642,-1.7488,-1.7293,-1.6857,-1.5898,-1.5127,-1.4993,0.0,0.0,0.0,0.0,0.0,0.0,0.0,0.0,0.0,0.0,0.0,0.0,0.0,0.0,0.0,0.0,0.0,0.0,0.0,0.0,-1.9792,-2.0139,-2.0578,-2.1198,-2.1498,-2.1934,-2.241,-2.2893,-2.3106,-2.3106,-2.3106,-2.2988,-2.2856,-2.2668,-2.2425,-2.2111,-2.2111,-2.1922,-2.167,-2.1796,-2.1734,-2.1544,-0.9089,-0.9266,-0.9786,-1.1106,-1.2544,-1.392,-1.519,-1.6478,-1.7293,-1.7293,-1.7494,-1.7609,-1.7675,-1.7682,-1.7709,-1.7769,-1.7776,-1.7776,-1.7776,-1.7716,-1.7682,-1.7682,-1.7454,-1.7266,-1.7199,-1.6744,-1.6221,-1.5585,-1.4622,-1.3755,-1.2956,-1.2593,-1.245,-1.2627,-1.3964,-1.4873,-1.5476,-1.6693,-1.7407,-1.7702,-1.7896,-1.8209,-1.8604,-1.8838,-1.9112,-1.943,-1.9432,-1.9606,-1.9773,-1.9606,-1.9553,-1.9553,-1.9553,-1.9553,-1.9553,-1.9553,-1.9553,-1.9553,-1.9553,-1.9332,-1.9112,-1.9112,-1.8844,-1.8584,-1.8584,-1.835,-1.8089,-1.8089,-1.7896,-1.7589,-1.7347,-1.6864,-1.6256,-1.55,-1.5473,0.0,0.0,0.0,0.0,0.0,0.0,0.0,0.0,0.0,0.0,0.0,0.0,0.0,0.0,0.0,0.0,0.0,0.0,-1.9305,-1.9573,-2.0076,-2.0443,-2.0788,-2.1493,-2.1922,-2.2206,-2.2828,-2.3106,-2.3106,-2.3106,-2.3106,-2.3113,-2.2793,-2.2668,-2.2613,-2.2418,-2.2237,-2.2111,-2.2174,-2.2174,-2.2048,-1.0636,-1.1104,-1.1686,-1.2842,-1.4348,-1.5378,-1.5536,-1.6716,-1.7542,-1.7542,-1.7562,-1.7689,-1.7916,-1.7949,-1.8055,-1.8384,-1.841,-1.841,-1.841,-1.815,-1.7949,-1.7949,-1.7709,-1.7474,-1.7206,-1.7146,-1.6831,-1.6241,-1.5797,-1.4769,-1.3194,-1.4203,-1.493,-1.543,-1.5563,-1.6162,-1.6965,-1.7128,-1.7482,-1.7955,-1.7982,-1.8328,-1.8885,-1.8911,-1.9112,-1.9406,-1.9666,-1.978,-1.9833,-2.0067,-2.0154,-2.0154,-2.0154,-2.0154,-2.0154,-2.0154,-2.0154,-2.0154,-2.0154,-1.994,-1.972,-1.972,-1.9299,-1.8885,-1.8885,-1.8657,-1.845,-1.845,-1.821,-1.7856,-1.7602,-1.7333,-1.7068,-1.7016,-1.6573,0.0,0.0,0.0,0.0,0.0,0.0,0.0,0.0,0.0,0.0,0.0,0.0,0.0,0.0,0.0,0.0,-1.8363,0.0,-1.9092,-2.0128,-2.0246,-2.0565,-2.1161,-2.181,-2.2184,-2.2206,-2.2828,-2.3106,-2.3106,-2.3106,-2.3106,-2.3106,-2.3043,-2.2856,-2.2613,-2.2918,-2.2613,-2.2111,-2.2418,-2.2362,-2.2111,-1.2516,-1.2711,-1.3193,-1.4463,-1.5182,-1.5842,-1.6696,-1.7397,-1.7862,-1.7862,-1.7849,-1.7896,-1.7975,-1.8203,-1.8364,-1.8477,-1.849,-1.849,-1.849,-1.8377,-1.831,-1.831,-1.8023,-1.7809,-1.7689,-1.7508,-1.7259,-1.6851,-1.673,-1.6086,-1.5064,-1.5705,-1.6132,-1.6359,-1.6547,-1.6871,-1.7213,-1.7387,-1.7655,-1.8009,-1.8243,-1.8557,-1.8945,-1.9125,-1.9372,-1.9639,-1.976,-2.0027,-2.0347,-2.0461,-2.0381,-2.0173,-2.0173,-2.0173,-2.0173,-2.0173,-2.0173,-2.0173,-2.0173,-2.0147,-2.006,-2.006,-1.9753,-1.9452,-1.9452,-1.9085,-1.8751,-1.8751,-1.8517,-1.8223,-1.7916,-1.7769,-1.7629,-1.7494,-1.7119,-1.6891,0.0,0.0,0.0,0.0,0.0,0.0,0.0,0.0,0.0,0.0,0.0,0.0,0.0,0.0,0.0,-1.816,0.0,-1.9353,-1.995,-2.0352,-2.0888,-2.1503,-2.1964,-2.2271,-2.2462,-2.2908,-2.3106,-2.3106,-2.3106,-2.3106,-2.3106,-2.3106,-2.3043,-2.2918,-2.3043,-2.2926,-2.2731,-2.2856,-2.2793,-2.2668,-1.4105,-1.4218,-1.4688,-1.5977,-1.617,-1.6526,-1.7563,-1.7903,-1.8022,-1.8109,-1.8237,-1.8283,-1.8249,-1.849,-1.8657,-1.8744,-1.8751,-1.8751,-1.8751,-1.8664,-1.8617,-1.8617,-1.8337,-1.8082,-1.7995,-1.7829,-1.7575,-1.7326,-1.7246,-1.6764,-1.5939,-1.6005,-1.6339,-1.6847,-1.7105,-1.73,-1.7428,-1.7629,-1.7943,-1.8268,-1.8531,-1.8791,-1.9078,-1.9285,-1.9546,-1.9813,-1.99,-2.0308,-2.0874,-2.0962,-2.0847,-2.0733,-2.0672,-2.0672,-2.0733,-2.0733,-2.0733,-2.0733,-2.0733,-2.0672,-2.0605,-2.0544,-2.0261,-2.0046,-1.9927,-1.9539,-1.9132,-1.8958,-1.8764,-1.8531,-1.823,-1.8176,-1.8076,-1.7769,-1.7549,-1.7434,0.0,-1.7072,0.0,0.0,-1.676,-1.6627,-1.642,0.0,0.0,0.0,0.0,0.0,0.0,0.0,0.0,0.0,0.0,0.0,-1.9895,-2.0465,-2.1061,-2.1701,-2.203,-2.2571,-2.3171,-2.3509,-2.3666,-2.3666,-2.3293,-2.3106,-2.3106,-2.3106,-2.3106,-2.3106,-2.3106,-2.3106,-2.3106,-2.3106,-2.3355,-2.3596,-1.5371,-1.5733,-1.6227,-1.7364,-1.7575,-1.7682,-1.7935,-1.7989,-1.8102,-1.8444,-1.8738,-1.8911,-1.8911,-1.8918,-1.9038,-1.939,-1.9417,-1.9417,-1.9417,-1.9085,-1.8918,-1.8918,-1.8637,-1.8343,-1.8002,-1.7989,-1.7836,-1.7582,-1.734,-1.6455,-1.5022,-1.4683,-1.5478,-1.7199,-1.7199,-1.7482,-1.7982,-1.7982,-1.8322,-1.8911,-1.8918,-1.9098,-1.9366,-1.9424,-1.9546,-1.9833,-2.0127,-2.0604,-2.1211,-2.1505,-2.179,-2.2034,-2.1664,-2.1783,-2.2097,-2.2097,-2.2097,-2.2097,-2.2097,-2.188,-2.1587,-2.1279,-2.093,-2.0584,-2.0288,-2.0,-1.9626,-1.9045,-1.8918,-1.8831,-1.8537,-1.8484,-1.8384,-1.8035,-1.7982,-1.7876,-1.7622,-1.738,0.0,-1.7199,-1.6881,-1.6707,-1.67,-1.67,0.0,0.0,0.0,0.0,0.0,0.0,0.0,-1.8869,-1.92,-1.9683,-2.0183,-2.0521,-2.1061,-2.1701,-2.203,-2.3044,-2.4615,-2.4905,-2.5071,-2.501,-2.3658,-2.3106,-2.3106,-2.3106,-2.3106,-2.3106,-2.3106,-2.3106,-2.3106,-2.3106,-2.3969,-2.4887,-1.6911,-1.7035,-1.7218,-1.7755,-1.7849,-1.805,-1.8564,-1.8621,-1.8733,-1.9052,-1.9209,-1.9225,-1.9225,-1.9225,-1.9265,-1.9417,-1.9424,-1.9424,-1.9424,-1.9279,-1.9225,-1.9225,-1.8945,-1.8744,-1.8644,-1.845,-1.8303,-1.8196,-1.7909,-1.7415,-1.679,-1.6502,-1.6834,-1.7762,-1.7762,-1.7983,-1.835,-1.835,-1.8571,-1.8925,-1.8925,-1.9213,-1.9727,-1.9931,-2.0308,-2.0789,-2.1093,-2.1465,-2.1853,-2.1888,-2.2167,-2.2418,-2.2292,-2.2174,-2.2111,-2.2111,-2.2111,-2.2111,-2.2111,-2.2041,-2.1964,-2.1839,-2.1616,-2.1326,-2.1264,-2.0969,-2.0637,-2.0296,-2.0213,-1.9945,-1.9267,-1.9122,-1.8964,-1.8452,-1.835,-1.8243,-1.7943,-1.7822,-1.7682,-1.7468,-1.7361,-1.7301,-1.7301,-1.7301,0.0,0.0,0.0,0.0,0.0,0.0,0.0,0.0,-1.9516,-1.9948,-2.0567,-2.087,-2.1365,-2.203,-2.2132,-2.2689,-2.3632,-2.4655,-2.4579,-2.372,-2.3293,-2.3106,-2.3106,-2.3106,-2.3106,-2.3106,-2.3106,-2.3106,-2.323,-2.4154,-2.4702,-2.5133,-1.7903,-1.7923,-1.7983,-1.8183,-1.8217,-1.8365,-1.882,-1.8917,-1.9022,-1.9357,-1.9425,-1.947,-1.9519,-1.965,-1.9708,-1.9533,-1.9533,-1.9533,-1.9533,-1.9533,-1.9486,-1.943,-1.9192,-1.9038,-1.8925,-1.8744,-1.8597,-1.849,-1.8303,-1.8116,-1.7923,-1.7789,-1.7856,-1.8217,-1.8217,-1.8377,-1.8651,-1.8651,-1.8824,-1.9092,-1.9199,-1.9547,-2.0007,-2.0368,-2.0879,-2.139,-2.1647,-2.1976,-2.2292,-2.2292,-2.2487,-2.2793,-2.2793,-2.2668,-2.2487,-2.2487,-2.2487,-2.2487,-2.2487,-2.2487,-2.2425,-2.2292,-2.2151,-2.1982,-2.1746,-2.1563,-2.1278,-2.103,-2.0875,-2.062,-2.0005,-1.9731,-1.9382,-1.8921,-1.8818,-1.8717,-1.8257,-1.8264,-1.8245,-1.7949,-1.7929,-1.7968,-1.7968,-1.7913,-1.795,0.0,0.0,0.0,0.0,0.0,-1.9187,-1.9488,-1.9906,-2.0342,-2.072,-2.1167,-2.1657,-2.2184,-2.2954,-2.352,-2.3907,-2.4702,-2.4641,-2.3845,-2.3293,-2.3106,-2.3106,-2.3106,-2.3106,-2.3106,-2.3106,-2.3106,-2.323,-2.4579,-2.5378,-2.592,-1.8437,-1.849,-1.8497,-1.8517,-1.8517,-1.8617,-1.8911,-1.8958,-1.9058,-1.9417,-1.9457,-1.9506,-1.98,-2.0123,-2.0189,-1.9919,-1.9899,-1.9886,-1.9886,-1.9886,-1.9765,-1.9497,-1.9464,-1.9323,-1.8991,-1.8965,-1.8867,-1.8579,-1.8579,-1.8566,-1.8546,-1.8546,-1.8559,-1.8517,-1.8573,-1.8684,-1.8951,-1.9008,-1.9182,-1.9508,-1.9792,-2.0086,-2.0419,-2.0795,-2.1279,-2.1779,-2.1807,-2.2183,-2.2613,-2.2613,-2.2856,-2.3106,-2.3106,-2.3106,-2.3106,-2.323,-2.3168,-2.3106,-2.323,-2.3168,-2.305,-2.2731,-2.2613,-2.2472,-2.1939,-2.1807,-2.1661,-2.1346,-2.1058,-2.0854,-2.0833,-2.0282,-1.9754,-1.948,-1.9419,-1.919,-1.862,-1.8732,-1.8781,-1.8546,-1.8516,-1.8502,-1.8502,-1.8448,-1.8433,-1.8485,0.0,0.0,0.0,0.0,-1.956,-1.9828,-2.0413,-2.0735,-2.0757,-2.1379,-2.1869,-2.222,-2.4153,-2.5071,-2.4949,-2.5071,-2.5071,-2.4887,-2.3666,-2.3106,-2.3106,-2.3106,-2.3106,-2.3106,-2.3106,-2.3106,-2.3293,-2.4702,-2.5981,-2.7021,-1.8532,-1.849,-1.8557,-1.8784,-1.8824,-1.8975,-1.9493,-1.9432,-1.9482,-2.0006,-1.987,-1.9806,-2.01,-2.0194,-2.0281,-2.0448,-2.0739,-2.0782,-2.0489,-2.0489,-2.0334,-2.0034,-2.005,-1.9954,-1.9593,-1.9829,-1.979,-1.9479,-1.9479,-1.925,-1.8809,-1.8809,-1.8827,-1.8818,-1.9043,-1.9319,-1.9598,-1.9878,-2.0174,-2.0458,-2.0517,-2.0868,-2.141,-2.1712,-2.2072,-2.2414,-2.266,-2.286,-2.2988,-2.2988,-2.305,-2.3106,-2.3106,-2.3106,-2.3293,-2.434,-2.3907,-2.3293,-2.434,-2.3907,-2.3113,-2.2981,-2.2988,-2.2966,-2.2831,-2.2561,-2.2288,-2.1968,-2.1657,-2.1355,-2.1124,-2.06,-2.0137,-2.0127,-1.9696,-1.9273,-1.8858,-1.8874,-1.8794,-1.8517,-1.8479,-1.8604,-1.8817,-1.8796,-1.8966,-1.9448,-1.9573,-1.9787,-1.9965,-2.0252,-2.0383,-2.0494,-2.064,-2.0837,-2.1094,-2.1496,-2.1972,-2.252,-2.4262,-2.4579,-2.3596,-2.4641,-2.4517,-2.3534,-2.323,-2.3106,-2.3106,-2.3106,-2.3106,-2.3106,-2.3106,-2.3106,-2.3355,-2.5676,-2.671,-2.7323,-1.9302,-1.9224,-1.9158,-1.9263,-1.924,-1.9283,-1.9746,-1.9676,-1.9725,-2.0192,-2.0113,-2.0107,-2.0401,-2.0557,-2.0794,-2.1098,-2.1033,-2.0985,-2.0923,-2.0923,-2.0801,-2.0416,-2.0434,-2.0353,-2.0,-2.013,-2.0134,-1.9774,-1.9774,-1.9567,-1.9111,-1.9273,-1.9305,-1.9354,-1.9835,-2.0102,-2.0261,-2.0575,-2.0788,-2.1002,-2.1121,-2.1491,-2.1965,-2.2259,-2.2595,-2.2871,-2.3047,-2.3106,-2.3106,-2.3106,-2.3106,-2.3106,-2.3106,-2.3106,-2.3355,-2.4702,-2.4154,-2.323,-2.3969,-2.3658,-2.3106,-2.3106,-2.3106,-2.3106,-2.3106,-2.2856,-2.2563,-2.257,-2.2172,-2.1838,-2.1851,-2.1332,-2.0949,-2.0949,-2.0514,-2.0082,-1.9577,-1.955,-1.9401,-1.9131,-1.9101,-1.9187,-1.9522,-1.9499,-1.9628,-1.9957,-2.0142,-2.0284,-2.0402,-2.0772,-2.0874,-2.0728,-2.0867,-2.1101,-2.143,-2.1891,-2.2367,-2.2849,-2.3762,-2.4154,-2.4031,-2.4154,-2.4092,-2.3969,-2.3355,-2.3106,-2.3106,-2.3106,-2.3479,-2.3969,-2.3355,-2.3479,-2.4216,-2.5615,-2.6103,-2.6529,-2.0279,-2.004,-1.9887,-1.9935,-1.9775,-1.9701,-1.9879,-1.9926,-2.0033,-2.0261,-2.0301,-2.0414,-2.0708,-2.099,-2.1272,-2.1524,-2.107,-2.0928,-2.1231,-2.1231,-2.1122,-2.0801,-2.0746,-2.0598,-2.0301,-2.0315,-2.0234,-2.0098,-2.0098,-1.9976,-1.9726,-1.9952,-2.0004,-2.0017,-2.0631,-2.0927,-2.0941,-2.1202,-2.1403,-2.1438,-2.1739,-2.2054,-2.2335,-2.2573,-2.2871,-2.3106,-2.3106,-2.3106,-2.3106,-2.3106,-2.3106,-2.3106,-2.3106,-2.3106,-2.3293,-2.4456,-2.3969,-2.3168,-2.3355,-2.323,-2.3106,-2.3106,-2.3106,-2.3106,-2.3106,-2.2856,-2.2675,-2.2981,-2.2515,-2.2205,-2.2512,-2.2129,-2.1739,-2.1739,-2.1475,-2.1031,-2.0513,-2.0461,-2.0338,-2.0,-1.9938,-2.0047,-2.0358,-2.0323,-2.0321,-2.0329,-2.0584,-2.0815,-2.0867,-2.113,-2.1181,-2.0947,-2.1167,-2.1459,-2.1832,-2.2359,-2.2845,-2.3417,-2.3417,-2.4092,-2.5309,-2.4031,-2.4031,-2.501,-2.3907,-2.3417,-2.3417,-2.3596,-2.4332,-2.5256,-2.4147,-2.4394,-2.5439,-2.5615,-2.5676,-2.6034,-2.0314,-2.027,-2.0296,-2.062,-2.061,-2.0597,-2.0535,-2.0583,-2.0571,-2.063,-2.0608,-2.0722,-2.1009,-2.1105,-2.1119,-2.1166,-2.1069,-2.1168,-2.1539,-2.1539,-2.1393,-2.1038,-2.1039,-2.091,-2.0608,-2.0902,-2.1166,-2.1424,-2.1424,-2.1395,-2.1346,-2.1114,-2.0987,-2.0994,-2.1395,-2.1537,-2.1603,-2.1908,-2.2202,-2.2367,-2.2428,-2.2686,-2.297,-2.3032,-2.3062,-2.3106,-2.3106,-2.3106,-2.3106,-2.3106,-2.3106,-2.3106,-2.3106,-2.3106,-2.3168,-2.3355,-2.323,-2.3355,-2.4456,-2.3969,-2.3106,-2.3106,-2.3106,-2.3106,-2.3106,-2.2856,-2.2606,-2.2668,-2.2382,-2.2222,-2.2534,-2.2098,-2.177,-2.2069,-2.1623,-2.1177,-2.1057,-2.1082,-2.0949,-2.0697,-2.062,-2.0662,-2.0623,-2.0608,-2.0751,-2.1,-2.1101,-2.1254,-2.1533,-2.1591,-2.1723,-2.195,-2.1737,-2.1898,-2.2469,-2.2571,-2.3329,-2.4764,-2.4764,-2.5431,-2.665,-2.537,-2.4887,-2.5071,-2.4887,-2.4764,-2.4887,-2.592,-2.6529,-2.665,-2.6468,-2.6529,-2.6831,-2.7898,-2.8316,-2.8504,-2.1024,-2.093,-2.0906,-2.1225,-2.1163,-2.1089,-2.1215,-2.1263,-2.1306,-2.143,-2.1465,-2.152,-2.1657,-2.1488,-2.1418,-2.1607,-2.1481,-2.1488,-2.1859,-2.167,-2.1544,-2.1362,-2.1533,-2.1589,-2.1465,-2.1637,-2.1668,-2.1683,-2.1683,-2.1598,-2.1428,-2.1435,-2.1488,-2.1502,-2.1968,-2.2161,-2.2236,-2.254,-2.2762,-2.2886,-2.2886,-2.2974,-2.3106,-2.3106,-2.3106,-2.3106,-2.3106,-2.3106,-2.3106,-2.3106,-2.3106,-2.3106,-2.3106,-2.3106,-2.3106,-2.3106,-2.3106,-2.323,-2.3845,-2.3604,-2.3106,-2.3106,-2.3106,-2.3106,-2.3106,-2.2856,-2.2668,-2.2863,-2.2606,-2.248,-2.2801,-2.2616,-2.2515,-2.2646,-2.2249,-2.1918,-2.1743,-2.1601,-2.1438,-2.1296,-2.1913,-2.209,-2.1554,-2.2103,-2.262,-2.2743,-2.2743,-2.3154,-2.3951,-2.4017,-2.4098,-2.4258,-2.359,-2.3403,-2.3702,-2.4548,-2.5384,-2.6103,-2.6103,-2.6762,-2.7966,-2.6702,-2.652,-2.7116,-2.6407,-2.6103,-2.6164,-2.6771,-2.7375,-2.7966,-2.7254,-2.7435,-2.8026,-2.7907,-2.7847,-2.8026,-2.165,-2.1568,-2.1529,-2.1838,-2.1722,-2.1586,-2.1897,-2.1885,-2.1969,-2.2083,-2.2111,-2.2111,-2.2111,-2.1859,-2.1796,-2.2111,-2.1859,-2.1859,-2.2111,-2.1859,-2.1734,-2.1734,-2.1985,-2.2111,-2.2111,-2.2174,-2.2117,-2.1885,-2.1885,-2.1819,-2.1647,-2.1829,-2.195,-2.2079,-2.2508,-2.2732,-2.2754,-2.3003,-2.3106,-2.3106,-2.3106,-2.3106,-2.3106,-2.3106,-2.3106,-2.3106,-2.3106,-2.3106,-2.3106,-2.3106,-2.3106,-2.3168,-2.3479,-2.3355,-2.3168,-2.3479,-2.3355,-2.3106,-2.3106,-2.3106,-2.3106,-2.3106,-2.3106,-2.3106,-2.3106,-2.2918,-2.2856,-2.3479,-2.3106,-2.2918,-2.3479,-2.3293,-2.3106,-2.3106,-2.2901,-2.261,-2.244,-2.2162,-2.1982,-2.1903,-2.2774,-2.3169,-2.2707,-2.35,-2.425,-2.4543,-2.4535,-2.4986,-2.6061,-2.6127,-2.6162,-2.6256,-2.5449,-2.506,-2.5149,-2.6386,-2.7134,-2.7435,-2.7435,-2.8095,-2.9353,-2.8035,-2.7966,-2.8861,-2.7847,-2.7435,-2.7495,-2.7804,-2.8462,-2.9294,-2.8283,-2.8513,-2.9235,-2.8283,-2.7924,-2.8044,-2.1693,-2.1935,-2.2235,-2.2474,-2.2525,-2.2512,-2.2527,-2.2514,-2.2459,-2.2174,-2.2111,-2.2111,-2.2111,-2.2111,-2.2048,-2.2111,-2.2111,-2.2048,-2.2111,-2.2111,-2.2041,-2.2041,-2.2111,-2.2111,-2.2111,-2.2425,-2.2536,-2.2514,-2.2514,-2.2688,-2.2977,-2.2666,-2.2728,-2.2977,-2.3062,-2.3069,-2.3076,-2.3098,-2.3106,-2.3106,-2.3106,-2.3106,-2.3106,-2.3106,-2.3106,-2.3106,-2.3106,-2.3106,-2.3106,-2.3106,-2.3106,-2.3293,-2.4579,-2.4092,-2.3355,-2.4579,-2.4092,-2.3106,-2.3106,-2.3106,-2.3106,-2.3106,-2.3106,-2.3106,-2.3106,-2.3113,-2.3417,-2.4702,-2.3969,-2.3479,-2.4702,-2.3969,-2.3106,-2.3106,-2.3091,-2.3076,-2.3007,-2.2992,-2.2861,-2.2562,-2.2647,-2.3006,-2.3878,-2.4015,-2.4602,-2.5758,-2.5883,-2.6028,-2.6447,-2.6464,-2.6627,-2.6919,-2.6559,-2.65,-2.6849,-2.6944,-2.7615,-2.8742,-2.8742,-2.9481,-3.0704,-2.9353,-2.8801,-2.892,-2.8801,-2.8742,-2.8861,-3.0089,-3.0645,-3.0762,-3.0645,-3.0645,-3.0762,-3.0645,-3.0587,-3.0645,-2.2235,-2.2367,-2.2557,-2.2871,-2.2923,-2.2905,-2.2904,-2.2926,-2.2856,-2.2738,-2.2731,-2.2731,-2.2731,-2.255,-2.248,-2.2668,-2.255,-2.2487,-2.2738,-2.2731,-2.2613,-2.2418,-2.2425,-2.2487,-2.2731,-2.2856,-2.2926,-2.2926,-2.2926,-2.2988,-2.3106,-2.2981,-2.2988,-2.3106,-2.3106,-2.3106,-2.3106,-2.3106,-2.3106,-2.3106,-2.3106,-2.3106,-2.3106,-2.3106,-2.3106,-2.3106,-2.3106,-2.3596,-2.4332,-2.4332,-2.4879,-2.5615,-2.6103,-2.5378,-2.4463,-2.4949,-2.4764,-2.4332,-2.4332,-2.372,-2.3106,-2.3106,-2.3106,-2.3106,-2.3106,-2.372,-2.4456,-2.501,-2.5309,-2.5676,-2.6164,-2.5859,-2.5248,-2.4456,-2.5002,-2.5248,-2.4456,-2.5002,-2.52,-2.4277,-2.5577,-2.6062,-2.4863,-2.6151,-2.7278,-2.7759,-2.7817,-2.8242,-2.9189,-2.9207,-2.9273,-2.9431,-2.9282,-2.891,-2.8206,-2.9007,-2.9667,-3.0147,-3.0147,-3.0401,-3.0889,-3.0392,-3.0147,-3.0147,-3.0147,-3.0147,-3.0206,-3.0704,-3.0889,-3.0889,-3.0889,-3.0889,-3.0889,-3.0889,-3.0889,-3.0889,-2.2579,-2.2703,-2.2842,-2.3069,-2.3106,-2.3106,-2.3106,-2.3106,-2.3106,-2.3106,-2.3106,-2.3106,-2.3106,-2.2918,-2.2856,-2.3113,-2.2918,-2.2856,-2.3113,-2.3106,-2.2981,-2.2793,-2.2738,-2.2856,-2.3106,-2.3106,-2.3106,-2.3106,-2.3106,-2.3106,-2.3106,-2.3106,-2.3106,-2.3106,-2.3106,-2.3106,-2.3106,-2.3106,-2.3106,-2.3106,-2.3106,-2.3106,-2.3106,-2.3106,-2.3355,-2.372,-2.372,-2.4579,-2.5684,-2.5684,-2.6286,-2.7073,-2.7495,-2.7004,-2.6216,-2.5798,-2.5684,-2.5684,-2.5684,-2.501,-2.4147,-2.3293,-2.3106,-2.3106,-2.3106,-2.4154,-2.5194,-2.5623,-2.6407,-2.7134,-2.7547,-2.7254,-2.671,-2.5851,-2.6407,-2.671,-2.5798,-2.6468,-2.665,-2.5798,-2.7246,-2.7778,-2.6399,-2.7898,-2.9039,-2.9471,-2.954,-2.9903,-3.083,-3.0889,-3.0889,-3.0889,-3.0889,-3.046,-2.953,-3.046,-3.0889,-3.0889,-3.0889,-3.0889,-3.0889,-3.0889,-3.0889,-3.0889,-3.0889,-3.0889,-3.0889,-3.0889,-3.0889,-3.0889,-3.0889,-3.0889,-3.0889,-3.0889,-3.0889,-3.0889,-2.2623,-2.2886,-2.3106,-2.3106,-2.3106,-2.3106,-2.3106,-2.3106,-2.3106,-2.3106,-2.3106,-2.3106,-2.3106,-2.3106,-2.3106,-2.3106,-2.3106,-2.3106,-2.3106,-2.3106,-2.3106,-2.3106,-2.3106,-2.3106,-2.3106,-2.3106,-2.3106,-2.3106,-2.3106,-2.3106,-2.3106,-2.3106,-2.3106,-2.3106,-2.3106,-2.3106,-2.3106,-2.3106,-2.3106,-2.3106,-2.3106,-2.3113,-2.3106,-2.3106,-2.3969,-2.5133,-2.5133,-2.592,-2.7013,-2.7013,-2.7013,-2.7254,-2.8504,-2.892,-2.8683,-2.7375,-2.7013,-2.7013,-2.7013,-2.7021,-2.6407,-2.3783,-2.3113,-2.3113,-2.3113,-2.4154,-2.5501,-2.6771,-2.7013,-2.7435,-2.8683,-2.7847,-2.7004,-2.7039,-2.6996,-2.7021,-2.7013,-2.7013,-2.7021,-2.7013,-2.7013,-2.7495,-2.8801,-2.892,-2.9471,-3.0772,-3.0889,-3.0889,-3.0889,-3.0889,-3.0889,-3.0889,-3.0889,-3.0889,-3.0889,-3.0889,-3.0889,-3.0889,-3.0889,-3.0889,-3.0889,-3.0889,-3.0889,-3.0889,-3.0889,-3.0889,-3.0889,-3.0889,-3.0889,-3.0889,-3.0889,-3.0889,-3.0889,-3.0889,-3.0889,-3.0889,-2.2959,-2.3047,-2.3106,-2.3106,-2.3106,-2.3106,-2.3106,-2.3106,-2.3106,-2.3106,-2.3106,-2.3106,-2.3106,-2.3106,-2.3106,-2.3106,-2.3106,-2.3106,-2.3106,-2.3106,-2.3106,-2.3106,-2.3106,-2.3106,-2.3106,-2.3106,-2.3106,-2.3106,-2.3106,-2.3106,-2.3106,-2.3106,-2.3106,-2.3106,-2.3106,-2.3106,-2.3106,-2.3106,-2.3106,-2.3106,-2.3106,-2.3658,-2.4517,-2.4517,-2.5309,-2.6407,-2.6407,-2.7246,-2.8325,-2.8325,-2.8938,-2.9618,-2.9107,-2.954,-3.003,-2.8692,-2.8325,-2.8325,-2.8325,-2.7667,-2.6831,-2.6042,-2.5859,-2.5859,-2.5859,-2.6814,-2.7838,-2.8265,-2.9057,-2.9863,-3.0216,-2.9971,-2.9431,-2.8495,-2.9116,-2.9431,-2.8453,-2.9126,-2.9372,-2.8453,-2.9185,-2.9549,-2.892,-2.9726,-3.046,-3.0889,-3.0889,-3.0889,-3.0889,-3.0889,-3.0889,-3.0889,-3.0889,-3.0889,-3.0889,-3.0889,-3.0889,-3.0889,-3.0889,-3.0889,-3.0889,-3.0889,-3.0889,-3.0889,-3.0889,-3.0889,-3.0889,-3.0889,-3.0889,-3.0889,-3.0889,-3.0889,-3.0889,-3.0889,-3.0889,-3.0889,-2.3106,-2.3106,-2.3106,-2.3106,-2.3106,-2.3106,-2.3106,-2.3106,-2.3106,-2.3106,-2.3106,-2.3106,-2.3106,-2.3106,-2.3106,-2.3106,-2.3106,-2.3106,-2.3106,-2.3106,-2.3106,-2.3106,-2.3106,-2.3106,-2.3106,-2.3106,-2.3106,-2.3106,-2.3106,-2.3106,-2.3106,-2.3106,-2.3106,-2.3106,-2.3106,-2.3106,-2.3106,-2.3106,-2.3106,-2.3106,-2.3106,-2.3907,-2.5071,-2.5071,-2.6216,-2.7727,-2.7727,-2.8573,-2.9717,-2.9717,-3.0216,-3.0762,-2.9962,-3.0274,-3.0762,-2.9903,-2.9717,-2.9717,-2.9717,-2.9126,-2.8531,-2.8531,-2.7744,-2.7013,-2.7013,-2.7966,-2.892,-2.892,-2.9962,-3.0889,-3.0889,-3.0889,-3.0645,-2.9835,-3.0392,-3.0645,-2.9785,-3.0401,-3.0587,-2.9785,-3.0401,-3.0577,-2.9785,-3.0392,-3.0889,-3.0889,-3.0889,-3.0889,-3.0889,-3.0889,-3.0889,-3.0889,-3.0889,-3.0889,-3.0889,-3.0889,-3.0889,-3.0889,-3.0889,-3.0889,-3.0889,-3.0889,-3.0889,-3.0889,-3.0889,-3.0889,-3.0889,-3.0889,-3.0889,-3.0889,-3.0889,-3.0889,-3.0889,-3.0889,-3.0889,-3.0889,-2.3106,-2.3106,-2.3106,-2.3106,-2.3106,-2.3106,-2.3106,-2.3106,-2.3106,-2.3106,-2.3106,-2.3106,-2.3106,-2.3106,-2.3106,-2.3106,-2.3106,-2.3106,-2.3106,-2.3106,-2.3106,-2.3106,-2.3106,-2.3106,-2.3106,-2.3106,-2.3106,-2.3106,-2.3106,-2.3106,-2.3106,-2.3106,-2.3106,-2.3106,-2.3106,-2.3106,-2.3106,-2.3106,-2.3106,-2.3113,-2.323,-2.4092,-2.5256,-2.537,-2.6935,-2.9107,-2.9107,-2.9844,-3.0889,-3.0889,-3.0889,-3.0889,-3.0889,-3.0889,-3.0889,-3.0889,-3.0889,-3.0889,-3.0889,-3.0889,-3.0889,-3.0889,-2.9135,-2.7383,-2.7383,-2.8274,-2.9107,-2.9107,-3.003,-3.0889,-3.0889,-3.0889,-3.0889,-3.0889,-3.0889,-3.0889,-3.0889,-3.0889,-3.0889,-3.0889,-3.0889,-3.0889,-3.0889,-3.0889,-3.0889,-3.0889,-3.0889,-3.0889,-3.0889,-3.0889,-3.0889,-3.0889,-3.0889,-3.0889,-3.0889,-3.0889,-3.0889,-3.0889,-3.0889,-3.0889,-3.0889,-3.0889,-3.0889,-3.0889,-3.0889,-3.0889,-3.0889,-3.0889,-3.0889,-3.0889,-3.0889,-3.0889,-3.0889,-3.0889,-3.0889,-3.0889,-2.3106,-2.3106,-2.3106,-2.3106,-2.3106,-2.3106,-2.3106,-2.3106,-2.3106,-2.3106,-2.3106,-2.3106,-2.3106,-2.3106,-2.3106,-2.3106,-2.3106,-2.3106,-2.3106,-2.3106,-2.3106,-2.3106,-2.3106,-2.3106,-2.3106,-2.3106,-2.3106,-2.3106,-2.3106,-2.3106,-2.3106,-2.3106,-2.3106,-2.3106,-2.3106,-2.3106,-2.3106,-2.3106,-2.3106,-2.3168,-2.4216,-2.5431,-2.671,-2.7718,-2.9057,-3.046,-3.046,-3.0645,-3.0889,-3.0889,-3.0889,-3.0889,-3.0889,-3.0889,-3.0889,-3.0889,-3.0889,-3.0889,-3.0889,-3.0889,-3.0889,-3.0889,-3.047,-3.0039,-3.0039,-3.0284,-3.046,-3.046,-3.0704,-3.0889,-3.0889,-3.0889,-3.0889,-3.0889,-3.0889,-3.0889,-3.0889,-3.0889,-3.0889,-3.0889,-3.0889,-3.0889,-3.0889,-3.0889,-3.0889,-3.0889,-3.0889,-3.0889,-3.0889,-3.0889,-3.0889,-3.0889,-3.0889,-3.0889,-3.0889,-3.0889,-3.0889,-3.0889,-3.0889,-3.0889,-3.0889,-3.0889,-3.0889,-3.0889,-3.0889,-3.0889,-3.0889,-3.0889,-3.0889,-3.0889,-3.0889,-3.0889,-3.0889,-3.0889,-3.0889,-3.0889,-2.3106,-2.3106,-2.3106,-2.3106,-2.3106,-2.3106,-2.3106,-2.3106,-2.3106,-2.3106,-2.3106,-2.3106,-2.3106,-2.3106,-2.3106,-2.3106,-2.3106,-2.3106,-2.3106,-2.3106,-2.3106,-2.3106,-2.3106,-2.3106,-2.3106,-2.3106,-2.3106,-2.3106,-2.3106,-2.3106,-2.3106,-2.3106,-2.3106,-2.3106,-2.3106,-2.3106,-2.3106,-2.3106,-2.3479,-2.4092,-2.4826,-2.6225,-2.7966,-2.8623,-2.9717,-3.0889,-3.0889,-3.0889,-3.0889,-3.0889,-3.0889,-3.0889,-3.0889,-3.0889,-3.0889,-3.0889,-3.0889,-3.0889,-3.0889,-3.0889,-3.0889,-3.0889,-3.0889,-3.0889,-3.0889,-3.0889,-3.0889,-3.0889,-3.0889,-3.0889,-3.0889,-3.0889,-3.0889,-3.0889,-3.0889,-3.0889,-3.0889,-3.0889,-3.0889,-3.0889,-3.0889,-3.0889,-3.0889,-3.0889,-3.0889,-3.0889,-3.0889,-3.0889,-3.0889,-3.0889,-3.0889,-3.0889,-3.0889,-3.0889,-3.0889,-3.0889,-3.0889,-3.0889,-3.0889,-3.0889,-3.0889,-3.0889,-3.0889,-3.0889,-3.0889,-3.0889,-3.0889,-3.0889,-3.0889,-3.0889,-3.0889,-3.0889,-3.0889,-3.0889,-3.0889,-3.0889,-2.3106,-2.3106,-2.3106,-2.3106,-2.3106,-2.3106,-2.3106,-2.3106,-2.3106,-2.3106,-2.3106,-2.3106,-2.3106,-2.3106,-2.3106,-2.3106,-2.3106,-2.3106,-2.3106,-2.3106,-2.3106,-2.3106,-2.3106,-2.3106,-2.3106,-2.3106,-2.3106,-2.3106,-2.3106,-2.3106,-2.3106,-2.3106,-2.3106,-2.3106,-2.3106,-2.3106,-2.3106,-2.3355,-2.4092,-2.5133,-2.5554,-2.6996,-2.892,-2.9166,-2.9903,-3.0889,-3.0889,-3.0889,-3.0889,-3.0889,-3.0889,-3.0889,-3.0889,-3.0889,-3.0889,-3.0889,-3.0889,-3.0889,-3.0889,-3.0889,-3.0889,-3.0889,-3.0889,-3.0889,-3.0889,-3.0889,-3.0889,-3.0889,-3.0889,-3.0889,-3.0889,-3.0889,-3.0889,-3.0889,-3.0889,-3.0889,-3.0889,-3.0889,-3.0889,-3.0889,-3.0889,-3.0889,-3.0889,-3.0889,-3.0889,-3.0889,-3.0889,-3.0889,-3.0889,-3.0889,-3.0889,-3.0889,-3.0889,-3.0889,-3.0889,-3.0889,-3.0889,-3.0889,-3.0889,-3.0889,-3.0889,-3.0889,-3.0889,-3.0889,-3.0889,-3.0889,-3.0889,-3.0889,-3.0889,-3.0889,-3.0889,-3.0889,-3.0889,-3.0889,-3.0889,-3.0889,-2.3106,-2.3106,-2.3106,-2.3106,-2.3106,-2.3106,-2.3106,-2.3106,-2.3106,-2.3106,-2.3106,-2.3106,-2.3106,-2.3106,-2.3106,-2.3106,-2.3106,-2.3106,-2.3106,-2.3106,-2.3106,-2.3106,-2.3106,-2.3106,-2.3106,-2.3106,-2.3106,-2.3106,-2.3106,-2.3106,-2.3106,-2.3106,-2.3106,-2.3106,-2.3106,-2.3106,-2.3175,-2.4332,-2.4949,-2.5309,-2.7478,-2.8614,-2.9039,-3.0216,-3.0762,-3.0889,-3.0889,-3.0889,-3.0889,-3.0889,-3.0889,-3.0889,-3.0889,-3.0889,-3.0889,-3.0889,-3.0889,-3.0889,-3.0889,-3.0889,-3.0889,-3.0889,-3.0889,-3.0889,-3.0889,-3.0889,-3.0889,-3.0889,-3.0889,-3.0889,-3.0889,-3.0889,-3.0889,-3.0889,-3.0889,-3.0889,-3.0889,-3.0889,-3.0889,-3.0889,-3.0889,-3.0889,-3.0889,-3.0889,-3.0889,-3.0889,-3.0889,-3.0889,-3.0889,-3.0889,-3.0889,-3.0889,-3.0889,-3.0889,-3.0889,-3.0889,-3.0889,-3.0889,-3.0889,-3.0889,-3.0889,-3.0889,-3.0889,-3.0889,-3.0889,-3.0889,-3.0889,-3.0889,-3.0889,-3.0889,-3.0889,-3.0889,-3.0889,-3.0889,-3.0889,-3.0889,-2.3106,-2.3106,-2.3106,-2.3106,-2.3106,-2.3106,-2.3106,-2.3106,-2.3106,-2.3106,-2.3106,-2.3106,-2.3106,-2.3106,-2.3186,-2.3362,-2.3215,-2.3106,-2.3106,-2.3106,-2.3106,-2.3106,-2.3106,-2.3106,-2.3106,-2.3106,-2.3106,-2.3106,-2.3106,-2.3106,-2.3106,-2.3106,-2.3106,-2.3106,-2.3106,-2.3106,-2.3168,-2.372,-2.4402,-2.5256,-2.7125,-2.8265,-2.9039,-3.0401,-3.0889,-3.0889,-3.0889,-3.0889,-3.0889,-3.0889,-3.0889,-3.0889,-3.0889,-3.0889,-3.0889,-3.0889,-3.0889,-3.0889,-3.0889,-3.0889,-3.0889,-3.0889,-3.0889,-3.0889,-3.0889,-3.0889,-3.0889,-3.0889,-3.0889,-3.0889,-3.0889,-3.0889,-3.0889,-3.0889,-3.0889,-3.0889,-3.0889,-3.0889,-3.0889,-3.0889,-3.0889,-3.0889,-3.0889,-3.0889,-3.0889,-3.0889,-3.0889,-3.0889,-3.0889,-3.0889,-3.0889,-3.0889,-3.0889,-3.0889,-3.0889,-3.0889,-3.0889,-3.0889,-3.0889,-3.0889,-3.0889,-3.0889,-3.0889,-3.0889,-3.0889,-3.0889,-3.0889,-3.0889,-3.0889,-3.0889,-3.0889,-3.0889,-3.0889,-3.0889,-3.0889,-3.0889]},{"header":{"parameterUnit":"m.s-1","parameterCategory":1,"la1":30.6,"la2":28.766,"lo1":-90.7593,"lo2":-88.6598,"dx":0.0162,"dy":0.0183,"nx":116,"ny":114,"refTime":"2022-12-06T18:00:00:Z","depth":0,"parameterNumber":3,"parameterNumberName":"V-component_of_WINDS"},"data":[0.0,0.0,0.0,0.0,0.0,0.0,0.0,0.0,0.0,0.0,0.0,0.0,0.0,0.0,0.0,0.0,0.0,0.0,0.0,0.0,0.0,0.0,0.0,0.0,0.0,0.0,0.0,0.0,0.0,0.0,0.0,0.0,0.0,0.0,0.0,0.0,0.0,0.0,0.0,0.0,0.0,0.0,0.0,0.0,0.0,0.0,0.0,0.0,0.0,0.0,0.0,0.0,0.0,0.0,0.0,0.0,0.0,0.0,0.0,0.0,0.0,0.0,0.0,0.0,0.0,0.0,0.0,0.0,0.0,0.0,0.0,0.0,0.0,0.0,0.0,0.0,0.0,0.0,0.0,0.0,0.0,0.0,0.0,0.0,0.0,0.0,0.0,0.0,0.0,0.0,0.0,0.0,0.0,0.0,0.0,0.0,0.0,0.0,0.0,0.0,0.0,0.0,0.0,0.0,0.0,0.0,0.0,0.0,0.0,0.0,0.0,0.0,0.0,0.0,0.0,0.0,0.0,0.0,0.0,0.0,0.0,0.0,0.0,0.0,0.0,0.0,0.0,0.0,0.0,0.0,0.0,0.0,0.0,0.0,0.0,0.0,0.0,0.0,0.0,0.0,0.0,0.0,0.0,0.0,0.0,0.0,0.0,0.0,0.0,0.0,0.0,0.0,0.0,0.0,0.0,0.0,0.0,0.0,0.0,0.0,0.0,0.0,0.0,0.0,0.0,0.0,0.0,0.0,0.0,0.0,0.0,0.0,0.0,0.0,0.0,0.0,0.0,0.0,0.0,0.0,0.0,0.0,0.0,0.0,0.0,0.0,0.0,0.0,0.0,0.0,0.0,0.0,0.0,0.0,0.0,0.0,0.0,0.0,0.0,0.0,0.0,0.0,0.0,0.0,0.0,0.0,0.0,0.0,0.0,0.0,0.0,0.0,0.0,0.0,0.0,0.0,0.0,0.0,0.0,0.0,0.0,0.0,0.0,0.0,0.0,0.0,0.0,0.0,0.0,0.0,0.0,0.0,0.0,0.0,0.0,0.0,0.0,0.0,0.0,0.0,0.0,0.0,0.0,0.0,0.0,0.0,0.0,0.0,0.0,0.0,0.0,0.0,0.0,0.0,0.0,0.0,0.0,0.0,0.0,0.0,0.0,0.0,0.0,0.0,0.0,0.0,0.0,0.0,0.0,0.0,0.0,0.0,0.0,0.0,0.0,0.0,0.0,0.0,0.0,0.0,0.0,0.0,0.0,0.0,0.0,0.0,0.0,0.0,0.0,0.0,0.0,0.0,0.0,0.0,0.0,0.0,0.0,0.0,0.0,0.0,0.0,0.0,0.0,0.0,0.0,0.0,0.0,0.0,0.0,0.0,0.0,0.0,0.0,0.0,0.0,0.0,0.0,0.0,0.0,0.0,0.0,0.0,0.0,0.0,0.0,0.0,0.0,0.0,0.0,0.0,0.0,0.0,0.0,0.0,0.0,0.0,0.0,0.0,0.0,0.0,0.0,0.0,0.0,0.0,0.0,0.0,0.0,0.0,0.0,0.0,0.0,0.0,0.0,0.0,0.0,0.0,0.0,0.0,0.0,0.0,0.0,0.0,0.0,0.0,0.0,0.0,0.0,0.0,0.0,0.0,0.0,0.0,0.0,0.0,0.0,0.0,0.0,0.0,0.0,0.0,0.0,0.0,0.0,0.0,0.0,0.0,0.0,0.0,0.0,0.0,0.0,0.0,0.0,0.0,0.0,0.0,0.0,0.0,0.0,0.0,0.0,0.0,0.0,0.0,0.0,0.0,0.0,0.0,0.0,0.0,0.0,0.0,0.0,0.0,0.0,0.0,0.0,0.0,0.0,0.0,0.0,0.0,0.0,0.0,0.0,0.0,0.0,0.0,0.0,0.0,0.0,0.0,0.0,0.0,0.0,0.0,0.0,0.0,0.0,0.0,0.0,0.0,0.0,0.0,0.0,0.0,0.0,0.0,0.0,0.0,0.0,0.0,0.0,0.0,0.0,0.0,0.0,0.0,0.0,0.0,0.0,0.0,0.0,0.0,0.0,0.0,0.0,0.0,0.0,0.0,0.0,0.0,0.0,0.0,0.0,0.0,0.0,0.0,0.0,0.0,0.0,0.0,0.0,0.0,0.0,0.0,0.0,0.0,0.0,0.0,0.0,0.0,0.0,0.0,0.0,0.0,0.0,0.0,0.0,0.0,0.0,0.0,0.0,0.0,0.0,0.0,0.0,0.0,0.0,0.0,0.0,0.0,0.0,0.0,0.0,0.0,0.0,0.0,0.0,0.0,0.0,0.0,0.0,0.0,0.0,0.0,0.0,0.0,0.0,0.0,0.0,0.0,0.0,0.0,0.0,0.0,0.0,0.0,0.0,0.0,0.0,0.0,0.0,0.0,0.0,0.0,0.0,0.0,0.0,0.0,0.0,0.0,0.0,0.0,0.0,0.0,0.0,0.0,0.0,0.0,0.0,0.0,0.0,0.0,0.0,0.0,0.0,0.0,0.0,0.0,0.0,0.0,0.0,0.0,0.0,0.0,0.0,0.0,0.0,0.0,0.0,0.0,0.0,0.0,0.0,0.0,0.0,0.0,0.0,0.0,0.0,0.0,0.0,0.0,0.0,0.0,0.0,0.0,0.0,0.0,0.0,0.0,0.0,0.0,0.0,0.0,0.0,0.0,0.0,0.0,0.0,0.0,0.0,0.0,0.0,0.0,0.0,0.0,0.0,0.0,0.0,0.0,0.0,0.0,0.0,0.0,0.0,0.0,0.0,0.0,0.0,0.0,0.0,0.0,0.0,0.0,0.0,0.0,0.0,0.0,0.0,0.0,0.0,0.0,0.0,0.0,0.0,0.0,0.0,0.0,0.0,0.0,0.0,0.0,0.0,0.0,0.0,0.0,0.0,0.0,0.0,0.0,0.0,0.0,0.0,0.0,0.0,0.0,0.0,0.0,0.0,0.0,0.0,0.0,0.0,0.0,0.0,0.0,0.0,0.0,0.0,0.0,0.0,0.0,0.0,0.0,0.0,0.0,0.0,0.0,0.0,0.0,0.0,0.0,0.0,0.0,0.0,0.0,0.0,0.0,0.0,0.0,0.0,0.0,0.0,0.0,0.0,0.0,0.0,0.0,0.0,0.0,0.0,0.0,0.0,0.0,0.0,0.0,0.0,0.0,0.0,0.0,0.0,0.0,0.0,0.0,0.0,0.0,0.0,0.0,0.0,0.0,0.0,0.0,0.0,0.0,0.0,0.0,0.0,0.0,0.0,0.0,0.0,0.0,0.0,0.0,0.0,0.0,0.0,0.0,0.0,0.0,0.0,0.0,0.0,0.0,0.0,0.0,0.0,0.0,0.0,0.0,0.0,0.0,0.0,0.0,0.0,0.0,0.0,0.0,0.0,0.0,0.0,0.0,0.0,0.0,0.0,0.0,0.0,0.0,0.0,0.0,0.0,0.0,0.0,0.0,0.0,0.0,0.0,0.0,0.0,0.0,0.0,0.0,0.0,0.0,0.0,0.0,0.0,0.0,0.0,0.0,0.0,0.0,0.0,0.0,0.0,0.0,0.0,0.0,0.0,0.0,0.0,0.0,0.0,0.0,0.0,0.0,0.0,0.0,0.0,0.0,0.0,0.0,0.0,0.0,0.0,0.0,0.0,0.0,0.0,0.0,0.0,0.0,0.0,0.0,0.0,0.0,0.0,0.0,0.0,0.0,0.0,0.0,0.0,0.0,0.0,0.0,0.0,0.0,0.0,0.0,0.0,0.0,0.0,0.0,0.0,0.0,0.0,0.0,0.0,0.0,0.0,0.0,0.0,0.0,0.0,0.0,0.0,0.0,0.0,0.0,0.0,0.0,0.0,0.0,0.0,0.0,0.0,0.0,0.0,0.0,0.0,0.0,0.0,0.0,0.0,0.0,0.0,0.0,0.0,0.0,0.0,0.0,0.0,0.0,0.0,0.0,0.0,0.0,0.0,0.0,0.0,0.0,0.0,0.0,0.0,0.0,0.0,0.0,0.0,0.0,0.0,0.0,0.0,0.0,0.0,0.0,0.0,0.0,0.0,0.0,0.0,0.0,0.0,0.0,0.0,0.0,0.0,0.0,0.0,0.0,0.0,0.0,0.0,0.0,0.0,0.0,0.0,0.0,0.0,0.0,0.0,0.0,0.0,0.0,0.0,0.0,0.0,0.0,0.0,0.0,0.0,0.0,0.0,0.0,0.0,0.0,0.0,0.0,0.0,0.0,0.0,0.0,0.0,0.0,0.0,0.0,0.0,0.0,0.0,0.0,0.0,0.0,0.0,0.0,0.0,0.0,0.0,0.0,0.0,0.0,0.0,0.0,0.0,0.0,0.0,0.0,0.0,0.0,0.0,0.0,0.0,0.0,0.0,0.0,0.0,0.0,0.0,0.0,0.0,0.0,0.0,0.0,0.0,0.0,0.0,0.0,0.0,0.0,0.0,0.0,0.0,0.0,0.0,0.0,0.0,0.0,0.0,0.0,0.0,0.0,0.0,0.0,0.0,0.0,0.0,0.0,0.0,0.0,0.0,0.0,0.0,0.0,0.0,0.0,0.0,0.0,0.0,0.0,0.0,0.0,0.0,0.0,0.0,0.0,0.0,0.0,0.0,0.0,0.0,0.0,0.0,0.0,0.0,0.0,0.0,0.0,0.0,0.0,0.0,0.0,0.0,0.0,0.0,0.0,0.0,0.0,0.0,0.0,0.0,0.0,0.0,0.0,0.0,0.0,0.0,0.0,0.0,0.0,0.0,0.0,0.0,0.0,0.0,0.0,0.0,0.0,0.0,0.0,0.0,0.0,0.0,0.0,0.0,0.0,0.0,0.0,0.0,0.0,0.0,0.0,0.0,0.0,0.0,0.0,0.0,0.0,0.0,0.0,0.0,0.0,0.0,0.0,0.0,0.0,0.0,0.0,0.0,0.0,0.0,0.0,0.0,0.0,0.0,0.0,0.0,0.0,0.0,0.0,0.0,0.0,0.0,0.0,0.0,0.0,0.0,0.0,0.0,0.0,0.0,0.0,0.0,0.0,0.0,0.0,0.0,0.0,0.0,0.0,0.0,0.0,0.0,0.0,0.0,0.0,0.0,0.0,0.0,0.0,0.0,0.0,0.0,0.0,0.0,0.0,0.0,0.0,0.0,0.0,0.0,0.0,0.0,0.0,0.0,0.0,0.0,0.0,0.0,0.0,0.0,0.0,0.0,0.0,0.0,0.0,0.0,0.0,0.0,0.0,0.0,0.0,0.0,0.0,0.0,0.0,0.0,0.0,0.0,0.0,0.0,0.0,0.0,0.0,0.0,0.0,0.0,0.0,0.0,0.0,0.0,0.0,0.0,0.0,0.0,0.0,0.0,0.0,0.0,0.0,0.0,0.0,0.0,0.0,0.0,0.0,0.0,0.0,0.0,0.0,0.0,0.0,0.0,0.0,0.0,0.0,0.0,0.0,0.0,0.0,0.0,0.0,0.0,0.0,0.0,0.0,0.0,0.0,0.0,0.0,0.0,0.0,0.0,0.0,0.0,0.0,0.0,0.0,0.0,0.0,0.0,0.0,0.0,0.0,0.0,0.0,0.0,0.0,0.0,0.0,0.0,0.0,0.0,0.0,0.0,0.0,0.0,0.0,0.0,0.0,0.0,0.0,0.0,0.0,0.0,0.0,0.0,0.0,0.0,0.0,0.0,0.0,0.0,0.0,0.0,0.0,0.0,0.0,0.0,0.0,0.0,0.0,0.0,0.0,0.0,0.0,0.0,0.0,0.0,0.0,0.0,0.0,0.0,0.0,0.0,0.0,0.0,0.0,0.0,0.0,0.0,0.0,0.0,0.0,0.0,0.0,0.0,0.0,0.0,0.0,0.0,0.0,0.0,0.0,0.0,0.0,0.0,0.0,0.0,0.0,0.0,0.0,0.0,0.0,0.0,0.0,0.0,0.0,0.0,0.0,0.0,0.0,0.0,0.0,0.0,0.0,0.0,0.0,0.0,0.0,0.0,0.0,0.0,0.0,0.0,0.0,0.0,0.0,0.0,0.0,0.0,0.0,0.0,0.0,0.0,0.0,0.0,0.0,0.0,0.0,2.5264,2.3922,0.0,0.0,0.0,0.0,0.0,0.0,0.0,0.0,0.0,0.0,0.0,0.0,0.0,0.0,0.0,0.0,0.0,0.0,0.0,0.0,0.0,0.0,0.0,1.3725,1.3781,1.3846,1.3465,0.0,0.0,0.0,0.0,0.0,0.0,0.0,0.0,0.0,1.4752,1.5196,1.564,1.6116,1.654,1.6521,1.6501,1.6493,0.0,0.0,0.0,0.0,0.0,0.0,0.0,0.0,0.0,0.0,0.0,0.0,0.0,0.0,0.0,0.0,0.0,0.0,0.0,0.0,0.0,0.0,0.0,0.0,0.0,0.0,0.0,0.0,0.0,0.0,0.0,0.0,0.0,0.0,0.0,0.0,0.0,0.0,0.0,0.0,0.0,0.0,0.0,0.0,0.0,0.0,0.0,0.0,0.0,0.0,0.0,0.0,0.0,0.0,0.0,0.0,0.0,0.0,0.0,0.0,0.0,0.0,0.0,0.0,0.0,0.0,0.0,0.0,0.0,0.0,2.6523,2.5284,0.0,0.0,0.0,0.0,0.0,0.0,0.0,0.0,0.0,0.0,0.0,0.0,0.0,0.0,0.0,0.0,0.0,0.0,0.0,0.0,0.0,1.4822,1.4936,1.4976,1.5057,1.5172,1.4535,1.414,1.4129,1.3503,0.0,0.0,0.0,0.0,1.4343,1.505,1.5851,1.6739,1.6872,1.7471,1.845,1.84,1.8474,1.8631,1.7989,0.0,0.0,0.0,0.0,0.0,0.0,0.0,0.0,0.0,0.0,0.0,0.0,0.0,0.0,0.0,0.0,0.0,0.0,0.0,0.0,0.0,0.0,0.0,0.0,0.0,0.0,0.0,0.0,0.0,0.0,0.0,0.0,0.0,0.0,0.0,0.0,0.0,0.0,0.0,0.0,0.0,0.0,0.0,0.0,0.0,0.0,0.0,0.0,0.0,0.0,0.0,0.0,0.0,0.0,0.0,0.0,0.0,0.0,0.0,0.0,0.0,0.0,0.0,2.9128,2.9437,2.9368,2.9455,2.9472,2.9369,2.7507,2.6695,2.6644,2.5902,0.0,0.0,0.0,0.0,0.0,0.0,0.0,0.0,0.0,0.0,0.0,0.0,0.0,0.0,0.0,0.0,0.0,0.0,0.0,1.4718,1.4729,1.4906,1.5037,1.5103,1.5063,1.5036,1.5038,1.4923,0.0,0.0,0.0,1.5385,1.6138,1.6279,1.6766,1.7625,1.8398,1.9552,2.1103,2.1032,2.1412,2.2017,1.903,1.7641,1.7545,0.0,0.0,0.0,0.0,0.0,0.0,0.0,0.0,0.0,0.0,0.0,0.0,0.0,0.0,0.0,0.0,0.0,0.0,0.0,0.0,0.0,0.0,0.0,0.0,0.0,0.0,0.0,0.0,0.0,0.0,0.0,0.0,0.0,0.0,0.0,0.0,0.0,0.0,0.0,0.0,0.0,2.2391,2.3601,0.0,0.0,0.0,0.0,0.0,0.0,0.0,0.0,0.0,0.0,0.0,0.0,0.0,2.8784,2.8784,2.911,2.9213,2.9075,2.9299,2.9333,2.9229,2.9368,2.9403,2.9403,2.9145,0.0,2.8989,2.8265,0.0,0.0,0.0,0.0,0.0,0.0,0.0,0.0,0.0,0.0,0.0,0.0,0.0,0.0,0.0,0.0,0.0,0.0,0.0,0.0,0.0,1.4776,1.4865,1.498,1.5502,1.5816,1.5814,1.6311,0.0,0.0,1.6619,1.6772,1.718,1.7655,1.8554,1.9887,2.0758,2.1564,2.2272,2.2752,2.3163,2.3451,2.1929,2.0719,1.9812,1.935,0.0,0.0,0.0,0.0,0.0,0.0,0.0,0.0,0.0,0.0,0.0,0.0,0.0,0.0,0.0,0.0,0.0,0.0,0.0,0.0,0.0,0.0,0.0,0.0,0.0,0.0,0.0,0.0,0.0,0.0,0.0,0.0,0.0,0.0,0.0,0.0,0.0,0.0,0.0,2.3336,2.4222,2.4969,2.5381,2.5719,0.0,0.0,0.0,0.0,0.0,0.0,0.0,0.0,0.0,2.8767,2.945,2.9825,2.9825,3.0733,3.1141,3.1011,3.1551,3.1794,3.1739,3.1869,3.1981,3.2037,3.2074,3.2093,3.1921,2.9868,2.9023,2.8954,0.0,0.0,0.0,0.0,2.754,2.754,0.0,0.0,0.0,0.0,0.0,0.0,0.0,0.0,0.0,0.0,0.0,0.0,1.4932,1.5008,1.5125,1.5447,1.6149,1.6612,1.6613,1.7292,1.7699,1.7699,1.7911,1.8142,1.8353,1.9411,2.0808,2.2495,2.3129,2.3678,2.4125,2.4726,2.4999,2.4994,2.4892,2.3835,2.2088,2.1253,2.0407,1.955,0.0,0.0,0.0,0.0,0.0,0.0,0.0,0.0,0.0,0.0,0.0,0.0,0.0,0.0,0.0,0.0,0.0,0.0,0.0,0.0,0.0,0.0,0.0,0.0,0.0,0.0,0.0,0.0,0.0,0.0,0.0,0.0,0.0,0.0,0.0,0.0,0.0,2.502,2.5836,2.6392,2.6774,2.7081,0.0,0.0,0.0,0.0,0.0,0.0,2.9485,3.0056,3.028,3.0046,3.0723,3.1096,3.1096,3.2485,3.3131,3.2992,3.3922,3.4305,3.4284,3.4425,3.4544,3.4642,3.4663,3.4562,3.4182,3.1472,3.0368,3.0351,3.0162,3.0093,3.0075,2.9886,2.9817,2.9782,0.0,0.0,0.0,0.0,0.0,0.0,0.0,0.0,0.0,0.0,0.0,1.4672,1.5643,1.5802,1.6159,1.6925,1.7273,1.7441,1.7445,1.76,1.7699,1.7699,1.8491,1.9315,2.0154,2.1773,2.3467,2.5204,2.5173,2.6019,2.764,2.7484,2.7415,2.7408,2.722,2.592,2.3823,2.2949,2.2077,2.12,2.0391,0.0,0.0,0.0,0.0,0.0,0.0,0.0,0.0,0.0,0.0,0.0,0.0,0.0,0.0,0.0,0.0,0.0,0.0,0.0,0.0,0.0,0.0,0.0,0.0,0.0,0.0,0.0,0.0,0.0,0.0,0.0,0.0,0.0,0.0,0.0,0.0,0.0,0.0,2.8121,2.8456,0.0,0.0,0.0,0.0,2.9623,2.9987,3.0236,3.025,3.1521,3.2264,3.2244,3.2872,3.3237,3.3237,3.4265,3.4721,3.4597,3.56,3.6002,3.5878,3.6024,3.6084,3.6105,3.6155,3.5783,3.5007,3.3404,3.2731,3.2662,3.1955,3.1679,3.1593,3.0886,3.0645,3.0524,0.0,0.0,0.0,1.3395,1.3508,1.3605,1.3605,1.3644,1.3956,1.4767,1.4912,1.535,1.6395,1.6539,1.6682,1.7009,1.8141,1.8922,1.9096,2.0198,2.0893,2.0985,2.1277,2.21,2.35,2.4096,2.5269,2.7007,2.6982,2.7294,2.7909,2.8268,2.8446,2.842,2.823,2.7699,2.6875,2.5429,2.4327,2.3468,2.2737,2.1635,0.0,0.0,0.0,0.0,0.0,0.0,0.0,0.0,0.0,0.0,0.0,0.0,0.0,0.0,0.0,0.0,0.0,0.0,0.0,0.0,0.0,0.0,0.0,0.0,0.0,0.0,0.0,0.0,0.0,0.0,0.0,0.0,0.0,0.0,0.0,0.0,0.0,2.851,2.8799,0.0,3.0056,3.0018,3.0372,3.1369,3.1521,3.1797,3.2269,3.3215,3.3795,3.3879,3.506,3.5727,3.5764,3.6654,3.7069,3.7024,3.7387,3.7535,3.7545,3.759,3.7657,3.7757,3.7784,3.7629,3.7335,3.6784,3.5421,3.3645,3.3369,3.3285,3.325,3.2992,3.2905,3.2854,0.0,0.0,0.0,1.3378,1.35,1.3605,1.3605,1.3829,1.4311,1.5184,1.5525,1.6095,1.7192,1.7332,1.758,1.8156,1.9327,2.0239,2.0682,2.2146,2.3042,2.3122,2.3736,2.4736,2.6154,2.6173,2.689,2.8299,2.8299,2.8431,2.8648,2.9044,2.9193,2.9133,2.8959,2.8855,2.8753,2.761,2.6501,2.5483,2.4714,2.3578,2.2313,0.0,0.0,0.0,0.0,0.0,0.0,0.0,0.0,0.0,0.0,0.0,0.0,0.0,0.0,0.0,0.0,0.0,0.0,0.0,0.0,0.0,0.0,0.0,0.0,0.0,0.0,0.0,0.0,0.0,0.0,0.0,0.0,0.0,0.0,2.8206,2.897,2.9606,2.9778,3.026,3.1342,3.1305,3.1791,3.3155,3.3379,3.3812,3.4601,3.5365,3.5834,3.59,3.6905,3.7462,3.7501,3.8567,3.9104,3.9121,3.9665,3.9976,4.0018,4.0018,4.0083,4.0152,4.0152,3.9876,3.9393,3.9393,3.7887,3.5632,3.5632,3.5632,3.5597,3.5356,3.5252,3.5218,0.0,0.0,1.32,1.3526,1.3597,1.3605,1.3605,1.4286,1.4921,1.5291,1.5985,1.6872,1.8005,1.8231,1.8897,2.0455,2.0834,2.1316,2.2121,2.3234,2.3883,2.3927,2.5679,2.7044,2.7915,2.7934,2.8338,2.9146,2.9146,2.946,3.0109,2.9954,2.9794,2.9598,2.9451,2.9365,2.9302,2.9302,2.8508,2.7175,2.6245,2.5439,2.4696,0.0,0.0,0.0,0.0,0.0,0.0,0.0,0.0,0.0,0.0,0.0,0.0,0.0,0.0,0.0,0.0,0.0,0.0,0.0,0.0,0.0,0.0,0.0,0.0,0.0,0.0,0.0,0.0,0.0,0.0,0.0,0.0,0.0,2.8641,2.9275,3.0299,3.1498,3.1494,3.2029,3.3615,3.3617,3.3935,3.4933,3.5547,3.6246,3.7091,3.7929,3.8373,3.8373,3.8424,3.8441,3.8441,3.9997,4.0765,4.0783,4.2408,4.3189,4.3189,4.3189,4.3189,4.3189,4.3189,4.2344,4.0981,4.0981,4.0101,3.8715,3.8629,3.8594,3.8491,3.7806,3.753,3.7426,1.2636,1.2901,1.3128,1.3217,1.3445,1.3605,1.3605,1.4286,1.513,1.6054,1.6811,1.7687,1.8845,1.9517,2.0066,2.0557,2.175,2.2898,2.3843,2.481,2.5688,2.6524,2.719,2.7934,2.8742,2.878,2.9179,3.0038,3.0038,3.0055,3.0109,2.9954,2.9794,2.9598,2.9451,2.9396,2.9376,2.9323,2.9045,2.8577,2.7791,2.6972,2.6153,0.0,0.0,0.0,0.0,0.0,0.0,0.0,0.0,0.0,0.0,0.0,0.0,0.0,0.0,0.0,0.0,0.0,0.0,0.0,0.0,0.0,0.0,0.0,0.0,0.0,0.0,0.0,0.0,0.0,0.0,0.0,3.116,3.1081,3.0452,3.075,3.1395,3.2355,3.3236,3.4176,3.5258,3.5795,3.6399,3.7161,3.7462,3.7672,3.7808,3.9146,3.9935,4.0048,4.0979,4.1543,4.1626,4.2062,4.226,4.2159,4.2857,4.3122,4.3004,4.3122,4.3189,4.3189,4.3189,4.2948,4.2568,4.2568,4.2327,4.1705,3.9457,3.8594,3.8577,3.8353,3.8284,3.8272,1.2571,1.2811,1.3002,1.3084,1.3312,1.3468,1.3468,1.4495,1.5532,1.6281,1.7387,1.8509,1.9591,2.022,2.0827,2.1541,2.2862,2.404,2.4969,2.6311,2.7581,2.8715,2.8883,2.9179,2.9621,2.964,2.989,3.0404,3.0311,3.0367,3.0514,3.0345,3.0368,3.0521,3.0435,3.04,3.0381,3.0004,2.9783,2.9643,2.8868,2.8034,2.7226,2.6935,2.6615,2.6202,2.5281,2.494,2.4756,2.348,0.0,0.0,0.0,0.0,0.0,0.0,0.0,0.0,0.0,0.0,0.0,0.0,0.0,0.0,0.0,0.0,0.0,0.0,0.0,0.0,0.0,0.0,0.0,0.0,3.2298,3.2876,3.3236,3.3108,3.3308,3.4123,3.5091,3.6056,3.6918,3.737,3.8071,3.9189,3.9299,3.959,4.0206,4.1111,4.1641,4.1624,4.2457,4.2903,4.2911,4.3288,4.3443,4.3383,4.3881,4.4044,4.395,4.4087,4.4113,4.4113,4.4113,4.3966,4.3655,4.3655,4.3483,4.3017,0.0,0.0,0.0,0.0,4.0532,4.0532,1.2652,1.2766,1.2857,1.3039,1.3183,1.327,1.327,1.475,1.5937,1.6133,1.7684,1.9147,2.0147,2.0519,2.1305,2.2821,2.3924,2.4912,2.581,2.7734,2.9284,3.0292,3.0386,3.0404,3.0404,3.0404,3.0404,3.0404,3.0209,3.0483,3.1101,3.0913,3.1179,3.1794,3.1794,3.1794,3.1756,3.1021,3.0594,3.0346,2.9614,2.8813,2.804,2.8164,2.7751,2.7149,2.7175,2.7183,2.7072,2.6257,0.0,0.0,0.0,0.0,0.0,0.0,0.0,0.0,0.0,0.0,0.0,0.0,0.0,0.0,0.0,0.0,0.0,0.0,0.0,0.0,0.0,0.0,0.0,0.0,3.3477,3.4869,3.6353,3.61,3.5933,3.6414,3.7077,3.7809,3.8608,3.8774,3.9483,4.1019,4.1051,4.1611,4.3095,4.3276,0.0,0.0,0.0,4.3355,4.3151,4.3984,4.4406,4.438,4.507,4.5397,4.5371,4.5397,4.5397,4.5397,4.5397,4.5044,4.4432,4.4432,4.4052,4.3431,4.3258,4.3189,4.3189,4.3189,4.3189,4.3232,1.2403,1.2604,1.2757,1.2848,1.3013,1.3129,1.3129,1.4568,1.5735,1.5939,1.7474,1.8931,1.9868,2.0779,2.1689,2.2605,2.428,2.5937,2.7439,2.8881,2.9774,2.9988,3.0254,3.0404,3.0404,3.0404,3.0404,3.0404,3.0361,3.0595,3.1109,3.1047,3.1317,3.1794,3.1794,3.1794,3.1794,3.1589,3.1068,3.0401,3.0231,2.9609,2.8789,2.8823,2.8769,2.8592,2.7909,2.7698,2.7608,2.6755,2.6358,2.6182,2.6025,2.5857,0.0,0.0,0.0,0.0,0.0,0.0,0.0,0.0,0.0,0.0,0.0,0.0,0.0,0.0,0.0,0.0,0.0,0.0,0.0,3.5486,3.5867,3.6404,3.7922,3.9094,3.9365,3.8262,3.9233,4.0102,4.0399,4.1536,4.2349,4.2566,4.2659,4.2804,4.3038,4.3725,4.4061,4.4018,4.4543,4.48,4.4774,4.4955,4.4971,4.4881,4.5222,0.0,4.5247,4.5371,4.5397,4.5397,4.5397,4.5311,4.5173,4.5173,4.5087,4.4872,4.3672,4.3189,4.3189,4.3189,4.3189,4.3189,1.2236,1.2427,1.2536,1.2516,1.2747,1.294,1.294,1.4343,1.5439,1.5547,1.7159,1.8777,2.0008,2.0838,2.1916,2.3465,2.5383,2.7148,2.8657,2.9382,2.9784,2.9894,3.0049,3.0147,3.0147,3.0147,3.0147,3.0147,3.0049,3.0555,3.16,3.1505,3.2019,3.3001,3.3001,3.2978,3.2924,3.2493,3.1774,3.0928,3.0498,2.9814,2.9005,2.904,2.9074,2.9052,2.858,2.8422,2.839,2.7952,2.7519,2.72,2.72,2.6924,2.6602,0.0,0.0,0.0,0.0,0.0,0.0,0.0,0.0,0.0,0.0,0.0,0.0,0.0,0.0,3.236,3.3202,0.0,3.5147,3.6354,3.7067,3.7974,3.9549,4.0411,4.0618,3.9842,4.1047,4.1977,4.205,4.2741,4.3337,4.3623,4.3708,4.3889,4.4182,4.4621,4.4828,4.4759,4.5111,4.5274,4.5203,4.5274,4.5264,4.5211,4.5344,4.5353,4.53,4.5371,4.5397,4.5397,4.5397,4.5397,4.5397,4.5397,4.5397,4.5328,4.4596,4.4302,4.4302,4.4302,4.4302,4.4302,1.2018,1.2205,1.2343,1.2246,1.2506,1.2735,1.2745,1.4116,1.5143,1.5143,1.6792,1.8509,1.9947,2.0616,2.202,2.4599,2.6332,2.786,2.9245,2.9485,2.9653,2.9836,2.9878,2.9902,2.9902,2.9902,2.9902,2.9902,2.9742,3.0406,3.1849,3.184,3.2597,3.3944,3.4099,3.4136,3.4018,3.3309,3.2428,3.144,3.0723,2.9861,2.9005,2.9062,2.9096,2.9096,2.9028,2.9017,2.9017,2.9005,2.8565,2.8026,2.8026,2.7585,2.706,2.706,2.706,0.0,0.0,0.0,0.0,0.0,0.0,0.0,0.0,3.1102,3.195,3.251,3.3183,3.3836,3.4354,3.5731,3.6838,3.6934,3.8129,3.9549,4.0929,4.1378,4.1567,4.1567,4.2654,4.3414,4.3414,4.3552,4.388,4.4483,4.4492,4.4768,4.5363,4.5397,4.5371,4.5247,4.5327,4.5344,4.5247,4.5344,4.5397,4.5397,4.5397,4.5397,4.5397,4.5397,4.5397,4.5397,4.5397,4.5397,4.5397,4.5397,4.5397,4.5397,4.5397,4.5397,4.5397,4.5397,4.5397,4.5423,1.1497,1.1833,1.2256,1.2353,1.2403,1.2453,1.2518,1.3907,1.4919,1.4919,1.6429,1.7873,1.8963,1.9918,2.1879,2.5353,2.6139,2.7096,2.8686,2.924,2.9561,2.9635,2.9811,2.9902,2.9902,2.9902,2.9902,2.9902,2.9878,3.0249,3.0959,3.1647,3.2367,3.3074,3.3734,3.4023,3.3979,3.3538,3.2624,3.1452,3.1,3.0103,2.9005,2.9005,2.9051,2.9096,2.9028,2.904,2.9085,2.9028,2.895,2.8877,2.8877,2.8803,2.873,2.873,2.873,2.873,2.873,2.9244,2.9824,2.9916,3.065,3.1286,0.0,3.2092,3.302,3.246,3.375,3.5208,3.5913,3.6464,3.7362,3.9059,4.0066,4.0929,4.1774,4.3069,4.3931,4.3931,4.4069,4.4173,4.4173,4.4768,4.5173,4.5259,4.5276,4.5311,4.5397,4.5397,4.5397,4.5371,4.5397,4.5397,4.5371,4.5397,4.5397,4.5397,4.5397,4.5397,4.5397,4.5397,4.5397,4.5397,4.5397,4.5397,4.5397,4.5397,4.5397,4.5397,4.5397,4.5397,4.5397,4.5397,4.5397,4.5397,1.1841,1.1955,1.2102,1.22,1.2313,1.2419,1.2439,1.3733,1.474,1.474,1.6155,1.7506,1.8397,2.0302,2.2436,2.4726,2.5625,2.6627,2.7917,2.8432,2.8918,2.9404,2.9541,2.9608,2.9608,2.9608,2.9608,2.9608,2.9608,2.9972,3.0694,3.0985,3.1436,3.1986,3.2236,3.2235,3.201,3.1844,3.1169,3.0193,3.0034,2.9368,2.8482,2.8482,2.8608,2.8827,2.894,2.9017,0.0,2.9017,2.9005,2.9005,2.9005,2.9005,2.9097,2.9555,2.9702,2.9794,3.0265,3.0632,3.0889,3.0889,3.1887,3.2797,3.266,3.3894,3.5074,3.4991,3.5774,3.6663,3.7248,3.7965,3.8893,4.0193,4.105,4.1964,4.3172,4.3897,4.4466,4.4889,4.4941,4.4941,4.4941,4.5207,4.5397,4.5397,4.5397,4.5397,4.5397,4.5397,4.5397,4.5397,4.5397,4.5397,4.5397,4.5397,4.5397,4.5397,4.5397,4.5397,4.5397,4.5397,4.5397,4.5397,4.5397,4.5397,4.5397,4.5397,4.5397,4.5397,4.5397,4.5397,4.5397,4.5397,4.5397,4.5397,1.2195,1.2123,1.2065,1.2117,1.2262,1.2363,1.2353,1.3585,1.4538,1.46,1.5943,1.7216,1.8104,2.0298,2.2251,2.3628,2.4799,2.5906,2.6994,2.7618,2.8247,2.895,2.9254,2.9396,2.9396,2.9396,2.9396,2.9396,2.9386,2.9673,3.0238,3.0309,3.0551,3.0929,3.0982,3.0853,3.0568,3.0481,2.999,2.9294,2.9194,2.8745,2.8102,2.8102,2.8255,2.8495,2.8779,2.8929,2.9005,2.9005,2.9005,2.9005,2.9005,2.9152,2.9445,3.0026,3.0522,3.0944,3.1305,3.188,3.2326,3.1997,3.3208,3.4426,3.4211,3.5349,3.6544,3.6835,3.7255,3.7787,3.8426,3.918,4.0026,4.105,4.1843,4.2792,4.4121,4.4483,4.4803,4.5328,4.5397,4.5397,4.5397,4.5397,4.5397,4.5397,4.5397,4.5397,4.5397,4.5397,4.5397,4.5397,4.5397,4.5397,4.5397,4.5397,4.5397,4.5397,4.5397,4.5397,4.5397,4.5397,4.5397,4.5397,4.5397,4.5397,4.5397,4.5397,4.5397,4.5397,4.5397,4.5397,4.5397,4.5397,4.5397,4.5397,1.2349,1.2239,1.2195,1.2195,1.2256,1.2277,1.2226,1.3399,1.4378,1.4561,1.5769,1.7024,1.8078,1.9386,2.0768,2.2221,2.3571,2.4794,2.5876,2.6992,2.778,2.8124,2.8957,2.9396,2.9396,2.9396,2.9396,2.9396,2.9334,2.932,2.9357,2.974,2.9932,2.9961,3.0362,3.0513,3.0484,3.0154,2.9743,2.9266,2.8961,2.8529,2.8102,2.8102,2.8116,2.8156,2.8495,2.8779,2.9005,2.9005,2.9005,2.9005,2.9005,2.9537,3.0173,3.0191,3.1311,3.2362,3.1604,3.3109,3.4641,3.351,3.4754,3.6032,3.5232,3.601,3.687,3.6805,3.7477,3.8408,3.9467,3.9687,4.0198,4.1723,4.2637,4.3431,4.419,4.4923,4.5363,4.5397,4.5397,4.5397,4.5397,4.5397,4.5397,4.5397,4.5397,4.5397,4.5397,4.5397,4.5397,4.5397,4.5397,4.5397,4.5397,4.5397,4.5397,4.5397,4.5397,4.5397,4.5397,4.5397,4.5397,4.5397,4.5397,4.5397,4.5397,4.5397,4.5397,4.5397,4.5397,4.5397,4.5397,4.5397,4.5397,4.5397,1.3184,1.3144,1.3127,1.3355,1.3332,1.3355,1.349,1.3664,1.3791,1.3858,1.5086,0.0,0.0,0.0,0.0,0.0,2.2143,2.3163,2.4729,2.5356,2.6199,2.7404,2.7802,2.8243,2.8718,2.8785,2.8897,2.9067,2.8815,2.8773,2.889,2.8811,2.8694,2.852,2.8599,2.8531,2.8369,2.8246,2.8122,2.7954,2.7848,2.7707,2.7569,2.7569,2.7686,2.784,0.0,2.8192,2.8438,2.8651,2.8731,2.8767,2.894,2.9537,3.0503,3.2118,3.2981,3.3515,3.4109,3.4454,3.4637,3.4526,3.5404,3.6262,3.6075,3.7129,3.8097,3.7895,3.8909,4.0018,4.0647,4.1093,4.1853,4.34,4.3809,4.419,4.4941,4.5225,4.5397,4.5397,4.5397,4.5397,4.5397,4.5397,4.5397,4.5397,4.5397,4.5397,4.5397,4.5397,4.5397,4.5397,4.5397,4.5397,4.5397,4.5397,4.5397,4.5397,4.5397,4.5397,4.5397,4.5397,4.5397,4.5397,4.5397,4.5397,4.5397,4.5397,4.5397,4.5397,4.5397,4.5397,4.5397,4.5397,4.5397,4.5397,1.3793,1.3616,1.3546,1.4016,1.3942,0.0,0.0,0.0,0.0,0.0,0.0,0.0,0.0,0.0,0.0,0.0,0.0,2.1986,2.3242,2.411,2.5094,2.6188,2.6891,2.75,2.7962,2.827,2.8522,2.8682,2.8451,2.8389,2.8516,2.8183,2.7926,2.776,2.763,2.745,2.7299,2.7299,2.7592,2.804,2.7506,2.7609,2.8023,2.7489,2.7405,0.0,2.7554,2.7672,2.7886,2.8281,2.8495,2.8681,2.9138,3.0302,3.1763,3.3195,3.4227,3.4922,3.5058,3.5325,3.5531,3.5368,3.6132,3.6898,3.6702,3.7864,3.8977,3.8963,3.9868,4.0849,4.1402,4.1893,4.2618,4.3865,4.4197,4.457,4.5294,4.5397,4.5397,4.5397,4.5397,4.5397,4.5397,4.5397,4.5397,4.5397,4.5397,4.5518,4.5811,4.5828,4.5949,4.6207,4.6207,4.6207,4.6207,4.6207,4.6207,4.6207,4.6207,4.6207,4.6207,4.6207,4.6207,4.6207,4.5931,4.5828,4.5793,4.5518,4.5397,4.5397,4.5397,4.5397,4.5397,4.5397,4.5397,4.5423,1.4184,1.3724,1.3534,0.0,0.0,0.0,0.0,0.0,0.0,0.0,0.0,0.0,0.0,0.0,0.0,0.0,0.0,0.0,2.1507,2.3247,2.4365,2.4592,2.6152,2.7052,2.7088,2.7769,2.8182,2.8218,2.8143,2.8121,2.8156,2.7844,2.7686,2.7672,2.739,2.7283,2.7283,2.7283,2.8077,2.9231,2.7868,2.8144,2.923,2.7833,2.7299,2.7299,2.7299,2.7299,2.7392,2.7911,2.8331,2.8775,2.9603,3.1623,3.3671,3.3484,3.5023,3.6391,3.4646,3.574,3.7145,3.6043,3.6898,3.7844,3.7113,3.8185,3.948,3.9909,4.0362,4.0927,4.1789,4.21,4.2479,4.3259,4.3904,4.457,4.5294,4.5397,4.5397,4.5397,4.5397,4.5397,4.5397,4.5432,4.5466,4.5466,4.5466,4.5811,4.6613,4.6665,4.6993,4.7672,4.7689,4.7689,4.7689,4.7689,4.7689,4.7689,4.7689,4.7689,4.7689,4.7689,4.7689,4.7655,4.6975,4.6665,4.6613,4.5828,4.55,4.5466,4.5466,4.5432,4.5397,4.5397,4.5423,4.5528,0.0,0.0,0.0,0.0,0.0,0.0,0.0,0.0,0.0,0.0,0.0,0.0,0.0,0.0,0.0,0.0,0.0,0.0,2.042,2.1638,2.2593,2.3184,2.4248,2.5076,2.5624,2.5872,2.6355,2.7106,2.6834,2.709,2.7829,2.7542,2.739,2.739,2.7023,2.6858,2.6858,2.6858,2.7079,2.7402,2.7324,2.7523,2.7816,2.7437,2.7299,2.7299,2.7299,2.7299,2.736,2.7686,2.839,2.9295,3.0365,3.1542,3.2877,3.4588,3.51,3.5265,3.597,3.6154,3.6221,3.6513,3.6914,3.7266,3.7506,3.8815,3.9949,3.9884,4.0889,4.1934,4.248,4.2457,4.2797,4.4136,4.4317,4.457,4.5294,4.5397,4.5397,4.5397,4.5397,4.5397,4.5397,4.5931,4.6276,4.6276,4.6276,4.6631,4.7362,4.7414,4.7527,4.7672,4.7689,4.7689,4.7689,4.7689,4.7689,4.7689,4.7689,4.7689,4.7689,4.7689,4.7689,4.77,4.7482,4.7414,4.7396,4.7189,4.6776,4.6276,4.6276,4.5914,4.5397,4.5397,4.5667,4.6062,0.0,0.0,0.0,0.0,0.0,0.0,0.0,0.0,0.0,0.0,0.0,0.0,0.0,0.0,0.0,0.0,0.0,0.0,0.0,2.0377,2.1323,2.2181,2.2882,2.365,2.4507,2.4912,2.5379,2.5942,2.577,2.5888,2.6301,2.6153,2.6249,2.6541,2.6151,2.6253,2.6691,2.6505,2.6638,0.0,0.0,2.6748,2.702,2.6494,2.6281,2.6333,2.6661,2.7006,2.7313,2.7465,2.8438,2.9742,3.0525,3.1776,3.3173,3.4341,3.488,3.5225,3.5961,3.606,3.6075,3.6533,3.6921,3.7266,3.745,3.8868,4.0087,3.9824,4.0901,4.2022,4.245,4.2454,4.2846,4.4207,4.4354,4.457,4.5294,4.5397,4.5397,4.5397,4.5397,4.5535,4.588,4.6355,4.6889,4.7527,4.7286,4.7396,4.8137,4.8172,4.8327,4.8717,4.8717,4.8717,4.8717,4.8717,4.8717,4.8717,4.8717,4.8717,4.8717,4.8717,4.8717,4.87,4.8327,4.8172,4.8183,4.8095,4.7659,4.7151,4.7588,4.7222,4.6477,4.695,4.6933,4.6783,0.0,0.0,0.0,0.0,0.0,0.0,0.0,0.0,0.0,1.6997,1.6811,1.6795,0.0,0.0,0.0,0.0,0.0,0.0,0.0,0.0,2.0347,2.1268,2.1754,2.2487,2.3478,2.4181,2.4643,2.485,2.4807,2.4692,2.4503,2.444,2.4763,2.5372,2.5046,2.5396,2.6253,2.591,2.6169,2.6705,2.5698,2.5778,2.6384,0.0,2.4959,2.5109,2.5835,2.6626,2.7299,2.7299,2.8457,2.9983,3.0328,3.1965,3.375,3.36,3.4546,3.5595,3.5426,3.5839,3.6322,3.6406,3.696,3.7487,3.7301,3.8715,3.9967,3.9763,4.0597,4.1469,4.1826,4.1994,4.2463,4.3538,4.3955,4.4414,4.5139,4.5328,4.5397,4.5397,4.5397,4.5707,4.6527,4.67,4.7338,4.8689,4.8293,4.8275,4.8913,4.8947,4.9275,4.9993,5.0011,5.0011,5.0011,5.0011,5.0011,5.0011,5.0011,5.0011,5.0011,5.0011,5.0011,4.9959,4.924,4.8947,4.8953,4.8845,4.8434,4.7966,4.894,4.8659,4.781,4.8806,4.8504,4.77,0.0,0.0,0.0,0.0,0.0,0.0,0.0,0.0,0.0,0.0,1.8229,1.8258,0.0,0.0,0.0,0.0,0.0,0.0,0.0,0.0,0.0,1.9688,2.0206,2.0956,2.1957,2.2113,2.2785,2.4008,2.3796,2.3954,2.4503,2.4222,2.4162,2.4263,2.3933,2.388,2.4046,2.3977,2.4041,2.4158,2.4216,2.4506,2.4891,2.4683,0.0,0.0,2.5835,2.6626,2.7299,2.7299,2.8331,2.9642,2.9985,3.124,3.2826,3.4038,3.4598,3.5033,3.6009,3.6277,3.6406,3.6836,3.7071,3.7357,3.7945,3.8964,0.0,3.9779,4.0211,4.051,4.027,4.0373,4.0756,4.1556,4.2642,4.3655,4.4397,4.5027,4.5397,0.0,4.5397,4.5707,4.6527,4.7165,4.7862,4.8723,4.9304,4.9666,4.9804,4.9804,4.9873,5.0011,5.0011,5.0011,5.0011,5.0011,5.0011,5.0011,5.0011,5.0011,5.0011,5.0011,5.0011,4.9993,4.9855,4.9804,4.9815,5.0225,4.9697,4.867,4.931,4.8783,4.7782,4.8408,4.8742,4.8948,0.0,0.0,0.0,0.0,0.0,0.0,0.0,1.8757,1.9349,1.9528,1.9576,1.9358,1.8758,1.8409,1.8078,0.0,0.0,0.0,0.0,0.0,0.0,0.0,0.0,0.0,0.0,2.0975,2.1527,2.2664,0.0,2.2507,2.3083,2.2745,2.28,2.3145,2.2812,2.2986,2.3482,2.3274,2.2994,2.2692,2.2997,2.2996,2.287,0.0,0.0,0.0,2.5402,2.6299,2.7299,2.7299,2.8023,2.9022,2.957,3.0524,3.1777,3.3363,3.4096,3.4615,3.5685,3.6191,3.6485,3.6809,3.7031,3.7282,3.772,0.0,0.0,3.9169,3.9498,3.9786,3.9803,3.9682,4.0001,4.1314,4.2183,4.3074,4.4138,4.4941,4.5397,4.5397,4.5397,4.5862,4.7079,4.7482,4.82,4.9327,4.9786,5.0011,5.0011,5.0011,5.0011,5.0011,5.0011,5.0011,5.0011,5.0011,5.0011,5.0011,5.0011,5.0011,5.0011,5.0011,5.0011,5.0011,5.0011,5.0149,5.0453,5.0991,5.0823,5.033,5.1135,5.0574,4.9447,5.055,5.0474,4.9931,0.0,0.0,0.0,0.0,0.0,0.0,0.0,1.955,2.0235,2.0388,2.0441,2.0138,1.9231,1.9009,1.8709,0.0,0.0,0.0,0.0,0.0,0.0,0.0,0.0,0.0,0.0,0.0,0.0,2.1502,2.1336,0.0,0.0,0.0,0.0,0.0,2.1768,2.2122,2.2893,2.2437,2.1916,0.0,0.0,2.1343,0.0,0.0,0.0,0.0,0.0,2.6003,2.733,2.7297,2.771,2.8348,2.9264,3.0076,3.1043,3.2696,3.3564,3.4222,3.5337,3.5956,3.6356,3.665,3.693,3.7152,3.7236,3.7743,3.8206,3.821,3.8342,3.8602,3.9079,3.8865,3.9164,4.0908,4.1602,4.2448,4.3845,4.4699,4.5207,4.538,4.5397,0.0,4.7534,4.7689,4.8355,4.989,5.0011,5.0011,5.0011,5.0011,5.0011,5.0011,5.0011,5.0011,5.0011,5.0011,5.0011,5.0011,5.0011,5.0011,5.0011,5.0011,5.0011,5.0011,5.0011,5.0302,5.083,5.1391,5.1601,5.1694,5.2654,5.2197,5.1131,5.2518,5.2096,5.0982,0.0,0.0,0.0,0.0,0.0,0.0,0.0,1.9291,1.9904,2.0339,2.0405,2.0444,2.0505,2.0035,1.9657,0.0,0.0,0.0,0.0,0.0,0.0,0.0,0.0,0.0,0.0,0.0,0.0,2.1153,2.1537,0.0,0.0,0.0,0.0,0.0,0.0,2.097,2.1018,2.0368,0.0,0.0,0.0,0.0,0.0,0.0,0.0,0.0,0.0,2.6033,2.7376,2.733,2.7426,2.783,2.9242,3.0162,3.1061,3.2914,0.0,3.362,3.5523,3.5811,3.5779,3.6594,3.6811,3.6818,3.6771,0.0,3.6953,3.6892,3.6424,3.6236,3.6959,3.7038,3.7487,3.892,4.0266,4.1635,4.3093,4.3949,4.4647,4.5311,0.0,0.0,4.7534,4.7689,4.8355,4.989,5.0011,5.0011,5.0011,5.0011,5.0011,5.0011,5.0011,5.0011,5.0011,5.0011,5.0011,5.0011,5.0011,5.0011,5.0011,5.0011,5.0011,5.0011,5.0011,5.0302,5.083,5.1391,5.1601,5.1669,5.2226,5.2084,5.1601,5.2244,5.2353,5.2299,0.0,0.0,0.0,0.0,0.0,0.0,1.8407,1.902,1.9475,1.9922,2.0013,2.0168,2.0491,2.0409,2.0193,1.983,0.0,0.0,0.0,0.0,0.0,0.0,0.0,0.0,0.0,0.0,1.9816,2.1096,2.0881,0.0,0.0,0.0,0.0,0.0,0.0,2.0573,2.0178,1.9909,0.0,0.0,0.0,0.0,0.0,0.0,0.0,0.0,0.0,0.0,2.7409,2.7378,2.7421,2.7687,2.8717,2.9554,3.049,3.2214,3.2983,3.3471,3.4304,3.4704,3.5112,3.5996,3.5955,3.5899,3.6601,0.0,3.6475,3.6663,3.6178,3.5783,3.6075,3.6168,3.6656,3.8007,3.949,4.1099,4.2938,4.3828,4.4561,4.5311,4.5397,4.6,4.7534,4.7689,4.8355,4.989,5.0011,5.0011,5.0011,5.0011,5.0011,5.0011,5.0011,5.0011,5.0011,5.0011,5.0011,5.0011,5.0011,5.0011,5.0011,5.0011,5.0011,5.004,5.0331,5.0793,5.1339,5.1866,5.2268,5.2586,5.2806,5.2563,5.2132,5.2676,5.2694,5.2495,0.0,0.0,0.0,0.0,0.0,1.6966,1.8298,1.8745,1.9082,1.9472,1.9675,1.9856,2.0098,2.0306,2.0256,1.9807,1.9107,0.0,0.0,0.0,0.0,0.0,0.0,0.0,0.0,0.0,1.9624,2.0794,2.0567,2.0699,0.0,0.0,2.0794,2.0794,0.0,0.0,0.0,0.0,0.0,0.0,0.0,0.0,0.0,0.0,0.0,0.0,0.0,0.0,0.0,0.0,0.0,2.7694,2.8431,2.9058,2.9857,3.1511,3.2494,3.3124,3.3547,3.3916,3.4402,3.5266,3.5241,3.5206,3.5831,0.0,3.5817,3.5843,3.5392,3.5059,3.5294,3.542,3.5997,3.7558,3.889,4.0538,4.2869,4.3638,4.432,4.5276,4.5604,4.6259,4.7551,4.8103,4.8838,4.9924,5.0011,5.0011,5.0011,5.0011,5.0011,5.0011,5.0011,5.0011,5.0011,5.0011,5.0011,5.0011,5.0011,5.0011,5.0011,5.0011,5.008,5.0263,5.063,5.1184,5.1866,5.2226,5.2717,5.3185,5.3185,5.2955,5.2676,5.306,5.2955,5.2694,0.0,0.0,0.0,0.0,0.0,0.0,1.824,1.85,1.8649,1.9045,1.9453,1.9639,1.953,1.9696,1.9785,1.9711,1.9089,0.0,0.0,0.0,0.0,0.0,0.0,0.0,0.0,0.0,2.041,2.0103,2.089,2.1119,2.0811,2.0794,2.0794,2.0794,0.0,0.0,0.0,0.0,0.0,0.0,0.0,0.0,0.0,0.0,0.0,0.0,0.0,0.0,0.0,0.0,0.0,0.0,0.0,2.8851,2.924,3.1005,3.1837,3.2476,3.3662,3.3756,3.3705,3.4495,3.4925,3.4902,3.4188,3.4485,3.4706,3.399,3.3573,3.3577,3.4374,3.4618,3.5384,3.7453,3.8438,3.9914,4.28,4.3207,4.3776,0.0,4.6086,4.6889,4.762,4.9097,4.9993,5.0011,5.0011,5.0011,5.0011,5.0011,5.0011,5.0011,5.0011,5.0011,5.0011,5.0011,5.0011,5.0011,5.0011,5.0011,5.0011,5.0011,5.0274,5.0776,5.082,5.1416,5.2384,5.2384,5.2717,5.3185,5.3185,5.3185,5.3185,5.3185,5.3185,5.3185,0.0,0.0,0.0,0.0,0.0,0.0,0.0,1.8089,1.8234,1.863,1.8789,1.8974,1.9199,1.9332,1.9354,1.9306,1.8497,0.0,0.0,0.0,0.0,0.0,0.0,0.0,0.0,0.0,2.0477,2.1585,2.163,2.1861,2.225,2.225,2.225,2.2218,2.1775,2.1268,0.0,0.0,0.0,0.0,0.0,0.0,0.0,0.0,0.0,0.0,0.0,0.0,0.0,0.0,0.0,0.0,0.0,0.0,0.0,2.9565,3.0576,3.1722,3.2648,3.2826,3.2932,3.3687,3.3704,3.3599,3.3938,3.4081,3.4087,3.3862,3.3522,3.3378,3.3632,3.4244,3.5192,3.6737,3.8521,4.0521,4.2869,0.0,0.0,4.5276,4.6552,4.7431,4.7672,4.9097,5.0011,5.0011,5.0011,5.0011,5.0011,5.0011,5.0011,5.0011,5.0011,5.0011,5.0011,5.0011,5.0011,5.0011,5.0011,5.0011,4.9993,5.0387,5.063,5.083,5.1594,5.2084,5.2431,5.2783,5.3039,5.3185,5.3185,5.3185,5.3185,5.3185,5.3185,5.3185,0.0,0.0,0.0,0.0,0.0,0.0,0.0,1.7753,1.8003,1.8254,1.8417,1.8572,1.8741,1.8879,1.8884,1.8779,1.8125,0.0,0.0,0.0,0.0,0.0,0.0,0.0,2.0226,2.0318,2.1044,2.241,2.2234,2.2366,2.2828,2.288,2.2898,2.2882,2.2471,2.2028,0.0,0.0,0.0,0.0,0.0,0.0,2.1398,0.0,0.0,0.0,0.0,0.0,0.0,0.0,0.0,0.0,0.0,0.0,0.0,0.0,2.9579,3.0595,3.1817,3.2345,3.2663,3.3123,3.3008,3.2905,3.3309,3.3502,3.3606,3.3606,3.3451,3.3396,3.3704,3.4345,3.5343,3.6809,3.8764,4.0816,4.2904,4.3828,0.0,4.5725,4.6931,4.7793,4.8086,4.9269,5.0011,5.0011,5.0011,5.0011,5.0011,5.0011,5.0011,5.0011,5.0011,5.0011,5.0011,5.0011,5.0011,5.0011,5.0011,5.0109,5.0302,5.0657,5.1026,5.1442,5.2108,5.2499,0.0,5.306,5.3185,5.3185,5.3185,5.3185,5.3185,5.3185,5.3185,5.3185,0.0,0.0,0.0,0.0,0.0,0.0,0.0,1.752,1.7894,1.7834,1.8185,1.8375,1.8248,1.8392,1.8436,1.8268,0.0,0.0,0.0,0.0,0.0,0.0,0.0,0.0,2.0618,2.1321,2.1991,2.2658,2.2741,2.2797,2.2844,2.2986,2.3056,2.3056,2.2993,2.293,0.0,0.0,0.0,0.0,2.0265,2.0854,0.0,0.0,0.0,0.0,0.0,0.0,0.0,0.0,0.0,0.0,0.0,0.0,0.0,0.0,0.0,0.0,0.0,3.2099,3.2692,3.2723,3.2743,3.2718,3.2474,3.285,0.0,3.3334,3.3364,3.3632,3.4446,3.4939,3.5811,3.7557,3.919,4.0938,4.2904,4.388,0.0,4.6424,4.7241,4.7982,4.8723,4.9545,5.0011,5.0011,5.0011,5.0011,5.0011,5.0011,5.0011,5.0011,5.0011,5.0011,5.0011,5.0011,5.0011,5.0011,5.0011,5.0274,5.0803,5.083,5.1398,5.2408,5.2431,5.2739,5.3185,5.3185,5.3185,5.3185,5.3185,5.3185,5.3185,5.3185,5.3185,5.3185,0.0,0.0,0.0,0.0,0.0,0.0,0.0,0.0,0.0,0.0,1.7522,1.7903,1.838,1.8475,1.8611,0.0,0.0,0.0,0.0,0.0,0.0,0.0,0.0,0.0,2.1928,2.2115,2.2586,2.3363,2.3478,2.3802,2.43,2.4437,2.4495,2.4479,2.3923,2.3085,0.0,0.0,0.0,0.0,2.1582,2.1925,0.0,0.0,0.0,0.0,2.5347,2.6374,0.0,0.0,0.0,0.0,0.0,0.0,0.0,0.0,2.8611,2.9419,3.0057,0.0,3.1622,3.1827,3.2178,3.2473,0.0,3.2654,3.3084,3.3713,3.4042,3.4461,3.5258,3.6162,3.7088,3.8025,4.0154,4.2057,4.3059,4.432,0.0,4.6493,4.7241,4.7982,4.8723,4.9545,5.0011,5.0011,5.0011,5.0011,5.0011,5.0011,5.0011,5.0011,5.0011,5.0011,5.0011,5.0011,5.0011,5.0011,5.0011,5.0274,5.0803,5.1236,5.1775,5.2408,5.2828,5.3082,5.3185,5.3185,5.3185,5.3185,5.3185,5.3185,5.3185,5.3185,5.3185,5.3185,0.0,0.0,0.0,0.0,0.0,0.0,0.0,0.0,0.0,0.0,0.0,1.8361,1.8741,1.8489,0.0,0.0,0.0,0.0,0.0,0.0,0.0,0.0,0.0,2.1723,2.2794,2.2883,2.3227,2.3925,2.4159,2.4406,2.4706,2.4906,2.5005,2.497,2.459,2.389,0.0,0.0,0.0,2.2227,2.1916,0.0,0.0,0.0,0.0,0.0,2.5388,2.6384,0.0,2.7701,2.7701,2.7701,0.0,0.0,0.0,0.0,2.8147,2.871,2.9096,3.0288,3.1501,3.176,3.212,3.2406,3.2406,3.2771,3.3293,3.3887,3.4408,3.513,3.6231,3.6916,3.7791,3.9277,4.1052,4.2673,0.0,0.0,4.569,4.651,4.7241,4.7982,4.8723,4.9545,5.0011,5.0011,5.0011,5.0011,5.0011,5.0011,5.0011,5.0011,5.0011,5.0011,5.0011,5.0011,5.0011,5.0011,5.0011,5.0415,5.1184,5.1467,5.2036,5.2783,5.306,5.3185,5.3185,5.3185,5.3185,5.3185,5.3185,5.3185,5.3185,5.3185,5.3185,5.3185,0.0,0.0,0.0,0.0,0.0,0.0,0.0,0.0,0.0,0.0,0.0,0.0,0.0,0.0,0.0,0.0,0.0,0.0,0.0,0.0,0.0,0.0,0.0,2.2782,2.346,2.3683,2.4044,2.4498,2.4911,2.5075,2.4942,2.5091,2.5096,2.5005,2.5048,2.4862,0.0,0.0,2.2925,2.3296,2.1993,0.0,0.0,0.0,0.0,0.0,0.0,0.0,0.0,2.7701,2.7701,2.7701,2.7701,0.0,0.0,0.0,0.0,0.0,2.8324,2.9946,3.1571,3.1849,3.2159,3.2423,3.2529,3.3038,3.3635,3.416,3.4886,3.5847,3.7213,3.7743,3.8642,4.0751,4.1914,4.3202,4.513,4.5397,4.5742,4.6665,4.7338,4.8034,4.8896,4.9614,5.0011,5.0011,5.0011,5.0011,5.0011,5.0011,5.0011,5.0011,5.0011,5.0011,5.0011,5.0011,5.0011,5.0011,5.0011,5.0564,5.1601,5.1601,5.2197,5.3185,5.3185,5.3185,5.3185,5.3185,5.3185,5.3185,5.3185,5.3185,5.3185,5.3185,5.3185,5.3185,0.0,0.0,0.0,0.0,0.0,0.0,0.0,0.0,0.0,0.0,0.0,0.0,0.0,0.0,0.0,0.0,0.0,0.0,0.0,0.0,0.0,0.0,2.2713,2.3511,2.4307,2.4885,2.5289,2.5482,2.6219,2.6581,2.6543,2.6073,2.5555,2.5005,2.5307,2.5075,2.4488,2.4198,2.3857,2.3448,2.2867,0.0,0.0,0.0,0.0,0.0,0.0,0.0,0.0,2.7701,2.7701,2.7701,2.7701,0.0,0.0,0.0,0.0,0.0,2.8139,2.9401,3.0755,3.1026,3.1751,3.2564,3.3196,3.3424,3.388,3.5235,3.6286,3.7233,3.8157,3.9749,4.1059,4.1464,4.2901,4.4311,4.5259,4.5397,4.5931,4.7345,4.762,4.8269,4.9683,4.9942,5.0011,5.0011,5.0011,5.0011,5.0011,5.0011,5.0011,5.0011,5.0011,5.0011,5.0011,5.0011,5.0011,5.0011,5.0011,5.0564,5.1601,5.1601,5.2197,5.3185,5.3185,5.3185,5.3185,5.3185,5.3185,5.3185,5.3185,5.3185,5.3185,5.3185,5.3185,5.3185,0.0,0.0,0.0,0.0,0.0,0.0,0.0,0.0,0.0,0.0,0.0,0.0,0.0,0.0,0.0,0.0,0.0,0.0,0.0,0.0,0.0,2.2921,2.3602,2.4132,2.4498,2.4839,2.5243,2.5717,2.6193,2.6582,2.6879,2.6511,2.5954,2.5288,2.5652,2.5763,2.5661,2.5194,2.4751,2.4313,0.0,0.0,0.0,0.0,0.0,0.0,0.0,0.0,0.0,0.0,2.7701,2.7701,2.7701,0.0,0.0,0.0,0.0,0.0,2.8596,2.9491,3.0533,3.1564,3.2377,3.3124,3.3878,3.4628,3.5374,3.609,3.7256,3.8512,3.9645,4.0639,4.1661,4.2845,4.41,4.501,4.5345,4.5759,4.6448,4.7551,4.8034,4.8723,4.989,5.0011,5.0011,5.0011,5.0011,5.0011,5.0011,5.0011,5.0011,5.0011,5.039,5.0597,5.0597,5.0994,5.0804,4.9993,5.0274,5.083,5.1619,5.1915,5.2454,5.3185,5.3185,5.3185,5.3185,5.3185,5.3185,5.3185,5.3185,5.3185,5.3185,5.3185,5.3185,5.3185,0.0,0.0,0.0,0.0,0.0,0.0,0.0,0.0,0.0,0.0,0.0,0.0,0.0,0.0,0.0,0.0,0.0,0.0,0.0,0.0,2.2709,2.3483,2.4166,2.4539,2.4559,2.4765,2.5248,2.6031,2.6335,2.6688,2.7063,2.7022,2.6512,2.567,2.6052,2.6402,2.6657,2.5959,2.5548,2.5308,0.0,0.0,0.0,0.0,0.0,0.0,0.0,0.0,0.0,0.0,0.0,0.0,0.0,0.0,0.0,2.7701,2.7883,2.8235,2.9015,2.9953,3.1079,3.2451,3.3108,3.3701,3.4746,3.5839,3.6737,3.7064,3.8347,3.9706,4.0816,4.141,4.2365,4.4259,4.5044,4.5397,4.5397,4.6086,4.6889,4.7603,4.8344,4.9103,4.9924,5.0011,5.0011,5.0011,5.0011,5.0011,5.0011,5.0166,5.0269,5.0269,5.0976,5.1373,5.1373,5.1912,5.1605,5.0437,5.0864,5.1308,5.1817,5.2203,5.2676,5.3185,5.3185,5.3185,5.3185,5.3185,5.3185,5.3185,5.3185,5.3185,5.3185,5.3185,5.3185,5.3185,0.0,0.0,0.0,0.0,0.0,0.0,0.0,0.0,0.0,0.0,0.0,0.0,0.0,0.0,0.0,0.0,0.0,0.0,0.0,0.0,2.2883,2.3565,2.4231,2.4645,2.4782,2.5398,2.6136,2.6998,2.7636,2.78,2.7558,2.7988,2.7406,2.607,2.6487,2.6674,2.6674,2.6308,2.6157,2.6156,2.546,0.0,0.0,0.0,0.0,0.0,0.0,0.0,0.0,0.0,0.0,0.0,0.0,0.0,2.7701,2.7701,2.8399,2.9162,2.8984,3.0733,3.2741,3.3301,3.3459,3.4019,3.6011,3.6623,3.717,3.8477,3.9862,4.0862,4.0984,4.2694,4.4345,4.5173,4.5363,4.5397,4.5397,4.6086,4.6889,4.7603,4.8344,4.9103,4.9924,5.0011,5.0011,5.0011,5.0011,5.0011,5.0011,5.0666,5.1028,5.1028,5.1722,5.2101,5.2101,5.2153,5.2055,5.1773,5.1801,5.1988,5.2338,5.2384,5.2676,5.3185,5.3185,5.3185,5.3185,5.3185,5.3185,5.3185,5.3185,5.3185,5.3185,5.3185,5.3185,5.3185,0.0,0.0,0.0,0.0,0.0,0.0,0.0,0.0,0.0,0.0,0.0,0.0,0.0,0.0,0.0,0.0,0.0,0.0,0.0,2.1666,2.3123,2.4304,2.4601,2.4786,2.4922,2.5078,2.5806,2.7099,2.8483,2.8763,2.8037,2.846,2.7896,2.6487,2.694,2.7137,2.7119,2.7028,2.6782,2.6403,2.6149,2.5424,0.0,0.0,0.0,0.0,0.0,0.0,0.0,0.0,2.8021,2.8152,2.797,2.8038,2.8152,2.7992,2.8729,2.9619,2.9631,3.116,3.308,3.4511,3.5206,3.5867,3.707,3.8069,3.9016,3.9945,4.0931,4.1909,4.2876,4.4104,4.5096,4.5345,4.5397,4.5569,4.6069,4.6793,4.7579,4.8293,4.9051,4.9683,4.9976,5.0011,5.0011,5.0011,5.0011,5.02,5.0666,5.0959,5.1321,5.1757,5.2546,5.2959,5.2959,5.3408,5.3734,5.3876,5.3362,5.3141,5.3155,5.349,5.3474,5.3185,5.3185,5.3185,5.3185,5.3185,5.3185,5.3185,5.3185,5.3185,5.3185,5.3185,5.3185,5.3185,0.0,0.0,0.0,0.0,0.0,0.0,0.0,0.0,0.0,0.0,0.0,0.0,0.0,0.0,0.0,0.0,0.0,0.0,2.0483,2.1894,2.3327,2.4799,2.4862,2.4922,2.5005,2.5009,2.5767,2.7301,2.9246,2.963,2.8515,2.8887,2.8304,2.6891,2.7249,2.7392,2.7392,2.7252,2.7107,2.6957,2.6739,2.6025,0.0,0.0,0.0,0.0,0.0,0.0,0.0,0.0,2.7985,2.8136,2.8221,2.836,2.8507,2.8488,2.9201,3.0068,3.0341,3.2014,3.3988,3.5311,3.6771,3.799,3.8382,3.9428,4.0487,4.1125,4.205,4.3138,4.4406,4.5061,4.5397,4.5397,4.5604,4.5966,4.6527,4.7431,4.8224,4.8741,4.9499,5.0011,5.0011,5.0011,5.0011,5.0011,5.0011,5.0338,5.108,5.1338,5.1804,5.2532,5.3356,5.3753,5.3753,5.4253,5.483,5.5473,5.492,5.4504,5.4223,5.4616,5.4344,5.3592,5.3592,5.3424,5.3185,5.3185,5.3185,5.3185,5.3185,5.3185,5.3185,5.3185,5.3185,5.3185,0.0,0.0,0.0,0.0,0.0,0.0,0.0,0.0,0.0,0.0,0.0,0.0,0.0,0.0,0.0,0.0,0.0,0.0,2.0615,2.2086,2.3531,2.4938,2.5005,2.5005,2.5005,2.5346,2.6234,2.7697,2.9972,3.0323,2.8904,2.9299,2.8713,2.7297,2.7378,2.7392,2.7373,2.6772,2.7088,2.7956,2.7255,2.6679,2.6204,0.0,0.0,0.0,0.0,0.0,0.0,0.0,2.6859,2.7362,2.7617,2.8074,2.8598,2.915,2.9857,3.0587,3.1002,3.3387,3.5754,3.5577,3.7917,4.0223,3.9978,4.0591,4.1354,4.1902,4.3241,4.4527,4.5259,4.5397,4.5397,4.5397,4.6069,4.6613,4.6613,4.7862,4.8792,4.881,4.9499,5.0011,5.0011,5.0011,5.0011,5.0011,5.0011,5.0338,5.108,5.1791,5.2597,5.3391,5.4132,5.4512,5.4512,5.4512,5.5122,5.6303,5.6303,5.6075,5.5614,5.5614,5.517,5.4418,5.4399,5.3959,5.3203,5.3185,5.3185,5.3185,5.3185,5.3185,5.3185,5.3185,5.3185,5.3185,0.0,0.0,0.0,0.0,0.0,0.0,0.0,0.0,0.0,0.0,0.0,0.0,0.0,0.0,0.0,0.0,0.0,0.0,2.0682,2.2106,2.3531,2.4938,2.5227,2.5349,2.5349,2.6512,2.732,2.7771,2.8981,2.9219,2.8562,2.868,2.8213,2.7297,2.7421,2.7587,2.7722,2.7055,2.7393,2.8242,2.6897,2.6378,2.6348,0.0,0.0,0.0,0.0,0.0,0.0,0.0,0.0,0.0,2.7956,2.8508,2.913,2.9113,3.0186,3.1417,3.1439,3.3413,3.5741,3.6958,3.8272,3.9641,4.1163,4.17,4.2237,4.3387,4.4389,4.5147,4.5363,4.5397,4.5397,4.5397,4.6069,4.6786,4.732,4.8189,4.8999,4.9597,4.9855,5.0011,5.0011,5.0011,5.0011,5.0011,5.0493,5.1114,5.1808,5.2632,5.3391,5.4149,5.4391,5.4512,5.4512,5.4512,5.5122,5.6303,5.6303,5.6363,5.6436,5.6436,5.6014,5.5207,5.4638,5.4252,5.4014,5.3424,5.3185,5.3185,5.3185,5.3185,5.3185,5.3185,5.3185,5.3185,0.0,0.0,0.0,0.0,0.0,0.0,0.0,0.0,0.0,0.0,1.6289,1.6342,0.0,0.0,0.0,0.0,0.0,0.0,2.0304,2.1695,2.3158,2.4726,2.526,2.5652,2.5962,2.689,2.7436,2.7589,2.8629,2.8887,2.8403,2.8531,2.8211,2.7496,2.776,2.7954,2.8049,2.7386,2.7729,2.8567,2.6959,2.6435,2.6571,0.0,0.0,0.0,0.0,0.0,0.0,0.0,0.0,0.0,2.8003,2.869,2.94,2.94,3.0416,3.1617,3.1842,3.3696,3.5954,3.7434,3.8525,3.9823,4.2078,4.2822,4.3368,4.4501,4.5096,4.5397,4.5397,4.5397,4.55,4.5811,4.6517,4.7276,4.8017,4.8775,4.9476,4.9942,5.0011,5.0011,5.0011,5.0011,5.0011,5.0011,5.0683,5.1412,5.2153,5.2977,5.3736,5.4494,5.4512,5.4512,5.4512,5.4512,5.4987,5.5943,5.5943,5.6161,5.6618,5.706,5.684,5.6014,5.4895,5.4399,5.4344,5.3537,5.3185,5.3185,5.3185,5.3185,5.3185,5.3185,5.3185,5.3185,0.0,0.0,0.0,0.0,0.0,0.0,0.0,0.0,0.0,1.6208,1.633,1.6396,0.0,0.0,0.0,1.662,1.7286,1.8282,1.9671,2.1017,2.2537,2.4259,2.5074,2.5863,2.6623,2.6741,2.6957,2.7299,2.8677,2.9005,2.8331,2.8675,2.8485,2.7844,2.8224,2.8402,2.8391,2.7713,2.8037,2.8897,2.7272,2.6787,2.6907,2.6033,0.0,0.0,0.0,0.0,0.0,0.0,0.0,0.0,2.7761,2.8635,2.9474,2.9831,3.0557,3.1419,3.2154,3.4094,3.6191,3.7251,3.8874,4.0735,4.2748,4.3828,4.4578,4.5259,4.5397,4.5397,4.5397,4.5466,4.5742,4.6493,4.7286,4.8017,4.8706,4.9482,5.0011,5.0011,5.0011,5.0011,5.0011,5.0011,5.0011,5.0011,5.0752,5.1511,5.2153,5.3046,5.3822,5.4494,5.448,5.448,5.448,5.448,5.479,5.5355,5.5385,5.5733,5.633,5.7425,5.751,5.6708,5.52,5.4484,5.4344,5.361,5.328,5.3185,5.3185,5.3185,5.3185,5.3185,5.3185,5.3185,0.0,0.0,0.0,0.0,0.0,0.0,0.0,0.0,1.6344,1.6303,1.6409,1.6474,1.6474,1.6541,0.0,1.6892,1.7395,1.8231,1.9474,2.0727,2.1908,2.3031,2.4647,2.5729,2.6227,2.7057,2.7432,2.7299,2.7825,2.8017,2.7874,2.8188,2.8281,2.8116,2.8316,2.8522,2.8676,2.7931,2.8287,2.9167,2.7498,2.7239,2.7687,2.6238,2.5977,0.0,0.0,0.0,0.0,0.0,0.0,0.0,2.7092,2.8189,2.9423,2.9498,3.0516,3.1648,3.1935,3.3646,3.5723,3.722,4.0049,4.261,4.3086,4.4216,4.5207,4.5363,4.5397,4.5397,4.5397,4.5914,4.6406,4.6579,4.7689,4.862,4.8775,4.9482,5.0011,5.0011,5.0011,5.0011,5.0011,5.0011,5.0011,5.0011,5.1205,5.2015,5.2188,5.3529,5.4339,5.4494,5.4335,5.4254,5.4254,5.4254,5.4568,5.5189,5.5325,5.5733,5.633,5.6989,5.7127,5.6763,5.5931,5.5121,5.4399,5.4216,5.3775,5.3185,5.3185,5.3185,5.3185,5.3185,5.3185,5.3185,0.0,0.0,0.0,0.0,0.0,0.0,0.0,0.0,1.6811,1.6359,1.662,1.6956,1.7239,1.7416,0.0,0.0,1.8163,1.8502,1.9491,2.0113,2.119,2.2915,2.4457,2.5607,2.6315,2.6892,2.7332,2.7686,2.7986,2.7986,2.7716,2.8075,2.8329,2.8453,2.8749,2.8955,2.906,2.8687,2.8865,2.9285,2.7984,2.7724,2.7966,2.6739,2.6535,2.6851,2.6423,0.0,0.0,0.0,0.0,0.0,0.0,0.0,2.9396,2.9365,3.0483,3.1751,3.1946,3.3553,3.5652,3.76,4.0642,4.3189,4.3189,4.4337,4.5397,4.5397,4.5397,4.5397,4.5397,4.6052,4.6734,4.7079,4.8051,4.893,4.9309,4.9752,5.0011,5.0011,5.0011,5.0011,5.0011,5.0011,5.0011,5.0011,5.136,5.2188,5.2188,5.3667,5.4512,5.4512,5.4399,5.4303,5.419,5.4303,5.4428,5.4658,5.4878,5.5284,5.5887,5.6713,5.7048,5.6908,5.6502,5.6022,5.55,5.473,5.4161,5.3739,5.3353,5.3185,5.3185,5.3185,5.3185,5.3185,0.0,0.0,0.0,0.0,0.0,0.0,0.0,0.0,0.0,1.6553,1.7026,1.7613,1.8114,1.8499,1.898,0.0,0.0,0.0,1.9506,1.9504,2.0478,2.2753,2.3904,2.4959,2.6014,2.6364,2.6982,2.7888,2.8358,2.8339,2.7858,2.8264,2.8566,2.8814,2.9214,2.9396,2.9396,2.9396,2.9396,2.9341,2.8616,2.8319,2.8244,2.7427,2.7204,2.7315,2.7167,2.7111,2.7111,2.7111,0.0,0.0,0.0,0.0,2.9386,2.9334,3.035,3.156,3.1864,3.3599,3.5847,3.8121,4.0769,4.2861,4.3138,4.4234,4.5242,4.5363,4.5397,4.5397,4.5397,4.6155,4.6993,4.7586,4.843,4.9223,4.9907,5.0011,5.0011,5.0011,5.0011,5.0011,5.0011,5.0011,5.0062,5.0183,5.1459,5.2239,5.2377,5.3753,5.448,5.4448,5.4448,5.4303,5.4143,5.4303,5.4335,5.4175,5.4399,5.4759,5.5284,5.6447,5.6997,5.708,5.6919,5.6823,5.6712,5.5372,5.4656,5.4326,5.3683,5.3314,5.3185,5.3185,5.3185,5.3185,0.0,0.0,0.0,0.0,0.0,0.0,0.0,0.0,0.0,0.0,1.7802,1.8356,1.8443,1.9103,1.9683,2.0018,1.9094,1.8746,1.9298,0.0,0.0,2.1011,2.186,2.2792,2.3809,2.5416,2.6517,2.7063,2.8088,2.8563,2.8487,2.8892,2.9134,2.9229,2.9355,2.9396,2.9396,2.9396,2.9396,2.9378,2.9266,2.9229,2.9118,2.8263,2.8412,2.8969,2.8207,2.7947,2.7947,2.7947,2.8003,0.0,0.0,0.0,2.9396,2.9386,2.9993,3.0752,3.1205,3.3472,3.6258,3.8537,4.0167,4.1567,4.2896,4.3845,4.463,4.5259,4.5397,4.5397,4.5397,4.6569,4.7569,4.7672,4.8907,4.989,4.9993,5.0011,5.0011,5.0011,5.0011,5.0011,5.0011,5.0011,5.0269,5.0925,5.1752,5.2511,5.3201,5.4046,5.4399,5.4239,5.411,5.398,5.3783,5.398,5.4045,5.4013,5.4353,5.4526,5.4665,5.5858,5.666,5.7116,5.7082,5.6951,5.6785,5.6583,5.5666,5.4399,5.4289,5.3812,5.3185,5.3185,5.3185,5.3185,0.0,0.0,0.0,0.0,0.0,0.0,0.0,0.0,0.0,0.0,0.0,1.9022,1.9362,2.0213,2.0811,2.093,2.0096,1.9307,1.8713,1.9182,1.9639,2.0068,2.0921,2.2098,2.3595,2.4436,2.5697,2.7399,2.7911,2.8424,2.8945,2.9123,2.9229,2.9251,2.9347,2.9396,2.9396,2.9396,2.9396,2.9396,2.9396,2.9396,2.9359,2.8969,2.9062,2.9341,2.8969,2.882,2.882,2.882,2.882,2.882,2.882,0.0,0.0,0.0,2.9951,3.0946,3.2697,3.4589,3.6571,3.8679,4.0055,4.1309,4.2844,4.3776,4.4518,4.5242,4.5397,4.5397,4.5397,4.631,4.7234,4.762,4.8603,4.9493,4.9942,5.0011,5.0011,5.0011,5.0011,5.0011,5.0011,5.0011,5.0131,5.0476,5.1533,5.2343,5.2718,5.3856,5.4399,5.4207,5.4239,5.4078,5.37,5.3963,5.4078,5.398,5.4143,5.4382,5.4772,5.5698,5.6322,5.6704,5.7327,5.7549,5.7446,5.6987,5.6381,5.5666,5.4748,5.4179,5.383,5.3369,5.3185,5.3185,0.0,0.0,0.0,0.0,0.0,0.0,0.0,0.0,0.0,0.0,0.0,1.939,1.9841,0.0,0.0,0.0,2.0609,1.9674,1.8429,1.9001,1.9402,1.9452,2.0121,2.1275,2.2923,2.3388,2.4681,2.6898,2.7504,2.8184,2.8872,2.9097,2.92,2.924,2.9355,2.9396,2.9396,2.9396,2.9396,2.9396,2.9396,2.9396,2.9396,2.9396,2.9386,2.9394,2.9638,2.9553,2.9413,2.9638,2.9564,2.9396,2.9396,2.9396,0.0,0.0,0.0,3.1121,3.3583,3.5056,3.6378,3.8282,3.9643,4.0868,4.2282,4.3345,4.4242,4.4975,4.5259,4.5397,4.5397,4.6052,4.6786,4.731,4.8189,4.8999,4.9631,4.9873,5.0011,5.0011,5.0011,5.0011,5.0011,5.0011,5.008,5.0269,5.1476,5.2274,5.2481,5.3787,5.4399,5.4207,5.4335,5.4207,5.3783,5.3996,5.411,5.398,5.398,5.4254,5.4707,5.5565,5.6047,5.6231,5.7425,5.7927,5.7849,5.7286,5.6942,5.6612,5.5222,5.4583,5.4308,5.35,5.3185,5.3185,0.0,0.0,0.0,0.0,0.0,0.0,0.0,0.0,0.0,0.0,0.0,1.9309,1.9332,2.0015,2.0463,2.0463,1.9961,1.9389,1.8806,1.8806,1.8905,1.9026,1.9071,0.0,2.0651,2.2236,2.3474,2.4392,2.6667,2.7857,2.7985,2.8816,2.924,2.9302,2.9376,2.9396,2.9396,2.9396,2.9396,2.9396,2.9396,2.9396,2.9396,2.9396,2.9365,2.9405,3.023,3.0015,2.9424,3.0248,3.0028,2.9396,2.9396,2.9396,2.9396,0.0,0.0,0.0,3.2556,3.3925,3.5309,3.713,3.8484,3.968,4.077,4.2189,4.3465,4.4207,4.4906,4.5397,4.5397,4.6052,4.6613,4.6665,4.7844,4.881,4.8844,4.9528,5.0011,5.0011,5.0011,5.0011,5.0011,5.0011,5.0304,5.0994,5.174,5.2515,5.3304,5.408,5.4399,5.4207,5.419,5.4143,5.398,5.4013,5.403,5.398,5.398,5.4013,5.411,5.529,5.5823,5.5907,5.7234,5.7745,5.7625,5.7708,5.7298,5.653,5.5823,5.506,5.4308,5.35,5.3185,5.3185,0.0,0.0,0.0,0.0,0.0,0.0,0.0,0.0,0.0,0.0,0.0,0.0,0.0,2.1876,2.1935,2.0943,1.9772,1.9008,1.8807,1.8878,1.8947,1.9006,1.9121,1.9593,2.0484,2.1098,2.2309,2.419,2.5064,2.6041,2.7134,2.7481,2.7968,2.8567,2.9145,2.9396,2.9396,2.9396,2.9396,2.9434,2.9911,3.0112,3.0168,3.0624,3.0794,3.0819,3.1184,3.1102,3.0813,3.0657,3.04,3.0084,2.9564,2.9396,2.9396,2.9396,2.9973,3.0935,3.2487,3.3419,3.4601,3.724,3.786,3.8427,4.0747,4.1522,4.2206,4.3949,4.4518,4.4837,4.5311,4.5638,4.5983,4.6527,4.7044,4.7707,4.8654,4.9034,4.9441,4.9942,5.0011,5.0011,5.0011,5.0011,5.0114,5.0373,5.1097,5.1839,5.2597,5.3373,5.3917,5.419,5.419,5.4061,5.3816,5.3734,5.3685,5.3685,5.3685,5.3882,5.4299,5.5196,5.5794,5.6166,5.7127,5.7559,5.7601,5.7649,5.7556,5.7298,5.6539,5.5801,5.506,5.4271,5.3647,5.3185,0.0,0.0,0.0,0.0,0.0,0.0,0.0,0.0,2.098,2.146,0.0,0.0,0.0,0.0,2.2583,2.1345,2.0054,1.9318,1.9371,1.9203,1.9097,1.9097,1.9235,1.9546,2.0089,2.0364,2.1447,2.3391,2.3943,2.4948,2.6394,2.6652,2.7267,2.8193,2.8739,2.9118,2.9396,2.9396,2.9564,2.9842,3.0305,3.0683,3.1021,3.1767,3.2039,3.2076,3.2383,3.2327,3.2001,3.151,3.1162,3.0832,3.0015,2.9609,2.9396,2.9396,2.9768,3.0482,3.1781,3.2724,3.3844,3.6027,3.6982,3.7925,3.9912,4.0742,4.1544,4.318,4.3949,4.4466,4.4941,4.5225,4.5569,4.6104,4.6424,4.6958,4.7913,4.8258,4.8706,4.951,4.9614,4.9717,4.9976,5.0011,5.0011,5.0011,5.0683,5.1291,5.1791,5.2839,5.3642,5.4173,5.419,5.4028,5.37,5.3601,5.3551,5.3501,5.3501,5.3816,5.4422,5.5137,5.5766,5.6339,5.7069,5.7431,5.7461,5.7559,5.7649,5.7671,5.6955,5.6241,5.5482,5.4693,5.3904,5.3185,0.0,0.0,0.0,0.0,0.0,0.0,0.0,0.0,2.2493,2.2511,0.0,0.0,0.0,0.0,0.0,2.1669,2.0871,2.0424,2.0568,1.9803,1.9334,1.9334,1.9315,1.9297,1.9297,2.0071,2.0878,2.1757,2.3355,2.4681,2.5721,2.6357,2.7213,2.8258,2.8146,2.858,2.9407,2.9407,2.9861,3.0604,3.0546,3.1058,3.1949,3.2678,3.2975,3.3087,3.3895,3.3623,3.2896,3.289,3.2372,3.1617,3.0765,3.0012,2.9434,2.9407,2.9396,2.9582,0.0,0.0,0.0,3.3414,3.5833,3.8104,3.8107,3.9796,4.1518,4.1888,4.3172,4.4233,4.4259,4.4872,4.5363,4.5363,4.6035,4.6579,4.6613,4.7234,4.7931,4.8672,4.8758,4.9068,4.989,4.9959,4.9976,5.0011,5.0666,5.1097,5.1114,5.2563,5.3625,5.4139,5.419,5.4028,5.3717,5.37,5.3634,5.3501,5.3501,5.3816,5.4422,5.5069,5.5733,5.6339,5.7069,5.7313,5.7232,5.7486,5.7601,5.7534,5.702,5.6345,5.5559,5.473,5.394,5.3222,0.0,0.0,0.0,0.0,0.0,2.2465,2.3325,2.4082,2.4774,0.0,0.0,0.0,2.5458,2.492,2.4503,2.4351,2.306,2.2264,2.2309,2.097,2.0162,2.0162,1.9601,1.9297,1.9297,1.9517,2.0042,2.0859,2.1983,2.299,2.3864,2.481,2.6059,2.7513,2.757,2.8327,2.9532,2.945,2.9861,3.0631,3.1113,3.2138,3.3469,3.4165,3.4806,3.5391,3.5666,3.5611,3.5321,3.4734,3.4004,3.3032,3.1113,3.0383,3.014,2.9564,2.9396,2.9582,3.0381,0.0,0.0,0.0,0.0,0.0,3.7683,3.8326,3.9173,4.1203,4.1986,4.2538,4.3343,4.4121,4.4596,4.4596,4.5251,4.5931,4.6527,4.6786,4.7172,4.7913,4.8,4.8293,4.9051,4.912,4.9361,4.9959,5.02,5.0545,5.108,5.2563,5.3352,5.319,5.3755,5.3882,5.3551,5.3551,5.3534,5.3501,5.3501,5.3816,5.4422,5.5069,5.5733,5.6339,5.6966,5.7307,5.7356,5.7528,5.7649,5.7726,5.7577,5.7079,5.6363,5.5556,5.4748,5.3977,0.0,0.0,2.0714,2.142,2.2621,2.3768,2.4585,2.5668,2.6568,0.0,0.0,0.0,2.7145,2.6374,2.5907,2.5907,2.474,2.4006,2.4006,2.2456,2.1391,2.107,2.026,1.9687,1.9349,1.9372,1.9784,2.0586,2.1515,2.2441,2.3336,2.4291,2.5676,2.7358,2.7293,2.8144,2.9608,2.9824,3.0363,3.1188,3.2199,3.3407,3.4681,3.569,3.643,3.6936,3.7282,3.7421,3.7307,3.6449,3.5178,3.3725,3.2421,3.1543,3.0873,3.0129,2.9866,2.9842,3.0004,3.0624,3.1517,3.2723,0.0,0.0,3.6882,3.7539,3.8201,3.9927,4.1073,4.1855,4.2189,4.3234,4.4036,4.387,4.4628,4.5441,4.6036,4.6086,4.6362,4.7165,4.7251,4.7517,4.8258,4.8327,4.8654,4.9459,4.951,4.9976,5.1045,5.1959,5.2564,5.2802,5.3263,5.351,5.3501,5.3501,5.3501,5.3501,5.375,5.422,5.4826,5.5484,5.6101,5.6706,5.7163,5.7412,5.7504,5.7697,5.7768,5.781,5.7862,5.7432,5.6712,5.5886,5.5078,5.4289,0.0,0.0,2.1164,2.2841,2.3878,2.474,2.554,2.6953,2.7934,0.0,2.8558,2.873,2.8007,2.7291,2.6859,2.6859,2.6127,2.5668,2.5668,2.4153,2.2905,2.2106,2.1295,2.0447,1.9545,1.959,1.9933,2.0585,2.1503,2.248,2.3467,2.4306,2.5727,2.7566,2.7285,2.8067,2.9655,3.0472,3.1224,3.2038,3.3432,3.467,3.5827,3.721,3.7808,3.8036,3.8788,3.908,3.9014,3.8088,3.6291,3.4428,3.4362,3.3266,3.1849,3.1069,3.0709,3.036,2.9632,2.9917,3.0597,3.1353,3.2687,0.0,3.575,3.692,3.781,3.8304,4.0137,4.1449,4.0781,4.2195,4.3384,4.3117,4.4041,4.4949,4.5304,4.5485,4.5823,4.6559,4.6645,4.6913,4.7592,4.7662,4.7945,4.8648,4.8741,4.943,5.0907,5.108,5.1567,5.2528,5.2716,5.2966,5.3365,5.3467,5.3501,5.3501,5.4106,5.4765,5.5414,5.6045,5.6635,5.7257,5.7486,5.7601,5.7649,5.7881,5.7927,5.7839,5.795,5.7556,5.684,5.6033,5.5207,5.4418,2.0346,2.1061,2.2061,2.3676,2.5181,2.641,2.721,2.8154,2.8767,2.8767,2.8895,2.895,2.8785,2.8638,2.8528,2.8528,2.7805,2.7339,2.7339,2.5833,2.4566,2.3768,2.2969,2.1848,2.0399,2.0389,2.0196,1.9808,2.069,2.1623,2.2577,2.3542,2.5235,2.7428,2.7478,2.829,2.9711,3.1355,3.2308,3.2753,3.3647,3.5401,3.7567,3.8232,3.8903,3.9562,4.0357,4.0666,4.0538,3.9714,3.8716,3.7617,3.6284,3.5237,3.4225,3.2791,3.1893,3.1203,3.0476,3.0324,3.0438,3.0611,3.1837,0.0,3.4101,3.5048,3.6002,0.0,3.8043,3.8851,3.9018,4.0382,4.1665,4.2221,4.3062,4.3983,4.4955,4.5964,4.6661,4.682,4.6838,4.6989,4.734,4.7377,4.7526,4.79,4.8448,4.9206,5.0166,5.0787,5.1086,5.1042,5.2204,5.2726,5.2536,5.3179,5.3501,5.3501,5.4106,5.4765,5.5414,5.6128,5.6793,5.7381,5.7528,5.7673,5.7768,5.7815,5.7904,5.7973,5.7997,5.7905,5.7666,5.6859,5.6051,5.5291,2.0904,2.15,2.2437,2.4456,2.5805,2.6869,2.7677,2.8484,2.9005,2.9005,2.9354,2.9739,3.0155,3.021,3.021,3.021,2.9457,2.8998,2.8998,2.7486,2.6237,2.5438,2.4246,2.3033,2.1827,2.1039,2.073,2.0904,2.1332,2.2046,2.3013,2.3885,2.5391,2.7354,2.7425,2.8472,3.0302,3.175,3.3155,3.4499,3.5138,3.6602,3.8465,3.9074,4.0047,4.1203,4.2011,4.2561,4.2782,4.2024,4.094,3.9727,3.8523,3.7323,3.6136,3.5014,3.3738,3.2545,3.1843,3.129,3.1009,3.1445,3.2121,0.0,0.0,3.4673,3.5253,3.5827,3.691,3.7807,3.7988,3.9133,4.0247,4.0838,4.1799,4.2647,4.3212,4.4688,4.5851,4.6243,4.6297,4.6509,4.7032,4.7097,4.7294,4.7811,4.8678,4.9378,4.9778,5.0276,5.0587,5.0615,5.166,5.2252,5.23,5.3112,5.3634,5.3946,5.4596,5.5278,5.5971,5.6643,5.7145,5.7504,5.7649,5.7745,5.781,5.7862,5.795,5.7997,5.7997,5.7997,5.7905,5.7097,5.629,5.5508,2.1537,2.2051,2.2969,2.5246,2.63,2.7108,2.7915,2.8583,2.906,2.9207,2.9934,3.0687,3.1342,3.1397,3.1397,3.1397,3.0797,3.043,3.043,2.9072,2.7897,2.7097,2.567,2.4449,2.3474,2.208,2.1707,2.2409,2.2274,2.2728,2.3739,2.4498,2.574,2.7354,2.745,2.8741,3.0912,3.2043,3.3847,3.5999,3.6929,3.8152,3.9483,4.0291,4.1497,4.2873,4.3663,4.4378,4.4837,4.4246,4.307,4.1713,4.0917,3.9666,3.8235,3.729,0.0,0.0,0.0,0.0,0.0,0.0,3.2653,3.2878,0.0,0.0,0.0,0.0,0.0,0.0,0.0,3.7876,3.8702,3.8869,0.0,0.0,0.0,4.2436,0.0,4.5362,4.5631,4.6022,4.6722,4.6864,4.7207,4.7932,4.8806,4.9415,4.9758,4.9868,5.0126,5.0571,5.1172,5.1705,5.2145,5.3041,5.3777,5.4422,5.5219,5.5915,5.651,5.717,5.7553,5.7649,5.7768,5.7839,5.7857,5.795,5.7997,5.7997,5.7997,5.7997,5.7923,5.7281,5.6528,5.5724,2.1757,2.2951,2.4465,2.6172,2.7126,2.7934,2.873,2.895,2.9262,2.9971,3.076,3.1305,3.1397,3.1397,3.1397,3.1397,3.1323,3.1268,3.1268,3.0411,2.9567,2.8767,2.786,2.667,2.5157,2.4256,2.3599,2.3185,2.2578,2.2798,2.3818,2.4662,2.5971,2.7575,2.7995,2.9222,3.1072,3.2685,3.4204,3.5757,3.8221,4.0146,4.166,4.2701,4.3644,4.4544,4.5333,4.5681,4.5755,4.5681,4.5129,4.4299,4.3385,4.2518,4.1409,3.9121,0.0,0.0,0.0,0.0,0.0,3.2679,3.2653,3.2638,3.2782,0.0,3.3927,3.395,0.0,0.0,0.0,0.0,0.0,0.0,0.0,0.0,3.7973,3.9381,4.151,4.4455,4.5443,4.6042,4.6406,4.6721,4.7207,4.7932,4.8117,4.8781,5.0229,4.9898,4.9903,5.0481,5.0668,5.1017,5.1609,5.2752,5.369,5.4422,5.5755,5.6429,5.6537,5.737,5.7768,5.7768,5.7927,5.7973,5.7973,5.7997,5.7997,5.7997,5.7997,5.7997,5.7997,5.7905,5.7354,5.6573,2.2693,2.3419,2.4704,2.6319,2.7273,2.8062,2.8877,2.939,3.032,3.2063,3.2577,3.3164,3.4137,3.4243,3.4243,3.4243,3.3348,3.2981,3.3445,3.1861,3.0802,3.0593,2.9232,2.8018,2.6994,2.5727,2.4947,2.4691,2.3978,2.4141,2.5138,2.5402,2.6446,2.8154,2.8813,2.9992,3.1594,3.3507,3.5337,3.7143,3.9327,4.1635,4.3744,4.3574,4.458,4.6195,4.7003,4.7297,4.7223,4.6764,4.6416,4.603,4.5167,4.4358,4.3439,4.1967,0.0,0.0,0.0,0.0,3.5368,3.4913,3.477,3.4614,3.4159,3.4279,3.4376,3.3952,0.0,0.0,0.0,0.0,0.0,0.0,3.6354,0.0,0.0,0.0,0.0,0.0,0.0,0.0,4.6664,4.6923,4.7347,4.8127,4.8323,4.8708,4.9392,4.9833,5.0071,5.0163,5.1094,5.1633,5.1731,5.3117,5.4133,5.4827,5.5952,5.6722,5.7152,5.7607,5.7839,5.7927,5.7973,5.7997,5.7997,5.7997,5.7997,5.7997,5.7997,5.7997,5.7997,5.7997,5.7483,5.6716,2.4356,2.4533,2.5236,2.641,2.7457,2.8393,2.9207,3.0198,3.1568,3.3532,3.4394,3.5275,3.6501,3.6615,3.6615,3.6615,3.5312,3.4724,3.5316,3.3556,3.2441,3.2285,3.072,2.9513,2.8773,2.7233,2.6438,2.6449,2.5734,2.5774,2.6501,2.6574,2.7336,2.8684,2.9619,3.0875,3.2424,3.4337,3.6359,3.8444,4.0446,4.3029,4.5592,4.5017,4.5902,4.7498,4.8104,4.8306,4.8214,4.7626,4.7443,4.7334,4.6489,4.5846,4.5203,0.0,0.0,0.0,4.0181,3.9151,3.826,3.7217,3.678,3.6409,3.5607,3.5211,3.4853,3.4301,3.3994,0.0,0.0,0.0,0.0,0.0,0.0,3.4917,0.0,0.0,0.0,0.0,0.0,0.0,0.0,4.6507,4.7094,4.7901,4.8356,4.868,4.8938,4.9581,5.0038,5.0254,5.1164,5.1767,5.2009,5.344,5.4467,5.5107,5.6266,5.7076,5.7601,5.7768,5.7904,5.7997,5.7997,5.7997,5.7997,5.7997,5.7997,5.7997,5.7997,5.7997,5.7997,5.7997,5.7629,5.7005,2.6919,2.6776,2.6528,2.6583,2.7904,2.9225,3.0044,3.15,3.2821,3.3697,3.5895,3.7401,3.7456,3.7456,3.7456,3.7456,3.6703,3.6229,3.6266,3.5652,3.4803,3.3778,3.262,3.1517,3.0442,2.9045,2.8301,2.8301,2.7703,2.7419,2.7464,2.8308,2.8798,2.9046,3.0299,3.1864,3.3639,3.5149,3.7019,3.9175,4.1653,4.4393,4.7131,4.7865,4.8196,4.8269,4.8306,4.8306,4.8306,4.8269,4.8345,4.8291,4.737,4.7132,4.6874,4.5167,4.467,4.4318,4.265,4.1654,4.0675,3.9035,3.8028,3.7254,3.6446,3.5624,3.5004,3.4968,0.0,0.0,0.0,0.0,0.0,0.0,0.0,0.0,0.0,0.0,0.0,0.0,0.0,0.0,0.0,4.5021,4.6269,0.0,4.7883,4.8672,4.9536,4.9052,4.948,5.1113,5.0399,5.0716,5.2272,5.3451,5.4367,5.5107,5.679,5.7577,5.7601,5.7862,5.7997,5.7997,5.7997,5.7997,5.7997,5.7997,5.7997,5.7997,5.7997,5.7997,5.7997,5.7997,5.7978,5.785,2.7968,2.7884,2.7793,2.7793,2.8678,2.9986,3.1723,3.2951,3.4275,3.6019,3.7441,3.8487,3.9035,3.9551,3.9882,3.9882,3.9148,3.8909,3.9426,3.846,3.7421,3.65,3.5231,3.3588,3.1539,3.0678,2.9636,2.8404,2.8331,2.8286,2.8296,2.8608,2.911,2.9856,3.1124,3.2305,0.0,0.0,0.0,3.9893,4.341,4.5735,4.7186,4.7975,4.8306,4.8306,4.8306,4.8306,4.8306,4.8306,4.8325,4.8307,4.7994,4.794,4.7738,4.6617,4.6287,4.5957,4.4323,4.3717,4.3128,4.1479,4.0873,4.0338,3.9026,3.8077,3.7312,3.682,0.0,0.0,0.0,0.0,0.0,0.0,0.0,0.0,0.0,0.0,0.0,0.0,0.0,0.0,0.0,0.0,0.0,0.0,4.7039,0.0,4.8691,4.9085,4.9729,5.0635,5.099,5.1581,5.2419,5.3387,5.4248,5.4979,5.6225,5.7072,5.7601,5.7881,5.7997,5.7997,5.7997,5.7997,5.7997,5.7997,5.7997,5.7997,5.7997,5.7997,5.7997,5.7997,5.7997,5.784,2.9009,2.8796,2.8547,2.843,2.9325,3.0806,3.302,3.4315,3.5753,3.7669,3.9129,4.0286,4.1091,4.1644,4.2084,4.2361,4.1644,4.1387,4.1919,4.0981,3.9824,3.8596,3.7324,3.5552,3.3224,3.2449,3.1312,2.9818,2.9744,2.9546,2.9225,2.9225,2.9584,3.0263,3.1691,3.2806,3.3821,3.6758,3.9077,4.1075,4.4819,4.6819,4.7608,4.8416,4.8746,4.8765,4.8765,4.8948,4.9187,4.9187,4.9187,4.915,4.8857,4.8765,4.86,4.7755,4.7516,4.7241,4.5902,4.5553,4.5168,4.3571,4.3149,4.2727,4.1176,4.0152,3.9347,3.8581,3.7066,0.0,0.0,0.0,0.0,0.0,0.0,0.0,0.0,0.0,0.0,0.0,0.0,0.0,0.0,0.0,0.0,0.0,0.0,0.0,0.0,4.882,4.942,5.0021,5.0866,5.158,5.2132,5.3207,5.415,5.4961,5.5873,5.6817,5.7673,5.7839,5.795,5.7997,5.7997,5.7997,5.7997,5.7997,5.7997,5.7997,5.7997,5.7997,5.7997,5.7997,5.7997,5.784,3.0032,2.9567,2.8967,2.8772,3.002,3.1793,3.3953,3.5696,3.7229,3.8603,4.0871,4.2653,4.3423,4.357,4.392,4.469,4.4066,4.3625,4.3625,4.3169,4.2035,4.0155,3.9039,3.7499,3.5471,3.4296,3.3317,3.2463,3.1829,3.1082,3.0271,3.0214,3.0219,3.0345,3.1997,3.3401,3.4682,3.7229,3.99,4.2745,4.5847,4.7571,4.8398,4.9205,4.9574,4.9665,4.9665,5.0141,5.0802,5.0802,5.0802,5.0674,4.9904,4.9665,4.95,4.8618,4.8361,4.8196,4.7369,4.7168,4.6782,4.5205,4.4837,4.4415,4.2837,4.1864,4.104,4.023,3.8796,0.0,0.0,0.0,0.0,0.0,0.0,0.0,0.0,0.0,0.0,0.0,0.0,0.0,0.0,0.0,0.0,0.0,0.0,0.0,0.0,4.8288,4.8633,4.9356,5.0039,5.0754,5.1482,5.293,5.4108,5.5002,5.577,5.6715,5.7768,5.7792,5.7862,5.7973,5.7973,5.7973,5.7997,5.7997,5.7997,5.7997,5.7997,5.7997,5.7997,5.7997,5.7997,5.7886,3.0173,3.0548,3.1386,3.3146,3.332,3.3757,3.5375,3.7369,3.896,3.9777,4.1825,4.3276,4.3478,4.4562,4.5369,4.5571,4.5406,4.5278,4.5278,4.5388,4.4589,4.2652,4.2106,4.0357,3.7238,3.5995,3.469,3.3287,3.2096,3.1402,3.1218,3.0534,3.0572,3.1294,3.2512,3.429,3.6471,3.8568,4.1606,4.5094,4.6526,4.7571,4.8398,4.9242,4.9978,5.049,5.049,5.0618,5.0802,5.0802,5.0802,5.0765,5.0563,5.049,5.0325,4.9499,4.928,4.9077,4.8233,4.7975,4.7736,4.6746,4.647,4.6214,4.5204,4.436,4.3552,4.2727,4.1295,3.9753,3.834,3.7239,0.0,0.0,0.0,0.0,0.0,0.0,0.0,0.0,0.0,0.0,0.0,0.0,0.0,0.0,0.0,0.0,0.0,0.0,4.8576,4.9236,5.0081,5.0818,5.1348,5.2463,5.3662,5.4937,5.5291,5.6163,5.7504,5.7601,5.7673,5.7697,5.7697,5.7768,5.7839,5.7839,5.7927,5.7997,5.7997,5.7997,5.7997,5.7997,5.7997,5.7886,3.1293,3.1981,3.3146,3.4885,3.5649,3.6369,3.7384,3.9207,4.0755,4.1591,4.3359,4.4672,4.5039,4.5883,4.6581,4.6929,4.6948,4.6948,4.6948,4.68,4.6061,4.4616,4.3719,4.2165,3.9822,3.815,3.6512,3.4916,3.3626,3.2634,3.1947,3.1532,3.1599,3.2147,3.3483,3.5153,3.7185,4.0557,4.3718,4.6489,4.7296,4.8122,0.0,4.9793,5.0618,5.1371,5.172,5.1848,5.1848,5.1848,5.1848,5.1793,5.1444,5.1316,5.1169,5.0362,5.0105,5.0013,4.9536,4.915,4.8765,4.8306,4.7921,4.7406,4.6617,4.6067,4.5517,4.4709,4.3552,4.2288,4.102,3.9845,0.0,0.0,0.0,0.0,0.0,0.0,0.0,0.0,0.0,0.0,0.0,0.0,0.0,0.0,0.0,0.0,0.0,0.0,0.0,4.8648,4.9877,5.0633,5.0867,5.2108,5.3331,5.4511,5.4932,5.5757,5.6976,5.7322,5.7534,5.7601,5.7601,5.7649,5.7721,5.7721,5.7792,5.7927,5.7973,5.7997,5.7997,5.7997,5.7997,5.7941,3.3177,3.3891,3.477,3.5706,3.7652,3.9305,3.994,4.1205,4.247,4.356,4.5093,4.6324,4.7021,4.7186,4.7535,4.8251,4.8306,4.8306,4.8306,4.7645,4.6892,4.6085,4.4709,4.3497,4.2488,4.0495,3.8637,3.6928,3.5741,3.4387,3.2851,3.2975,3.305,3.319,3.4814,3.6371,0.0,4.2836,4.5718,4.7168,4.7994,4.882,4.9702,5.049,5.1298,5.2105,5.2913,5.3185,5.3185,5.3185,5.3185,5.3096,5.238,5.216,5.1995,5.1187,5.0967,5.093,5.0839,5.0288,4.9757,4.9757,4.9114,4.8288,4.759,4.7333,4.7021,4.6214,4.5498,4.4745,4.3809,4.2375,0.0,0.0,0.0,0.0,0.0,0.0,0.0,0.0,0.0,0.0,0.0,0.0,0.0,0.0,0.0,0.0,0.0,0.0,0.0,4.7975,4.9578,5.0371,5.0261,5.1849,5.3076,5.3964,5.4672,5.5473,5.6368,5.7049,5.7455,5.7553,5.7553,5.7553,5.7577,5.7577,5.7673,5.7792,5.7904,5.7973,5.7997,5.7973,5.7973,5.7997,3.5698,3.6489,3.754,3.9117,4.0655,4.2063,4.3262,4.3498,4.3844,4.4712,4.6027,4.6929,4.7076,4.7681,4.8159,4.8306,4.8306,4.8306,4.8306,4.8177,4.7718,4.6911,4.6617,4.548,4.3332,4.2435,4.0881,3.8664,3.7304,3.6144,3.5191,3.453,3.4578,3.5317,3.6725,0.0,4.2492,4.4726,4.625,4.7168,4.7994,4.882,4.9702,5.049,5.1298,5.2105,5.2913,5.3185,5.3185,5.3185,5.3185,5.3167,5.3041,5.3004,5.2839,5.2032,5.1775,5.1628,5.0986,5.071,5.0582,5.0582,4.9976,4.9353,4.9206,4.8618,4.7846,4.7058,4.6782,4.6232,4.4764,4.3367,4.1964,0.0,0.0,0.0,0.0,0.0,0.0,0.0,0.0,0.0,0.0,0.0,0.0,0.0,0.0,0.0,0.0,0.0,0.0,0.0,4.9681,5.0435,5.0134,5.1871,5.309,5.3764,5.4597,5.5377,5.6103,5.6876,5.7257,5.7264,5.7264,5.7313,5.7455,5.7455,5.7577,5.7792,5.7697,5.781,5.7997,5.7881,5.7904,5.7997,3.8391,3.9126,4.0024,4.1142,4.2444,4.3786,4.5133,4.5451,4.5692,4.608,4.7059,4.7718,4.7718,4.8086,4.8306,4.8306,4.8306,4.8306,4.8306,4.8306,4.8141,4.7736,4.7314,4.6562,4.5388,4.4261,4.274,4.0757,3.9779,3.8661,3.7449,3.718,3.7277,3.7732,3.9509,4.1795,4.4435,4.5901,4.7003,4.7791,4.8636,4.9481,5.0306,5.1114,5.1922,5.2674,5.3078,5.3482,5.3775,5.3332,5.3185,5.3185,5.3185,5.3185,5.3112,5.2747,5.2619,5.2546,5.216,5.1738,5.1426,5.1426,5.082,5.0215,5.0215,4.9572,4.8857,4.8471,4.8049,4.7351,4.6159,4.474,4.3623,4.3236,0.0,0.0,0.0,0.0,0.0,0.0,0.0,0.0,0.0,0.0,0.0,0.0,0.0,0.0,0.0,0.0,0.0,0.0,0.0,0.0,5.0246,5.1956,5.2917,5.3134,5.4402,5.5154,5.5468,5.6663,5.7188,5.7188,5.7188,5.7257,5.7289,5.7363,5.748,5.7601,5.7601,5.7673,5.7768,5.7721,5.7745,5.7815,4.0997,4.1798,4.2601,4.2943,4.411,4.5353,4.6405,4.702,4.7351,4.7351,4.7901,4.8379,4.8563,4.8581,4.8655,4.882,4.8838,4.8838,4.8838,4.8673,4.8581,4.8581,4.7791,4.7278,4.7094,4.5847,4.4416,4.2818,4.2166,4.0666,3.8442,3.9342,3.9941,4.0356,4.2038,4.3814,4.5589,4.6654,4.7663,4.8636,4.9335,5.0198,5.1114,5.1756,5.2509,5.3203,5.339,5.3867,5.4326,5.3867,5.372,5.372,5.372,5.372,5.372,5.372,5.372,5.372,5.372,5.3115,5.2509,5.2509,5.1775,5.1059,5.1059,5.0417,4.9867,4.9867,4.9169,4.8324,4.7498,4.6177,4.5276,4.5499,4.3999,0.0,0.0,0.0,0.0,0.0,0.0,0.0,0.0,0.0,0.0,0.0,0.0,0.0,0.0,0.0,0.0,0.0,0.0,5.0456,5.0332,5.196,5.2739,5.2604,5.4215,5.4948,5.4961,5.65,5.7188,5.7188,5.7188,5.7188,5.7206,5.7313,5.7363,5.7406,5.7461,5.7553,5.7601,5.7577,5.7577,5.7625,4.3262,4.4535,4.5597,4.5345,4.6386,4.733,4.7463,4.7868,4.8196,4.8196,4.8251,4.86,4.939,4.9482,4.9776,5.0508,5.0582,5.0582,5.0582,4.9866,4.9482,4.9482,4.8655,4.7846,4.7113,4.6947,4.6085,4.4471,4.3697,4.0995,3.6622,3.9559,4.1726,4.3123,4.3345,4.4707,4.693,4.7058,4.8031,4.95,4.9574,5.0528,5.1885,5.1958,5.2509,5.3316,5.4032,5.4344,5.4491,5.5133,5.5372,5.5372,5.5372,5.5372,5.5372,5.5372,5.5372,5.5372,5.5372,5.4785,5.4179,5.4179,5.3023,5.1885,5.1885,5.1261,5.0692,5.0692,5.0031,4.9225,4.8361,4.7461,4.6893,4.6911,4.5535,0.0,0.0,0.0,0.0,0.0,0.0,0.0,0.0,0.0,0.0,0.0,0.0,0.0,0.0,0.0,0.0,4.7994,0.0,5.0558,5.0134,5.1894,5.2712,5.2539,5.4152,5.4907,5.4961,5.65,5.7188,5.7188,5.7188,5.7188,5.7188,5.7213,5.7289,5.7406,5.7264,5.7406,5.7601,5.7461,5.7504,5.7601,4.5517,4.6031,4.6586,4.6759,4.725,4.7692,4.7979,4.8622,4.9077,4.9077,4.904,4.9169,4.9555,5.0013,5.0453,5.0765,5.0802,5.0802,5.0802,5.049,5.0306,5.0306,4.9517,4.893,4.86,4.8104,4.7259,4.614,4.581,4.4195,4.1387,4.3149,4.4323,4.4947,4.5461,4.6195,4.7131,4.7608,4.8508,4.9647,5.0123,5.0986,5.205,5.2546,5.3225,5.3959,5.4289,5.5023,5.5904,5.6216,5.5996,5.5614,5.5614,5.5614,5.5614,5.5614,5.5614,5.5614,5.5614,5.5354,5.5115,5.5115,5.4271,5.3445,5.3445,5.2435,5.1518,5.1518,5.0875,5.0068,4.9224,4.882,4.8434,4.7901,4.6874,4.625,0.0,0.0,0.0,0.0,0.0,0.0,0.0,0.0,0.0,0.0,0.0,0.0,0.0,0.0,0.0,4.8092,0.0,5.0417,5.0163,5.1831,5.2858,5.3222,5.4363,5.5124,5.5595,5.6699,5.7188,5.7188,5.7188,5.7188,5.7188,5.7188,5.7213,5.7264,5.7213,5.7282,5.7338,5.7289,5.7313,5.7363,4.7052,4.7243,4.7487,4.7749,4.7808,4.7996,4.8583,4.9187,4.9684,4.9922,5.0105,5.0233,5.0308,5.0802,5.1261,5.1499,5.1518,5.1518,5.1518,5.1279,5.1151,5.1151,5.038,4.9849,4.961,4.8985,4.8288,4.7443,4.7223,4.5902,4.3645,4.3975,4.4892,4.6287,4.6837,4.7369,4.7884,4.8434,4.9297,5.0363,5.0912,5.1628,5.2417,5.2986,5.3702,5.4436,5.4675,5.5607,5.6772,5.7011,5.6699,5.62,5.6222,5.6222,5.62,5.62,5.62,5.62,5.62,5.6035,5.5852,5.5874,5.5291,5.4704,5.4748,5.3683,5.2564,5.2087,5.1555,5.0912,5.0086,4.9939,4.9664,4.882,4.8214,4.7736,0.0,4.6746,0.0,0.0,4.6049,4.5681,4.5112,0.0,0.0,0.0,0.0,0.0,0.0,0.0,0.0,0.0,0.0,0.0,5.0185,5.1787,5.2958,5.3711,5.4526,5.5171,5.5768,5.658,5.6959,5.6959,5.7112,5.7188,5.7188,5.7188,5.7188,5.7188,5.7188,5.7188,5.7188,5.7188,5.7087,5.6966,4.7661,4.8241,4.8675,4.8364,4.8288,4.8581,4.9445,4.9592,4.9904,5.0674,5.1481,5.1958,5.1958,5.1977,5.2307,5.3093,5.3167,5.3167,5.3167,5.2435,5.1977,5.1977,5.1206,5.0398,4.9629,4.9592,4.917,4.8306,4.748,4.5058,4.1132,4.0341,4.2525,4.7094,4.7094,4.8031,4.9574,4.9574,5.051,5.1958,5.1977,5.2472,5.3206,5.3185,5.3702,5.4491,5.5299,5.6039,5.6731,5.7517,5.7703,5.7589,5.775,5.7684,5.7565,5.7565,5.7565,5.7565,5.7565,5.6999,5.6421,5.6538,5.5981,5.5422,5.5552,5.495,5.3922,5.2325,5.1977,5.1738,5.093,5.0784,5.0508,4.9721,4.9574,4.928,4.8416,4.759,0.0,4.7094,4.6379,4.5902,4.5883,4.5883,0.0,0.0,0.0,0.0,0.0,0.0,0.0,4.7902,4.9534,5.0289,5.0112,5.1764,5.2958,5.3711,5.4526,5.4954,5.5125,5.5937,5.6311,5.6339,5.6941,5.7188,5.7188,5.7188,5.7188,5.7188,5.7188,5.7188,5.7188,5.7188,5.6811,5.6393,4.809,4.8274,4.8623,4.9116,4.9206,4.9424,5.0151,5.0817,5.1295,5.147,5.2244,5.2821,5.2821,5.2821,5.2931,5.3167,5.3185,5.3185,5.3185,5.2968,5.2821,5.2821,5.205,5.1499,5.1224,5.0692,5.0288,4.9994,4.9205,4.7847,4.5975,4.5186,4.625,4.8802,4.8802,4.9407,5.0417,5.0417,5.1022,5.1995,5.1995,5.243,5.3115,5.3664,5.4316,5.5053,5.5857,5.6656,5.7302,5.7582,5.7559,5.7461,5.751,5.7577,5.7601,5.7601,5.7601,5.7601,5.7601,5.7419,5.7218,5.7266,5.6682,5.6103,5.6126,5.5528,5.4651,5.3569,5.335,5.2992,5.1703,5.1486,5.1232,5.0525,5.0417,5.0123,4.9297,4.8967,4.8581,4.7994,4.77,4.7535,4.7535,4.7535,0.0,0.0,0.0,0.0,0.0,0.0,0.0,0.0,4.9704,5.0479,5.0904,5.1982,5.3215,5.4526,5.478,5.546,5.6529,5.6367,5.6528,5.6915,5.7112,5.7188,5.7188,5.7188,5.7188,5.7188,5.7188,5.7188,5.7138,5.6732,5.6474,5.6284,4.9187,4.9242,4.9407,4.9958,5.005,5.0286,5.1014,5.1623,5.2084,5.2294,5.2831,5.3314,5.3628,5.3622,5.3601,5.3665,5.3665,5.3665,5.3665,5.3665,5.3537,5.3203,5.2729,5.2307,5.1995,5.1499,5.1096,5.0802,5.0288,4.9774,4.9242,4.8709,4.9058,5.005,5.005,5.049,5.1242,5.1242,5.172,5.2454,5.2394,5.2807,5.3511,5.3939,5.4748,5.5723,5.621,5.6879,5.751,5.751,5.7455,5.7313,5.7313,5.7363,5.7455,5.7455,5.7455,5.7455,5.7455,5.7455,5.748,5.751,5.7146,5.6709,5.6465,5.5991,5.5431,5.4606,5.4205,5.3717,5.2802,5.2425,5.2014,5.1289,5.1181,5.0906,5.016,5.0011,4.979,4.9315,4.8928,4.8705,4.8705,4.8393,4.817,0.0,0.0,0.0,0.0,0.0,4.8553,4.9001,5.0054,5.0826,5.1285,5.2389,5.3603,5.4907,5.5245,5.5919,5.6837,5.6474,5.6501,5.6863,5.7112,5.7188,5.7188,5.7188,5.7188,5.7188,5.7188,5.7188,5.7138,5.6528,5.6174,5.5904,5.0655,5.0802,5.082,5.0875,5.0875,5.1151,5.1958,5.2087,5.2362,5.3167,5.3277,5.3592,5.4399,5.4364,5.436,5.4543,5.4488,5.4451,5.4451,5.4451,5.4121,5.3387,5.3295,5.291,5.2179,5.2105,5.1662,5.0874,5.0874,5.0837,5.0782,5.0782,5.0819,5.0875,5.0855,5.1334,5.2068,5.2048,5.2525,5.3237,5.3112,5.3544,5.4253,5.4173,5.5075,5.6368,5.6441,5.6861,5.7406,5.7406,5.7289,5.7188,5.7188,5.7188,5.7188,5.7138,5.7163,5.7188,5.7138,5.7163,5.7232,5.7338,5.7406,5.7231,5.66,5.6441,5.6246,5.5426,5.4679,5.415,5.4096,5.3533,5.2834,5.2102,5.1938,5.1669,5.0984,5.0776,5.0737,5.0782,5.0023,4.9486,4.9486,4.8693,4.8176,4.8156,0.0,0.0,0.0,0.0,4.9183,4.9075,5.0524,5.1321,5.1375,5.2915,5.4128,5.4997,5.5882,5.6311,5.6366,5.6311,5.6311,5.6393,5.6959,5.7188,5.7188,5.7188,5.7188,5.7188,5.7188,5.7188,5.7112,5.6474,5.5876,5.5402,5.0745,5.0802,5.0986,5.161,5.172,5.1956,5.266,5.2849,5.3164,5.3866,5.4041,5.4418,5.5225,5.5295,5.5533,5.618,5.5468,5.5035,5.5166,5.5166,5.5119,5.5042,5.4349,5.3906,5.383,5.3035,5.2236,5.1414,5.1414,5.1146,5.0643,5.0643,5.1032,5.1701,5.1619,5.2016,5.2767,5.2641,5.3072,5.3821,5.3799,5.4187,5.4878,5.5473,5.5855,5.6182,5.6799,5.7119,5.7257,5.7257,5.7232,5.7188,5.7188,5.7188,5.7112,5.6653,5.6837,5.7112,5.6653,5.6837,5.7206,5.7239,5.7257,5.7202,5.7046,5.7091,5.6946,5.6127,5.5871,5.5632,5.503,5.4373,5.3859,5.3654,5.321,5.2595,5.1811,5.1681,5.1461,5.0875,5.0598,5.0428,5.0328,5.0106,4.9896,4.9689,4.9849,4.9912,4.9884,5.0442,5.0768,5.0723,5.1086,5.1574,5.2208,5.3204,5.4381,5.574,5.6133,5.6528,5.6966,5.6501,5.6555,5.6992,5.7138,5.7188,5.7188,5.7188,5.7188,5.7188,5.7188,5.7188,5.7087,5.6017,5.5531,5.5254,5.1627,5.176,5.193,5.2391,5.2504,5.28,5.3524,5.3696,5.4011,5.4734,5.4888,5.5244,5.6051,5.6098,5.6365,5.7189,5.6443,5.594,5.5962,5.5962,5.582,5.5526,5.5019,5.4799,5.495,5.4382,5.3672,5.2889,5.2889,5.2508,5.1802,5.1721,5.198,5.2462,5.2699,5.3058,5.3478,5.3776,5.4155,5.4533,5.4487,5.4909,5.5583,5.597,5.6278,5.6609,5.7043,5.7188,5.7188,5.7188,5.7188,5.7188,5.7188,5.7188,5.7087,5.6474,5.6732,5.7138,5.6811,5.6941,5.7188,5.7188,5.7188,5.7188,5.7188,5.7289,5.7279,5.6751,5.6467,5.6157,5.5649,5.5033,5.4574,5.4574,5.3967,5.3357,5.3066,5.2639,5.2236,5.1857,5.1431,5.1148,5.1022,5.0633,5.0311,5.0181,5.0486,5.0681,5.0655,5.1411,5.1665,5.1303,5.1647,5.2226,5.3041,5.4182,5.5359,5.6554,5.6665,5.6732,5.6785,5.6732,5.6758,5.6811,5.7087,5.7188,5.7188,5.7188,5.7036,5.6811,5.7087,5.7036,5.6706,5.6045,5.5819,5.5618,5.2656,5.2893,5.3014,5.3142,5.3243,5.3583,5.4433,5.4561,5.4855,5.5666,5.5776,5.6088,5.6895,5.6896,5.7083,5.776,5.7304,5.6919,5.6786,5.6786,5.6493,5.582,5.5674,5.5646,5.5776,5.5625,5.5218,5.4477,5.4477,5.4147,5.3469,5.3365,5.3324,5.3361,5.3922,5.4164,5.42,5.4875,5.5216,5.5307,5.5189,5.5632,5.634,5.6224,5.6609,5.7188,5.7188,5.7188,5.7188,5.7188,5.7188,5.7188,5.7188,5.7188,5.7112,5.6582,5.6811,5.7163,5.7087,5.7138,5.7188,5.7188,5.7188,5.7188,5.7188,5.7289,5.7381,5.7239,5.6794,5.637,5.6248,5.5644,5.5189,5.5189,5.4517,5.4082,5.4322,5.3653,5.3156,5.3138,5.2452,5.1887,5.1682,5.0939,5.0456,5.0474,5.1108,5.152,5.1647,5.2299,5.2426,5.1846,5.2389,5.3114,5.4037,5.5341,5.6367,5.7061,5.7061,5.6758,5.6184,5.6785,5.6785,5.6339,5.6837,5.7061,5.7061,5.6966,5.6635,5.6229,5.6714,5.6608,5.6146,5.6045,5.6017,5.583,5.2747,5.2806,5.3046,5.3717,5.3867,5.4186,5.5107,5.5235,5.5573,5.6487,5.662,5.6932,5.7721,5.779,5.7827,5.7955,5.7886,5.7767,5.7609,5.7609,5.7601,5.7607,5.6836,5.6488,5.662,5.572,5.5139,5.4914,5.4914,5.4841,5.4714,5.4825,5.4852,5.4871,5.4841,5.4849,5.4844,5.4912,5.5299,5.5885,5.5861,5.6326,5.7032,5.7007,5.708,5.7188,5.7188,5.7188,5.7188,5.7188,5.7188,5.7188,5.7188,5.7188,5.7163,5.7087,5.7138,5.7087,5.6582,5.6811,5.7188,5.7188,5.7188,5.7188,5.7188,5.7289,5.7388,5.7363,5.737,5.7328,5.7206,5.6643,5.6163,5.6025,5.5424,5.4989,5.5035,5.4921,5.4574,5.3918,5.3717,5.3303,5.2522,5.2318,5.2177,5.2141,5.2226,5.2607,5.3295,5.344,5.3766,5.4327,5.3802,5.42,5.5613,5.5866,5.6147,5.6447,5.6447,5.6128,5.556,5.6156,5.6393,5.6311,5.6393,5.6447,5.6393,5.5904,5.5618,5.556,5.5647,5.5618,5.5473,5.49,5.4686,5.461,5.3203,5.3304,5.3586,5.4405,5.4596,5.4939,5.5811,5.5939,5.6236,5.7128,5.722,5.7366,5.7732,5.7857,5.7862,5.7792,5.7839,5.7857,5.7697,5.7768,5.7815,5.7904,5.7402,5.7173,5.722,5.6737,5.6265,5.5757,5.5757,5.5538,5.5101,5.5119,5.5078,5.5114,5.5414,5.5547,5.5559,5.5963,5.6337,5.6645,5.6645,5.6862,5.7188,5.7188,5.7188,5.7188,5.7188,5.7188,5.7188,5.7188,5.7188,5.7188,5.7188,5.7188,5.7188,5.7188,5.7188,5.7138,5.6863,5.6984,5.7188,5.7188,5.7188,5.7188,5.7188,5.7289,5.7363,5.7307,5.7388,5.7437,5.7332,5.7048,5.6794,5.6762,5.6122,5.5643,5.5733,5.5369,5.495,5.4587,5.4237,5.3996,5.3855,5.3526,5.3288,5.3257,5.3257,5.325,5.3325,5.3317,5.3495,5.3851,5.4253,5.4802,5.5502,5.5625,5.5699,5.5819,5.5819,5.5484,5.4887,5.5513,5.5601,5.529,5.5676,5.5819,5.5791,5.5502,5.5207,5.4887,5.5266,5.5177,5.4857,5.4918,5.4948,5.4857,5.3585,5.3891,5.4306,5.5087,5.5322,5.5689,5.649,5.6642,5.686,5.7528,5.7601,5.7601,5.7601,5.7697,5.7721,5.7601,5.7697,5.7697,5.7601,5.7697,5.7745,5.7745,5.7649,5.7601,5.7601,5.7577,5.7243,5.6642,5.6642,5.629,5.5665,5.5594,5.5547,5.5517,5.606,5.6265,5.6319,5.6935,5.7188,5.7188,5.7188,5.7188,5.7188,5.7188,5.7188,5.7188,5.7188,5.7188,5.7188,5.7188,5.7188,5.7163,5.7036,5.7087,5.7163,5.7036,5.7087,5.7188,5.7188,5.7188,5.7188,5.7188,5.7188,5.7188,5.7188,5.7264,5.7289,5.7036,5.7188,5.7264,5.7036,5.7112,5.7188,5.7188,5.6681,5.6314,5.6424,5.5904,5.545,5.525,5.4812,5.4583,5.465,5.4207,5.3833,5.37,5.3682,5.3582,5.3285,5.3274,5.3344,5.3537,5.4421,5.4989,5.5184,5.5318,5.5325,5.5177,5.5177,5.4844,5.4203,5.4874,5.4887,5.4422,5.4948,5.5177,5.5147,5.5013,5.4676,5.4235,5.4769,5.4627,5.4267,5.4769,5.4953,5.4892,5.3693,5.4291,5.5033,5.58,5.5927,5.6248,5.7188,5.734,5.7382,5.7577,5.7601,5.7601,5.7601,5.7601,5.7625,5.7601,5.7601,5.7625,5.7601,5.7601,5.7607,5.7607,5.7601,5.7601,5.7601,5.748,5.7394,5.734,5.734,5.7229,5.705,5.7175,5.715,5.705,5.708,5.7098,5.7116,5.717,5.7188,5.7188,5.7188,5.7188,5.7188,5.7188,5.7188,5.7188,5.7188,5.7188,5.7188,5.7188,5.7188,5.7112,5.6528,5.6758,5.7087,5.6528,5.6758,5.7188,5.7188,5.7188,5.7188,5.7188,5.7188,5.7188,5.7188,5.7206,5.7061,5.6474,5.6811,5.7036,5.6474,5.6811,5.7188,5.7188,5.7152,5.7116,5.7123,5.7087,5.6761,5.6018,5.5878,5.5371,5.4106,5.3938,5.3673,5.3106,5.3067,5.3366,5.4074,5.4109,5.4443,5.5191,5.4606,5.4635,5.5355,5.5396,5.5087,5.4485,5.4485,5.4156,5.3584,5.4203,5.4454,5.4391,5.4454,5.4485,5.4422,5.3865,5.3618,5.3551,5.3618,5.3618,5.3551,5.3618,5.3651,5.3618,5.5033,5.5359,5.583,5.6609,5.6736,5.6869,5.7227,5.7282,5.7289,5.7356,5.7338,5.7338,5.7338,5.7431,5.7437,5.7363,5.7431,5.7455,5.7356,5.7338,5.7406,5.7461,5.748,5.7455,5.7338,5.7289,5.7282,5.7282,5.7282,5.7257,5.7188,5.7239,5.7257,5.7188,5.7188,5.7188,5.7188,5.7188,5.7188,5.7188,5.7188,5.7188,5.7188,5.7188,5.7188,5.7188,5.7188,5.6966,5.6635,5.6635,5.6375,5.6045,5.5819,5.6174,5.6599,5.6366,5.6447,5.6635,5.6635,5.6915,5.7188,5.7188,5.7188,5.7188,5.7188,5.6915,5.6582,5.6339,5.6184,5.6017,5.5791,5.5932,5.6211,5.6582,5.6321,5.6211,5.6582,5.6321,5.6104,5.6169,5.5482,5.5104,5.5356,5.4673,5.4119,5.3897,5.3866,5.3821,5.3759,5.3793,5.3913,5.4205,5.393,5.4086,5.4765,5.4411,5.4076,5.3832,5.3832,5.3734,5.3501,5.3717,5.3832,5.3832,5.3832,5.3832,5.3799,5.3584,5.3501,5.3501,5.3501,5.3501,5.3501,5.3501,5.3501,5.3501,5.5884,5.6192,5.6536,5.7098,5.7188,5.7188,5.7188,5.7188,5.7188,5.7188,5.7188,5.7188,5.7188,5.7264,5.7289,5.7206,5.7264,5.7289,5.7206,5.7188,5.7239,5.7313,5.7356,5.7289,5.7188,5.7188,5.7188,5.7188,5.7188,5.7188,5.7188,5.7188,5.7188,5.7188,5.7188,5.7188,5.7188,5.7188,5.7188,5.7188,5.7188,5.7188,5.7188,5.7188,5.7087,5.6915,5.6915,5.6528,5.6035,5.6035,5.5733,5.5355,5.5147,5.5367,5.5744,5.5961,5.6035,5.6035,5.6035,5.6339,5.6714,5.7112,5.7188,5.7188,5.7188,5.6732,5.6257,5.6063,5.5676,5.5325,5.5099,5.5266,5.5531,5.5915,5.5676,5.5531,5.5961,5.5647,5.556,5.5961,5.5249,5.4961,5.5658,5.49,5.4328,5.4139,5.4124,5.3946,5.3534,5.3501,5.3501,5.3501,5.3501,5.3701,5.4106,5.3701,5.3501,5.3501,5.3501,5.3501,5.3501,5.3501,5.3501,5.3501,5.3501,5.3501,5.3501,5.3501,5.3501,5.3501,5.3501,5.3501,5.3501,5.3501,5.3501,5.3501,5.5993,5.6645,5.7188,5.7188,5.7188,5.7188,5.7188,5.7188,5.7188,5.7188,5.7188,5.7188,5.7188,5.7188,5.7188,5.7188,5.7188,5.7188,5.7188,5.7188,5.7188,5.7188,5.7188,5.7188,5.7188,5.7188,5.7188,5.7188,5.7188,5.7188,5.7188,5.7188,5.7188,5.7188,5.7188,5.7188,5.7188,5.7188,5.7188,5.7188,5.7188,5.7206,5.7188,5.7188,5.6811,5.6284,5.6284,5.5904,5.5385,5.5385,5.5385,5.5266,5.461,5.4391,5.4516,5.5207,5.5385,5.5385,5.5385,5.5402,5.5676,5.6889,5.7206,5.7206,5.7206,5.6732,5.6118,5.5502,5.5385,5.5177,5.4516,5.4948,5.5367,5.5285,5.5349,5.5402,5.5385,5.5385,5.5402,5.5385,5.5385,5.5147,5.4454,5.4391,5.4139,5.3568,5.3501,5.3501,5.3501,5.3501,5.3501,5.3501,5.3501,5.3501,5.3501,5.3501,5.3501,5.3501,5.3501,5.3501,5.3501,5.3501,5.3501,5.3501,5.3501,5.3501,5.3501,5.3501,5.3501,5.3501,5.3501,5.3501,5.3501,5.3501,5.3501,5.3501,5.6826,5.7043,5.7188,5.7188,5.7188,5.7188,5.7188,5.7188,5.7188,5.7188,5.7188,5.7188,5.7188,5.7188,5.7188,5.7188,5.7188,5.7188,5.7188,5.7188,5.7188,5.7188,5.7188,5.7188,5.7188,5.7188,5.7188,5.7188,5.7188,5.7188,5.7188,5.7188,5.7188,5.7188,5.7188,5.7188,5.7188,5.7188,5.7188,5.7188,5.7188,5.6941,5.6555,5.6555,5.6184,5.5676,5.5676,5.5249,5.4703,5.4703,5.4425,5.4126,5.4313,5.4124,5.3898,5.4534,5.4703,5.4703,5.4703,5.5039,5.5473,5.5848,5.5932,5.5932,5.5932,5.5437,5.4931,5.4734,5.4362,5.4013,5.3816,5.3931,5.4205,5.4593,5.433,5.4205,5.4658,5.4348,5.4237,5.4658,5.4316,5.4141,5.4391,5.4044,5.3701,5.3501,5.3501,5.3501,5.3501,5.3501,5.3501,5.3501,5.3501,5.3501,5.3501,5.3501,5.3501,5.3501,5.3501,5.3501,5.3501,5.3501,5.3501,5.3501,5.3501,5.3501,5.3501,5.3501,5.3501,5.3501,5.3501,5.3501,5.3501,5.3501,5.3501,5.3501,5.7188,5.7188,5.7188,5.7188,5.7188,5.7188,5.7188,5.7188,5.7188,5.7188,5.7188,5.7188,5.7188,5.7188,5.7188,5.7188,5.7188,5.7188,5.7188,5.7188,5.7188,5.7188,5.7188,5.7188,5.7188,5.7188,5.7188,5.7188,5.7188,5.7188,5.7188,5.7188,5.7188,5.7188,5.7188,5.7188,5.7188,5.7188,5.7188,5.7188,5.7188,5.6837,5.6311,5.6311,5.5744,5.5009,5.5009,5.4596,5.4027,5.4027,5.3816,5.3551,5.3913,5.3783,5.3551,5.3946,5.4027,5.4027,5.4027,5.4348,5.4662,5.4662,5.5044,5.5385,5.5385,5.4887,5.4391,5.4391,5.3913,5.3501,5.3501,5.3501,5.3618,5.3962,5.3717,5.3618,5.4011,5.3734,5.3651,5.4011,5.3734,5.3634,5.4011,5.3717,5.3501,5.3501,5.3501,5.3501,5.3501,5.3501,5.3501,5.3501,5.3501,5.3501,5.3501,5.3501,5.3501,5.3501,5.3501,5.3501,5.3501,5.3501,5.3501,5.3501,5.3501,5.3501,5.3501,5.3501,5.3501,5.3501,5.3501,5.3501,5.3501,5.3501,5.3501,5.3501,5.7188,5.7188,5.7188,5.7188,5.7188,5.7188,5.7188,5.7188,5.7188,5.7188,5.7188,5.7188,5.7188,5.7188,5.7188,5.7188,5.7188,5.7188,5.7188,5.7188,5.7188,5.7188,5.7188,5.7188,5.7188,5.7188,5.7188,5.7188,5.7188,5.7188,5.7188,5.7188,5.7188,5.7188,5.7188,5.7188,5.7188,5.7188,5.7188,5.7206,5.7138,5.6758,5.6229,5.6156,5.5379,5.4313,5.4313,5.3979,5.3501,5.3501,5.3501,5.3501,5.3501,5.3501,5.3501,5.3501,5.3501,5.3501,5.3501,5.3501,5.3501,5.3501,5.4365,5.5224,5.5224,5.4751,5.4313,5.4313,5.3898,5.3501,5.3501,5.3501,5.3501,5.3501,5.3501,5.3501,5.3501,5.3501,5.3501,5.3501,5.3501,5.3501,5.3501,5.3501,5.3501,5.3501,5.3501,5.3501,5.3501,5.3501,5.3501,5.3501,5.3501,5.3501,5.3501,5.3501,5.3501,5.3501,5.3501,5.3501,5.3501,5.3501,5.3501,5.3501,5.3501,5.3501,5.3501,5.3501,5.3501,5.3501,5.3501,5.3501,5.3501,5.3501,5.3501,5.3501,5.7188,5.7188,5.7188,5.7188,5.7188,5.7188,5.7188,5.7188,5.7188,5.7188,5.7188,5.7188,5.7188,5.7188,5.7188,5.7188,5.7188,5.7188,5.7188,5.7188,5.7188,5.7188,5.7188,5.7188,5.7188,5.7188,5.7188,5.7188,5.7188,5.7188,5.7188,5.7188,5.7188,5.7188,5.7188,5.7188,5.7188,5.7188,5.7188,5.7163,5.6706,5.6128,5.5531,5.4991,5.4362,5.3701,5.3701,5.3618,5.3501,5.3501,5.3501,5.3501,5.3501,5.3501,5.3501,5.3501,5.3501,5.3501,5.3501,5.3501,5.3501,5.3501,5.3718,5.3915,5.3915,5.38,5.3701,5.3701,5.3584,5.3501,5.3501,5.3501,5.3501,5.3501,5.3501,5.3501,5.3501,5.3501,5.3501,5.3501,5.3501,5.3501,5.3501,5.3501,5.3501,5.3501,5.3501,5.3501,5.3501,5.3501,5.3501,5.3501,5.3501,5.3501,5.3501,5.3501,5.3501,5.3501,5.3501,5.3501,5.3501,5.3501,5.3501,5.3501,5.3501,5.3501,5.3501,5.3501,5.3501,5.3501,5.3501,5.3501,5.3501,5.3501,5.3501,5.3501,5.7188,5.7188,5.7188,5.7188,5.7188,5.7188,5.7188,5.7188,5.7188,5.7188,5.7188,5.7188,5.7188,5.7188,5.7188,5.7188,5.7188,5.7188,5.7188,5.7188,5.7188,5.7188,5.7188,5.7188,5.7188,5.7188,5.7188,5.7188,5.7188,5.7188,5.7188,5.7188,5.7188,5.7188,5.7188,5.7188,5.7188,5.7188,5.7036,5.6758,5.642,5.5762,5.4887,5.4548,5.4027,5.3501,5.3501,5.3501,5.3501,5.3501,5.3501,5.3501,5.3501,5.3501,5.3501,5.3501,5.3501,5.3501,5.3501,5.3501,5.3501,5.3501,5.3501,5.3501,5.3501,5.3501,5.3501,5.3501,5.3501,5.3501,5.3501,5.3501,5.3501,5.3501,5.3501,5.3501,5.3501,5.3501,5.3501,5.3501,5.3501,5.3501,5.3501,5.3501,5.3501,5.3501,5.3501,5.3501,5.3501,5.3501,5.3501,5.3501,5.3501,5.3501,5.3501,5.3501,5.3501,5.3501,5.3501,5.3501,5.3501,5.3501,5.3501,5.3501,5.3501,5.3501,5.3501,5.3501,5.3501,5.3501,5.3501,5.3501,5.3501,5.3501,5.3501,5.3501,5.7188,5.7188,5.7188,5.7188,5.7188,5.7188,5.7188,5.7188,5.7188,5.7188,5.7188,5.7188,5.7188,5.7188,5.7188,5.7188,5.7188,5.7188,5.7188,5.7188,5.7188,5.7188,5.7188,5.7188,5.7188,5.7188,5.7188,5.7188,5.7188,5.7188,5.7188,5.7188,5.7188,5.7188,5.7188,5.7188,5.7188,5.7087,5.6758,5.6284,5.6073,5.5349,5.4391,5.4281,5.3946,5.3501,5.3501,5.3501,5.3501,5.3501,5.3501,5.3501,5.3501,5.3501,5.3501,5.3501,5.3501,5.3501,5.3501,5.3501,5.3501,5.3501,5.3501,5.3501,5.3501,5.3501,5.3501,5.3501,5.3501,5.3501,5.3501,5.3501,5.3501,5.3501,5.3501,5.3501,5.3501,5.3501,5.3501,5.3501,5.3501,5.3501,5.3501,5.3501,5.3501,5.3501,5.3501,5.3501,5.3501,5.3501,5.3501,5.3501,5.3501,5.3501,5.3501,5.3501,5.3501,5.3501,5.3501,5.3501,5.3501,5.3501,5.3501,5.3501,5.3501,5.3501,5.3501,5.3501,5.3501,5.3501,5.3501,5.3501,5.3501,5.3501,5.3501,5.3501,5.7188,5.7188,5.7188,5.7188,5.7188,5.7188,5.7188,5.7188,5.7188,5.7188,5.7188,5.7188,5.7188,5.7188,5.7188,5.7188,5.7188,5.7188,5.7188,5.7188,5.7188,5.7188,5.7188,5.7188,5.7188,5.7188,5.7188,5.7188,5.7188,5.7188,5.7188,5.7188,5.7188,5.7188,5.7188,5.7188,5.7181,5.6635,5.6366,5.6184,5.5112,5.453,5.4328,5.3816,5.3551,5.3501,5.3501,5.3501,5.3501,5.3501,5.3501,5.3501,5.3501,5.3501,5.3501,5.3501,5.3501,5.3501,5.3501,5.3501,5.3501,5.3501,5.3501,5.3501,5.3501,5.3501,5.3501,5.3501,5.3501,5.3501,5.3501,5.3501,5.3501,5.3501,5.3501,5.3501,5.3501,5.3501,5.3501,5.3501,5.3501,5.3501,5.3501,5.3501,5.3501,5.3501,5.3501,5.3501,5.3501,5.3501,5.3501,5.3501,5.3501,5.3501,5.3501,5.3501,5.3501,5.3501,5.3501,5.3501,5.3501,5.3501,5.3501,5.3501,5.3501,5.3501,5.3501,5.3501,5.3501,5.3501,5.3501,5.3501,5.3501,5.3501,5.3501,5.3501,5.7188,5.7188,5.7188,5.7188,5.7188,5.7188,5.7188,5.7188,5.7188,5.7188,5.7188,5.7188,5.7188,5.7188,5.7387,5.7822,5.746,5.7188,5.7188,5.7188,5.7188,5.7188,5.7188,5.7188,5.7188,5.7188,5.7188,5.7188,5.7188,5.7188,5.7188,5.7188,5.7188,5.7188,5.7188,5.7188,5.7163,5.6915,5.6626,5.6229,5.5308,5.4734,5.4328,5.3734,5.3501,5.3501,5.3501,5.3501,5.3501,5.3501,5.3501,5.3501,5.3501,5.3501,5.3501,5.3501,5.3501,5.3501,5.3501,5.3501,5.3501,5.3501,5.3501,5.3501,5.3501,5.3501,5.3501,5.3501,5.3501,5.3501,5.3501,5.3501,5.3501,5.3501,5.3501,5.3501,5.3501,5.3501,5.3501,5.3501,5.3501,5.3501,5.3501,5.3501,5.3501,5.3501,5.3501,5.3501,5.3501,5.3501,5.3501,5.3501,5.3501,5.3501,5.3501,5.3501,5.3501,5.3501,5.3501,5.3501,5.3501,5.3501,5.3501,5.3501,5.3501,5.3501,5.3501,5.3501,5.3501,5.3501,5.3501,5.3501,5.3501,5.3501,5.3501,5.3501]}]]